ftp/pub/palmer/observations_modified/2019/June/AR190630_BASE.txt

Download

Sample DateTime	Unit Id	WS Avg 2min	WD Avg 2min	WGS 10min	WGD 10min	Air Temp	Rel Humidity	Dew Point	Pyranometer	Quantum	Air Pressure	Snow Level	Rainfall	PW Current	Visibility	CBase 1	CBase 2	CBase 3	Vert Vis
2019/06/30  00:00:00  BASE  4.04544  223  8.3202   237  -7.4  98    -7.6  0     0     998.9    NA       0.0000   9999     1080  0     0    
2019/06/30  00:01:00  BASE  3.08112  223  8.3202   237  -7.3  98    -7.6  0     0     998.9    NA       0.0000   9999     1080  0     0    
2019/06/30  00:02:00  BASE  2.74596  224  8.3202   237  -7.3  98    -7.6  0     0     998.9    NA       0.0000   9999     1150  0     0    
2019/06/30  00:03:00  BASE  3.51624  223  7.2912   236  -7.3  98    -7.6  0     0     998.9    NA       0.0000   9999     1180  0     0    
2019/06/30  00:04:00  BASE  4.34532  223  6.16812  239  -7.3  98    -7.5  0     0     998.8    NA       0.0000   9999     1120  0     0    
2019/06/30  00:05:00  BASE  4.01604  231  6.07992  242  -7.2  98    -7.5  0     0     998.9    NA       0.0000   9999     1120  0     0    
2019/06/30  00:06:00  BASE  3.13404  232  6.07992  242  -7.2  98    -7.4  0     0     998.8    NA       0.0000   9999     1080  0     0    
2019/06/30  00:07:00  BASE  2.7342   222  6.07992  242  -7.1  98    -7.4  0     0     998.9    NA       0.0000   9999     1150  0     0    
2019/06/30  00:08:00  BASE  2.86944  211  5.92704  235  -7.1  98    -7.4  0     0     998.9    NA       0.0000   9999     1180  0     0    
2019/06/30  00:09:00  BASE  3.86316  209  6.2034   216  -7.1  98    -7.4  0     0     998.9    NA       0.0000   9999     1210  0     0    
2019/06/30  00:10:00  BASE  5.52132  215  6.77376  215  -7.1  98    -7.4  0     0     998.8    NA       0.0000   9999     1210  0     0    
2019/06/30  00:11:00  BASE  6.67968  220  7.74396  217  -7.1  98    -7.4  0     0     998.8    NA       0.0000   9999     1310  0     0    
2019/06/30  00:12:00  BASE  6.97368  221  7.74396  217  -7.1  98    -7.4  0     0     998.8    NA       0.0000   9999     1250  0     0    
2019/06/30  00:13:00  BASE  6.89724  222  7.74396  217  -7.1  98    -7.4  0     0     998.8    NA       0.0000   9999     1210  0     0    
2019/06/30  00:14:00  BASE  6.37392  213  7.74396  217  -7.2  98    -7.5  0     0     998.9    NA       0.0000   9999     1180  0     0    
2019/06/30  00:15:00  BASE  4.851    200  7.74396  217  -7.2  98    -7.5  0     0     999.0    NA       0.0000   9999     1080  0     0    
2019/06/30  00:16:00  BASE  3.51036  199  7.74396  217  -7.2  97    -7.6  0     0     999.0    NA       0.0000   9999     1310  0     0    
2019/06/30  00:17:00  BASE  3.18108  205  7.74396  217  -7.3  97    -7.6  0     0     999.0    NA       0.0000   9999     1180  0     0    
2019/06/30  00:18:00  BASE  3.32808  219  7.74396  217  -7.3  97    -7.7  0     0     999.0    NA       0.0000   9999     1280  0     0    
2019/06/30  00:19:00  BASE  3.83964  228  7.74396  217  -7.3  97    -7.6  0     0     999.0    NA       0.0000   9999     1210  0     0    
2019/06/30  00:20:00  BASE  4.45116  227  7.74396  217  -7.2  97    -7.6  0     0     998.9    NA       0.0000   9999     1280  0     0    
2019/06/30  00:21:00  BASE  5.00388  222  7.65576  223  -7.2  97    -7.6  0     0     999.0    NA       0.0000   9999     1250  0     0    
2019/06/30  00:22:00  BASE  5.69184  220  7.65576  223  -7.2  97    -7.6  0     0     999.0    NA       0.0000   9999     1250  0     0    
2019/06/30  00:23:00  BASE  5.62128  224  7.35     219  -7.2  97    -7.6  0     0     999.0    NA       0.0000   9999     1350  0     0    
2019/06/30  00:24:00  BASE  4.41588  227  7.35     219  -7.2  97    -7.7  0     0     999.1    NA       0.0000   9999     1210  0     0    
2019/06/30  00:25:00  BASE  4.09248  230  7.35     219  -7.2  96    -7.7  0     0     999.0    NA       0.0000   9999     1310  0     0    
2019/06/30  00:26:00  BASE  5.58012  227  7.35     219  -7.3  96    -7.8  0     0     999.0    NA       0.0000   9999     1280  0     0    
2019/06/30  00:27:00  BASE  6.65028  221  7.35     219  -7.3  96    -7.8  0     0     999.0    NA       0.0000   9999     1280  0     0    
2019/06/30  00:28:00  BASE  6.07992  224  7.35     219  -7.3  96    -7.8  0     0     999.0    NA       0.0000   9999     1210  0     0    
2019/06/30  00:29:00  BASE  5.16852  229  7.35     219  -7.3  96    -7.8  0     0     999.0    NA       0.0000   9999     1150  0     0    
2019/06/30  00:30:00  BASE  4.68048  218  7.35     219  -7.3  96    -7.8  0     0     999.1    NA       0.0000   9999     1210  0     0    
2019/06/30  00:31:00  BASE  4.25712  207  7.35     219  -7.3  96    -7.8  0     0     999.1    NA       0.0000   9999     1250  0     0    
2019/06/30  00:32:00  BASE  3.95136  197  7.19712  221  -7.3  96    -7.9  0     0     999.0    NA       0.0000   9999     1050  0     0    
2019/06/30  00:33:00  BASE  3.73968  198  7.19712  221  -7.4  96    -7.9  0     0     999.0    NA       0.0000   9999     1180  0     0    
2019/06/30  00:34:00  BASE  3.41628  211  7.19712  221  -7.4  96    -7.9  0     0     999.0    NA       0.0000   9999     1180  0     0    
2019/06/30  00:35:00  BASE  2.59308  207  7.19712  221  -7.4  96    -7.9  0     0     999.0    NA       0.0000   9999     1210  0     0    
2019/06/30  00:36:00  BASE  1.92864  198  7.19712  221  -7.4  96    -8.0  0     0     999.0    NA       0.0000   9999     1210  0     0    
2019/06/30  00:37:00  BASE  1.80516  190  6.13872  217  -7.4  96    -8.0  0     0     999.0    NA       0.0000   9999     1210  0     0    
2019/06/30  00:38:00  BASE  1.6464   182  5.95644  213  -7.4  96    -8.0  0     0     999.1    NA       0.0000   9999     1180  0     0    
2019/06/30  00:39:00  BASE  2.00508  181  5.95644  213  -7.4  95    -8.0  0     0     999.1    NA       0.0000   9999     1150  0     0    
2019/06/30  00:40:00  BASE  2.10504  170  5.95644  213  -7.4  95    -8.0  0     0     999.0    NA       0.0000   9999     1120  0     0    
2019/06/30  00:41:00  BASE  1.85808  163  4.41588  195  -7.4  95    -8.1  0     0     999.0    NA       0.0000   9999     1050  0     0    
2019/06/30  00:42:00  BASE  1.83456  175  4.116    208  -7.4  95    -8.1  0     0     999.0    NA       0.0000   9999     1180  0     0    
2019/06/30  00:43:00  BASE  2.28732  181  3.81024  184  -7.4  95    -8.1  0     0     999.0    NA       0.0000   9999     1210  0     0    
2019/06/30  00:44:00  BASE  3.3222   189  4.93332  196  -7.4  95    -8.0  0     0     999.0    NA       0.0000   9999     1210  0     0    
2019/06/30  00:45:00  BASE  4.41588  196  5.83884  196  -7.4  95    -8.0  0     0     999.0    NA       0.0000   9999     1150  0     0    
2019/06/30  00:46:00  BASE  5.37432  203  6.321    207  -7.3  96    -7.9  0     0     999.0    NA       0.0000   9999     1150  0     0    
2019/06/30  00:47:00  BASE  5.55072  207  6.321    207  -7.3  96    -7.8  0     0     999.0    NA       0.0000   9999     1020  0     0    
2019/06/30  00:48:00  BASE  4.86864  210  6.321    207  -7.3  96    -7.8  0     0     999.0    NA       0.0000   9999     1050  0     0    
2019/06/30  00:49:00  BASE  3.97488  214  6.321    207  -7.2  96    -7.8  0     0     999.0    NA       0.0000   9999     980   0     0    
2019/06/30  00:50:00  BASE  3.51036  222  6.321    207  -7.2  96    -7.8  0     0     999.0    NA       0.0000   9999     1080  0     0    
2019/06/30  00:51:00  BASE  2.86356  230  6.321    207  -7.3  96    -7.8  0     0     999.0    NA       0.0000   9999     1080  0     0    
2019/06/30  00:52:00  BASE  1.79928  224  6.321    207  -7.3  96    -7.8  0     0     999.0    NA       0.0000   9999     1050  0     0    
2019/06/30  00:53:00  BASE  1.04076  222  6.321    207  -7.3  96    -7.9  0     0     999.0    NA       0.0000   9999     1120  0     0    
2019/06/30  00:54:00  BASE  1.14072  222  6.321    207  -7.3  96    -7.9  0     0     999.0    NA       0.0000   9999     1120  0     0    
2019/06/30  00:55:00  BASE  1.57584  207  6.321    207  -7.3  96    -7.8  0     0     999.0    NA       0.0000   9999     1180  0     0    
2019/06/30  00:56:00  BASE  1.764    202  5.86824  200  -7.3  96    -7.8  0     0     999.0    NA       0.0000   9999     1150  0     0    
2019/06/30  00:57:00  BASE  1.617    183  5.41548  212  -7.3  97    -7.8  0     0     999.0    NA       0.0000   9999     1180  0     0    
2019/06/30  00:58:00  BASE  1.95216  171  4.116    225  -7.3  97    -7.7  0     0     999.0    NA       0.0000   9999     1180  0     0    
2019/06/30  00:59:00  BASE  2.52252  179  3.62796  237  -7.3  97    -7.7  0     0     999.0    NA       0.0000   9999     1150  0     0    
2019/06/30  01:00:00  BASE  2.50488  189  3.2046   179  -7.3  97    -7.7  0     0     999.0    NA       0.0000   9999     1120  0     0    
2019/06/30  01:01:00  BASE  2.91648  203  4.2336   205  -7.3  97    -7.7  0     0     999.0    NA       0.0000   9999     1180  0     0    
2019/06/30  01:02:00  BASE  3.88668  206  4.93332  201  -7.2  97    -7.6  0     0     999.0    NA       0.0000   9999     1150  0     0    
2019/06/30  01:03:00  BASE  4.1748   200  4.93332  201  -7.2  97    -7.6  0     0     999.1    NA       0.0000   9999     1150  0     0    
2019/06/30  01:04:00  BASE  4.07484  193  4.99212  189  -7.2  97    -7.6  0     0     999.1    NA       0.0000   9999     1150  0     0    
2019/06/30  01:05:00  BASE  4.19244  192  4.99212  189  -7.1  97    -7.5  0     0     999.1    NA       0.0000   9999     1120  0     0    
2019/06/30  01:06:00  BASE  4.28064  190  5.10972  189  -7.2  97    -7.5  0     0     999.1    NA       0.0000   9999     1210  0     0    
2019/06/30  01:07:00  BASE  3.95136  202  5.10972  189  -7.2  97    -7.6  0     0     999.1    NA       0.0000   9999     1080  0     0    
2019/06/30  01:08:00  BASE  3.85728  219  5.10972  189  -7.2  97    -7.5  0     0     999.1    NA       0.0000   9999     1080  0     0    
2019/06/30  01:09:00  BASE  3.92784  223  5.10972  189  -7.2  97    -7.5  0     0     999.1    NA       0.0000   9999     1120  0     0    
2019/06/30  01:10:00  BASE  3.5868   222  5.10972  189  -7.2  98    -7.5  0     0     999.1    NA       0.0000   9999     1180  0     0    
2019/06/30  01:11:00  BASE  3.53976  217  5.10972  189  -7.2  98    -7.5  0     0     999.1    NA       0.0000   9999     1250  0     0    
2019/06/30  01:12:00  BASE  3.78672  214  5.10972  189  -7.2  98    -7.5  0     0     999.1    NA       0.0000   9999     1180  0     0    
2019/06/30  01:13:00  BASE  4.06896  211  5.10972  189  -7.2  98    -7.5  0     0     999.1    NA       0.0000   9999     1250  0     0    
2019/06/30  01:14:00  BASE  3.69264  214  5.10972  189  -7.2  98    -7.5  0     0     999.0    NA       0.0000   9999     1050  0     0    
2019/06/30  01:15:00  BASE  2.75772  229  5.10972  189  -7.2  98    -7.5  0     0     999.1    NA       0.0000   9999     890   0     0    
2019/06/30  01:16:00  BASE  2.058    226  5.02152  218  -7.2  98    -7.5  0     0     999.1    NA       0.0000   9999     920   0     0    
2019/06/30  01:17:00  BASE  1.76988  216  5.02152  218  -7.2  98    -7.5  0     0     999.1    NA       0.0000   9999     1050  0     0    
2019/06/30  01:18:00  BASE  1.7934   216  4.86864  208  -7.2  98    -7.5  0     0     999.1    NA       0.0000   9999     1150  0     0    
2019/06/30  01:19:00  BASE  2.19324  213  4.86864  208  -7.2  98    -7.5  0     0     999.1    NA       0.0000   9999     1180  0     0    
2019/06/30  01:20:00  BASE  2.44608  223  4.86864  208  -7.2  98    -7.5  0     0     999.1    NA       0.0000   9999     1080  0     0    
2019/06/30  01:21:00  BASE  2.59308  225  4.86864  208  -7.2  98    -7.5  0     0     999.1    NA       0.0000   9999     1020  0     0    
2019/06/30  01:22:00  BASE  2.63424  216  4.86864  208  -7.2  98    -7.5  0     0     999.1    NA       0.0000   9999     1020  0     0    
2019/06/30  01:23:00  BASE  2.37552  215  3.72204  217  -7.2  98    -7.5  0     0     999.1    NA       0.0000   9999     1050  0     0    
2019/06/30  01:24:00  BASE  2.14032  211  3.35748  231  -7.2  98    -7.4  0     0     999.1    NA       0.0000   9999     1080  0     0    
2019/06/30  01:25:00  BASE  1.89336  211  3.2046   222  -7.2  98    -7.5  0     0     999.1    NA       0.0000   9999     1050  0     0    
2019/06/30  01:26:00  BASE  1.9698   210  3.2046   222  -7.2  98    -7.5  0     0     999.1    NA       0.0000   9999     1080  0     0    
2019/06/30  01:27:00  BASE  2.6754   207  3.81024  210  -7.2  98    -7.5  0     0     999.1    NA       0.0000   9999     1120  0     0    
2019/06/30  01:28:00  BASE  3.23988  210  3.81024  210  -7.2  98    -7.5  0     0     999.1    NA       0.0000   9999     1150  0     0    
2019/06/30  01:29:00  BASE  3.97488  218  5.92704  217  -7.2  98    -7.5  0     0     999.0    NA       0.0000   9999     1180  0     0    
2019/06/30  01:30:00  BASE  5.38608  220  6.77376  210  -7.2  98    -7.5  0     0     999.0    NA       0.0000   9999     1250  0     0    
2019/06/30  01:31:00  BASE  6.13872  215  6.77376  210  -7.2  98    -7.5  0     0     998.9    NA       0.0000   9999     1180  0     0    
2019/06/30  01:32:00  BASE  5.72712  215  6.77376  210  -7.2  98    -7.5  0     0     998.9    NA       0.0000   9999     1050  0     0    
2019/06/30  01:33:00  BASE  5.10972  208  6.77376  210  -7.2  98    -7.5  0     0     998.9    NA       0.0000   9999     1020  0     0    
2019/06/30  01:34:00  BASE  4.45704  195  6.77376  210  -7.2  98    -7.5  0     0     999.0    NA       0.0000   9999     1020  0     0    
2019/06/30  01:35:00  BASE  3.63384  193  6.77376  210  -7.3  98    -7.5  0     0     999.1    NA       0.0000   9999     950   0     0    
2019/06/30  01:36:00  BASE  2.83416  192  6.77376  210  -7.3  98    -7.5  0     0     999.1    NA       0.0000   9999     850   0     0    
2019/06/30  01:37:00  BASE  2.68716  174  6.77376  210  -7.3  98    -7.6  0     0     999.1    NA       0.0000   9999     850   0     0    
2019/06/30  01:38:00  BASE  2.83416  155  6.77376  210  -7.3  98    -7.6  0     0     999.1    NA       0.0000   9999     890   0     0    
2019/06/30  01:39:00  BASE  2.28732  151  6.77376  210  -7.3  98    -7.6  0     0     999.1    NA       0.0000   9999     920   0     0    
2019/06/30  01:40:00  BASE  2.10504  149  6.44448  215  -7.3  98    -7.5  0     0     999.1    NA       0.0000   9999     980   0     0    
2019/06/30  01:41:00  BASE  2.08152  151  6.2622   213  -7.3  98    -7.5  0     0     999.1    NA       0.0000   9999     980   0     0    
2019/06/30  01:42:00  BASE  1.8816   156  5.2626   192  -7.3  99    -7.5  0     0     999.1    NA       0.0000   9999     980   0     0    
2019/06/30  01:43:00  BASE  2.14032  165  4.83924  190  -7.3  99    -7.5  0     0     999.1    NA       0.0000   9999     1020  0     0    
2019/06/30  01:44:00  BASE  2.27556  185  4.83924  190  -7.3  99    -7.4  0     0     999.1    NA       0.0000   9999     1020  0     0    
2019/06/30  01:45:00  BASE  2.1168   200  3.29868  158  -7.3  99    -7.4  0     0     999.1    NA       0.0000   9999     1020  0     0    
2019/06/30  01:46:00  BASE  2.21088  208  3.29868  158  -7.3  99    -7.4  0     0     999.1    NA       0.0000   9999     1020  0     0    
2019/06/30  01:47:00  BASE  2.48724  206  3.234    216  -7.3  99    -7.4  0     0     999.0    NA       0.0000   9999     1020  0     0    
2019/06/30  01:48:00  BASE  2.65188  206  3.29868  208  -7.3  99    -7.4  0     0     999.0    NA       0.0000   9999     1020  0     0    
2019/06/30  01:49:00  BASE  3.69264  212  5.83884  221  -7.3  99    -7.4  0     0     999.0    NA       0.0000   9999     1050  0     0    
2019/06/30  01:50:00  BASE  4.97448  210  6.2622   210  -7.2  99    -7.4  0     0     998.9    NA       0.0000   9999     1120  0     0    
2019/06/30  01:51:00  BASE  4.3806   210  6.2622   210  -7.2  99    -7.4  0     0     999.0    NA       0.0000   9999     1020  0     0    
2019/06/30  01:52:00  BASE  4.25124  208  6.59148  222  -7.3  99    -7.4  0     0     998.9    NA       0.0000   9999     980   0     0    
2019/06/30  01:53:00  BASE  5.7624   213  7.19712  216  -7.2  99    -7.3  0     0     998.9    NA       0.0000   9999     1120  0     0    
2019/06/30  01:54:00  BASE  6.09168  217  7.19712  216  -7.3  99    -7.3  0     0     998.9    NA       0.0000   9999     1050  0     0    
2019/06/30  01:55:00  BASE  5.49192  217  7.19712  216  -7.3  100   -7.3  0     0     999.0    NA       0.0000   9999     980   0     0    
2019/06/30  01:56:00  BASE  4.78044  222  7.19712  216  -7.3  100   -7.3  0     0     999.1    NA       0.0000   9999     980   0     0    
2019/06/30  01:57:00  BASE  4.25124  220  7.19712  216  -7.3  100   -7.4  0     0     999.1    NA       0.0000   9999     1050  0     0    
2019/06/30  01:58:00  BASE  4.16304  228  7.19712  216  -7.4  100   -7.4  0     0     999.0    NA       0.0000   9999     1020  0     0    
2019/06/30  01:59:00  BASE  3.71616  238  7.19712  216  -7.4  100   -7.4  0     0     999.1    NA       0.0000   9999     1050  0     0    
2019/06/30  02:00:00  BASE  3.62796  231  7.19712  216  -7.4  100   -7.4  0     0     999.0    NA       0.0000   9999     1210  0     0    
2019/06/30  02:01:00  BASE  4.66284  220  7.19712  216  -7.4  100   -7.4  0     0     999.0    NA       0.0000   9999     1250  0     0    
2019/06/30  02:02:00  BASE  5.12148  211  7.19712  216  -7.4  100   -7.5  0     0     999.0    NA       0.0000   9999     1280  0     0    
2019/06/30  02:03:00  BASE  4.78632  207  6.59148  221  -7.4  99    -7.5  0     0     999.0    NA       0.0000   9999     1280  0     0    
2019/06/30  02:04:00  BASE  4.86276  204  6.16812  223  -7.4  99    -7.5  0     0     999.0    NA       0.0000   9999     1180  0     0    
2019/06/30  02:05:00  BASE  4.92744  202  6.02112  208  -7.4  99    -7.5  0     0     999.0    NA       0.0000   9999     1120  0     0    
2019/06/30  02:06:00  BASE  4.5864   197  6.02112  208  -7.4  99    -7.5  0     0     999.1    NA       0.0000   9999     1020  0     0    
2019/06/30  02:07:00  BASE  4.22184  188  6.02112  208  -7.4  99    -7.6  0     0     999.1    NA       0.0000   9999     980   0     0    
2019/06/30  02:08:00  BASE  3.82788  179  6.02112  208  -7.4  99    -7.6  0     0     999.1    NA       0.0000   9999     1150  0     0    
2019/06/30  02:09:00  BASE  3.77496  172  6.02112  208  -7.5  99    -7.6  0     0     999.1    NA       0.0000   9999     1120  0     0    
2019/06/30  02:10:00  BASE  3.969    166  6.02112  208  -7.5  99    -7.6  0     0     999.1    NA       0.0000   9999     1150  0     0    
2019/06/30  02:11:00  BASE  3.43392  165  5.53308  200  -7.5  99    -7.6  0     0     999.1    NA       0.0000   9999     1150  0     0    
2019/06/30  02:12:00  BASE  2.793    163  5.53308  200  -7.5  99    -7.6  0     0     999.0    NA       0.0000   9999     1210  0     0    
2019/06/30  02:13:00  BASE  2.90472  163  5.53308  200  -7.5  99    -7.6  0     0     999.0    NA       0.0000   9999     1210  0     0    
2019/06/30  02:14:00  BASE  3.16344  163  5.35668  198  -7.5  99    -7.6  0     0     999.0    NA       0.0000   9999     1150  0     0    
2019/06/30  02:15:00  BASE  3.15756  166  5.08032  193  -7.5  99    -7.6  0     0     999.0    NA       0.0000   9999     1210  0     0    
2019/06/30  02:16:00  BASE  3.04584  178  4.65696  191  -7.5  99    -7.6  0     0     999.0    NA       0.0000   9999     1150  0     0    
2019/06/30  02:17:00  BASE  2.499    205  4.47468  162  -7.5  99    -7.6  0     0     999.0    NA       0.0000   9999     1020  0     0    
2019/06/30  02:18:00  BASE  1.49352  222  4.47468  162  -7.4  99    -7.6  0     0     999.0    NA       0.0000   9999     980   0     0    
2019/06/30  02:19:00  BASE  0.69384  222  4.47468  162  -7.4  99    -7.5  0     0     999.0    NA       0.0000   9999     1180  0     0    
2019/06/30  02:20:00  BASE  0.72912  199  3.69264  169  -7.3  99    -7.5  0     0     999.0    NA       0.0000   9999     1180  0     0    
2019/06/30  02:21:00  BASE  0.98784  167  3.69264  169  -7.3  98    -7.5  0     0     999.0    NA       0.0000   9999     1210  0     0    
2019/06/30  02:22:00  BASE  0.80556  173  3.69264  169  -7.3  98    -7.6  0     0     999.0    NA       0.0000   9999     1180  0     0    
2019/06/30  02:23:00  BASE  1.2348   191  3.69264  169  -7.3  98    -7.6  0     0     999.0    NA       0.0000   9999     1120  0     0    
2019/06/30  02:24:00  BASE  2.04036  190  3.69264  169  -7.3  98    -7.6  0     0     999.0    NA       0.0000   9999     1180  0     0    
2019/06/30  02:25:00  BASE  2.74596  180  4.263    187  -7.3  98    -7.6  0     0     999.0    NA       0.0000   9999     1150  0     0    
2019/06/30  02:26:00  BASE  3.528    177  4.78044  169  -7.3  98    -7.6  0     0     999.0    NA       0.0000   9999     1050  0     0    
2019/06/30  02:27:00  BASE  3.78084  171  4.78044  169  -7.3  98    -7.5  0     0     999.0    NA       0.0000   9999     1020  0     0    
2019/06/30  02:28:00  BASE  3.98664  165  4.86864  160  -7.3  98    -7.5  0     0     999.0    NA       0.0000   9999     1050  0     0    
2019/06/30  02:29:00  BASE  4.2336   177  4.99212  158  -7.2  98    -7.5  0     0     999.0    NA       0.0000   9999     980   0     0    
2019/06/30  02:30:00  BASE  4.13952  210  4.99212  158  -7.2  98    -7.4  0     0     999.1    NA       0.0000   9999     1020  0     0    
2019/06/30  02:31:00  BASE  3.87492  233  4.99212  158  -7.2  98    -7.4  0     0     999.1    NA       0.0000   9999     1050  0     0    
2019/06/30  02:32:00  BASE  3.38688  239  4.99212  158  -7.2  99    -7.3  0     0     999.1    NA       0.0000   9999     1080  0     0    
2019/06/30  02:33:00  BASE  2.77536  239  4.99212  158  -7.2  99    -7.3  0     0     999.1    NA       0.0000   9999     1080  0     0    
2019/06/30  02:34:00  BASE  2.48724  238  4.99212  158  -7.2  99    -7.3  0     0     999.1    NA       0.0000   9999     1080  0     0    
2019/06/30  02:35:00  BASE  3.71616  240  5.95644  246  -7.2  99    -7.3  0     0     999.0    NA       0.0000   9999     1120  0     0    
2019/06/30  02:36:00  BASE  4.55112  242  5.95644  246  -7.2  99    -7.3  0     0     999.1    NA       0.0000   9999     1120  0     0    
2019/06/30  02:37:00  BASE  4.02192  240  5.95644  246  -7.2  99    -7.3  0     0     999.0    NA       0.0000   9999     1150  0     0    
2019/06/30  02:38:00  BASE  4.62756  233  6.13872  224  -7.2  99    -7.3  0     0     998.9    NA       0.0000   9999     1080  0     0    
2019/06/30  02:39:00  BASE  5.4096   228  6.13872  224  -7.1  99    -7.3  0     0     998.9    NA       0.0000   9999     980   0     0    
2019/06/30  02:40:00  BASE  5.03916  217  6.13872  224  -7.2  99    -7.3  0     0     998.9    NA       0.0000   9999     1020  0     0    
2019/06/30  02:41:00  BASE  3.78084  202  6.13872  224  -7.2  99    -7.3  0     0     998.9    NA       0.0000   9999     920   0     0    
2019/06/30  02:42:00  BASE  3.11052  195  6.13872  224  -7.2  99    -7.3  0     0     998.9    NA       0.0000   9999     1050  0     0    
2019/06/30  02:43:00  BASE  3.675    193  6.13872  224  -7.2  99    -7.3  0     0     998.9    NA       0.0000   9999     1080  0     0    
2019/06/30  02:44:00  BASE  3.48684  194  6.13872  224  -7.2  99    -7.3  0     0     999.0    NA       0.0000   9999     1120  0     0    
2019/06/30  02:45:00  BASE  3.04584  190  6.13872  224  -7.2  99    -7.3  0     0     999.0    NA       0.0000   9999     1020  0     0    
2019/06/30  02:46:00  BASE  3.4986   201  6.13872  224  -7.2  99    -7.3  0     0     999.0    NA       0.0000   9999     1050  0     0    
2019/06/30  02:47:00  BASE  4.2042   220  6.13872  224  -7.2  99    -7.3  0     0     999.0    NA       0.0000   9999     1120  0     0    
2019/06/30  02:48:00  BASE  4.62756  209  5.78004  227  -7.1  99    -7.3  0     0     999.1    NA       0.0000   9999     1180  0     0    
2019/06/30  02:49:00  BASE  4.15716  190  5.53308  209  -7.1  99    -7.2  0     0     999.1    NA       0.0000   9999     1080  0     0    
2019/06/30  02:50:00  BASE  3.78672  190  5.145    195  -7.1  99    -7.3  0     0     999.1    NA       0.0000   9999     1020  0     0    
2019/06/30  02:51:00  BASE  4.15716  202  5.145    195  -7.1  99    -7.2  0     0     999.1    NA       0.0000   9999     1020  0     0    
2019/06/30  02:52:00  BASE  4.29828  209  5.145    195  -7.1  99    -7.2  0     0     999.1    NA       0.0000   9999     1120  0     0    
2019/06/30  02:53:00  BASE  3.83964  206  5.145    195  -7.1  99    -7.3  0     0     999.1    NA       0.0000   9999     1150  0     0    
2019/06/30  02:54:00  BASE  3.66912  210  5.145    195  -7.1  99    -7.3  0     0     999.1    NA       0.0000   9999     1150  0     0    
2019/06/30  02:55:00  BASE  3.85728  224  5.145    195  -7.1  99    -7.2  0     0     999.1    NA       0.0000   9999     1150  0     0    
2019/06/30  02:56:00  BASE  3.60444  225  5.145    195  -7.2  99    -7.3  0     0     999.1    NA       0.0000   9999     1150  0     0    
2019/06/30  02:57:00  BASE  2.93412  220  5.145    195  -7.2  99    -7.3  0     0     999.1    NA       0.0000   9999     1050  0     0    
2019/06/30  02:58:00  BASE  2.14032  223  4.89804  209  -7.2  99    -7.3  0     0     999.1    NA       0.0000   9999     1150  0     0    
2019/06/30  02:59:00  BASE  2.1462   221  4.89804  209  -7.2  99    -7.4  0     0     999.1    NA       0.0000   9999     1080  0     0    
2019/06/30  03:00:00  BASE  3.21636  218  5.65656  224  -7.3  99    -7.4  0     0     999.1    NA       0.0000   9999     1120  0     0    
2019/06/30  03:01:00  BASE  4.557    222  6.41508  225  -7.2  99    -7.4  0     0     999.1    NA       0.0000   9999     1120  0     0    
2019/06/30  03:02:00  BASE  5.41548  227  6.41508  225  -7.2  99    -7.3  0     0     999.1    NA       0.0000   9999     1120  0     0    
2019/06/30  03:03:00  BASE  5.39196  233  6.41508  225  -7.2  99    -7.3  0     0     999.1    NA       0.0000   9999     1150  0     0    
2019/06/30  03:04:00  BASE  5.15676  240  6.41508  225  -7.2  99    -7.3  0     0     999.1    NA       0.0000   9999     1080  0     0    
2019/06/30  03:05:00  BASE  4.41     239  6.41508  225  -7.2  99    -7.4  0     0     999.2    NA       0.0000   9999     1050  0     0    
2019/06/30  03:06:00  BASE  3.1752   239  6.41508  225  -7.2  98    -7.4  0     0     999.2    NA       0.0000   9999     1050  0     0    
2019/06/30  03:07:00  BASE  2.66952  240  6.41508  225  -7.3  98    -7.5  0     0     999.2    NA       0.0000   9999     1080  0     0    
2019/06/30  03:08:00  BASE  2.69892  228  6.41508  225  -7.3  98    -7.5  0     0     999.2    NA       0.0000   9999     1080  0     0    
2019/06/30  03:09:00  BASE  2.83416  212  6.41508  225  -7.3  99    -7.5  0     0     999.2    NA       0.0000   9999     1080  0     0    
2019/06/30  03:10:01  BASE  3.89844  204  6.41508  225  -7.3  99    -7.4  0     0     999.2    NA       0.0000   9999     1120  0     0    
2019/06/30  03:11:01  BASE  5.16852  196  6.3504   194  -7.2  99    -7.4  0     0     999.2    NA       0.0000   9999     1080  0     0    
2019/06/30  03:12:01  BASE  5.3508   194  6.3504   194  -7.2  99    -7.4  0     0     999.2    NA       0.0000   9999     1080  0     0    
2019/06/30  03:13:01  BASE  5.36844  194  6.3504   194  -7.2  99    -7.4  0     0     999.2    NA       0.0000   9999     1180  0     0    
2019/06/30  03:14:01  BASE  5.3508   200  6.3504   194  -7.3  99    -7.4  0     0     999.2    NA       0.0000   9999     1120  0     0    
2019/06/30  03:15:01  BASE  5.50956  214  6.47388  229  -7.3  99    -7.4  0     0     999.2    NA       0.0000   9999     1050  0     0    
2019/06/30  03:16:01  BASE  5.10384  218  6.47388  229  -7.3  99    -7.5  0     0     999.2    NA       0.0000   9999     1080  0     0    
2019/06/30  03:17:01  BASE  4.35708  228  6.47388  229  -7.3  99    -7.5  0     0     999.2    NA       0.0000   9999     1020  0     0    
2019/06/30  03:18:01  BASE  3.18696  235  6.47388  229  -7.3  99    -7.5  0     0     999.2    NA       0.0000   9999     1020  0     0    
2019/06/30  03:19:01  BASE  1.81692  248  6.47388  229  -7.4  99    -7.5  0     0     999.2    NA       0.0000   9999     1080  0     0    
2019/06/30  03:20:01  BASE  1.52292  263  6.47388  229  -7.4  98    -7.6  0     0     999.2    NA       0.0000   9999     1150  0     0    
2019/06/30  03:21:01  BASE  1.47     259  6.47388  229  -7.4  98    -7.6  0     0     999.2    NA       0.0000   9999     1150  0     0    
2019/06/30  03:22:01  BASE  1.44648  252  6.47388  229  -7.4  98    -7.6  0     0     999.2    NA       0.0000   9999     1180  0     0    
2019/06/30  03:23:01  BASE  1.68168  219  6.47388  229  -7.4  98    -7.7  0     0     999.2    NA       0.0000   9999     1180  0     0    
2019/06/30  03:24:01  BASE  2.56368  189  6.47388  229  -7.4  98    -7.6  0     0     999.2    NA       0.0000   9999     1210  0     0    
2019/06/30  03:25:01  BASE  3.1752   189  4.80984  215  -7.4  98    -7.6  0     0     999.2    NA       0.0000   9999     1080  0     0    
2019/06/30  03:26:01  BASE  3.21048  183  4.59816  257  -7.4  98    -7.6  0     0     999.2    NA       0.0000   9999     1210  0     0    
2019/06/30  03:27:01  BASE  3.087    185  3.99252  181  -7.4  98    -7.7  0     0     999.2    NA       0.0000   9999     1210  0     0    
2019/06/30  03:28:01  BASE  3.21636  186  3.99252  181  -7.4  98    -7.7  0     0     999.2    NA       0.0000   9999     1120  0     0    
2019/06/30  03:29:01  BASE  3.38688  182  3.99252  181  -7.4  98    -7.7  0     0     999.2    NA       0.0000   9999     1280  0     0    
2019/06/30  03:30:01  BASE  3.18696  195  3.99252  181  -7.4  98    -7.6  0     0     999.2    NA       0.0000   9999     1310  0     0    
2019/06/30  03:31:00  BASE  2.98116  218  3.99252  181  -7.4  98    -7.6  0     0     999.2    NA       0.0000   9999     1280  0     0    
2019/06/30  03:32:00  BASE  2.60484  230  3.99252  181  -7.3  98    -7.6  0     0     999.2    NA       0.0000   9999     1280  0     0    
2019/06/30  03:33:00  BASE  2.34612  230  3.99252  181  -7.3  98    -7.6  0     0     999.2    NA       0.0000   9999     1280  0     0    
2019/06/30  03:34:00  BASE  3.39864  233  5.10972  230  -7.3  98    -7.5  0     0     999.2    NA       0.0000   9999     1280  0     0    
2019/06/30  03:35:00  BASE  4.3806   233  5.10972  230  -7.3  98    -7.5  0     0     999.2    NA       0.0000   9999     1250  0     0    
2019/06/30  03:36:00  BASE  4.49232  239  5.62716  255  -7.3  98    -7.5  0     0     999.2    NA       0.0000   9999     1280  0     0    
2019/06/30  03:37:00  BASE  4.851    251  5.62716  255  -7.3  98    -7.6  0     0     999.2    NA       0.0000   9999     1280  0     0    
2019/06/30  03:38:00  BASE  4.68048  253  5.62716  255  -7.3  98    -7.6  0     0     999.2    NA       0.0000   9999     1280  0     0    
2019/06/30  03:39:00  BASE  4.56876  250  5.62716  255  -7.3  97    -7.7  0     0     999.2    NA       0.0000   9999     1310  0     0    
2019/06/30  03:40:00  BASE  5.36256  251  6.44448  251  -7.3  97    -7.7  0     0     999.2    NA       0.0000   9999     1350  0     0    
2019/06/30  03:41:00  BASE  5.68596  250  6.44448  251  -7.4  97    -7.8  0     0     999.3    NA       0.0000   9999     1280  0     0    
2019/06/30  03:42:00  BASE  5.41548  253  6.44448  251  -7.4  97    -7.8  0     0     999.3    NA       0.0000   9999     1250  0     0    
2019/06/30  03:43:00  BASE  4.86864  261  6.44448  251  -7.5  97    -7.9  0     0     999.4    NA       0.0000   9999     1310  0     0    
2019/06/30  03:44:00  BASE  3.5868   265  6.44448  251  -7.5  97    -7.9  0     0     999.4    NA       0.0000   9999     1280  0     0    
2019/06/30  03:45:00  BASE  3.06348  261  6.44448  251  -7.5  97    -7.9  0     0     999.4    NA       0.0000   9999     1210  0     0    
2019/06/30  03:46:00  BASE  3.0282   257  6.44448  251  -7.5  97    -7.9  0     0     999.4    NA       0.0000   9999     1210  0     0    
2019/06/30  03:47:00  BASE  2.99292  257  6.44448  251  -7.5  97    -7.9  0     0     999.4    NA       0.0000   9999     1250  0     0    
2019/06/30  03:48:00  BASE  3.22224  257  6.44448  251  -7.5  97    -7.9  0     0     999.4    NA       0.0000   9999     1350  0     0    
2019/06/30  03:49:00  BASE  3.54564  257  6.44448  251  -7.5  96    -7.9  0     0     999.4    NA       0.0000   9999     1410  0     0    
2019/06/30  03:50:00  BASE  3.50448  246  6.2034   263  -7.4  96    -7.9  0     0     999.4    NA       0.0000   9999     1380  0     0    
2019/06/30  03:51:00  BASE  3.16932  241  6.2034   263  -7.4  96    -7.9  0     0     999.4    NA       0.0000   9999     1350  0     0    
2019/06/30  03:52:00  BASE  3.02232  249  5.05092  257  -7.4  96    -7.9  0     0     999.4    NA       0.0000   9999     1280  0     0    
2019/06/30  03:53:00  BASE  3.08112  253  4.2336   244  -7.4  96    -7.9  0     0     999.4    NA       0.0000   9999     1350  0     0    
2019/06/30  03:54:00  BASE  3.68676  240  4.35708  227  -7.4  96    -7.9  0     0     999.4    NA       0.0000   9999     1510  0     0    
2019/06/30  03:55:00  BASE  3.91608  231  4.38648  235  -7.4  96    -7.9  0     0     999.4    NA       0.0000   9999     1540  0     0    
2019/06/30  03:56:00  BASE  3.83964  243  4.47468  253  -7.4  96    -8.0  0     0     999.4    NA       0.0000   9999     1410  0     0    
2019/06/30  03:57:00  BASE  3.60444  255  4.47468  253  -7.4  96    -8.0  0     0     999.4    NA       0.0000   9999     1310  0     0    
2019/06/30  03:58:00  BASE  3.1752   262  4.47468  253  -7.4  95    -8.0  0     0     999.4    NA       0.0000   9999     1350  0     0    
2019/06/30  03:59:00  BASE  3.4986   262  4.56876  278  -7.4  95    -8.1  0     0     999.4    NA       0.0000   9999     1380  0     0    
2019/06/30  04:00:00  BASE  3.528    271  4.56876  278  -7.4  95    -8.1  0     0     999.4    NA       0.0000   9999     1280  0     0    
2019/06/30  04:01:00  BASE  3.27516  280  4.56876  278  -7.5  95    -8.2  0     0     999.5    NA       0.0000   9999     1310  0     0    
2019/06/30  04:02:00  BASE  3.69852  270  4.56876  278  -7.5  95    -8.2  0     0     999.4    NA       0.0000   9999     1410  0     0    
2019/06/30  04:03:00  BASE  3.77496  269  4.56876  278  -7.5  94    -8.3  0     0     999.5    NA       0.0000   9999     1410  0     0    
2019/06/30  04:04:00  BASE  3.22224  270  4.56876  278  -7.5  94    -8.3  0     0     999.5    NA       0.0000   9999     1350  0     0    
2019/06/30  04:05:00  BASE  2.56368  266  4.56876  278  -7.5  94    -8.4  0     0     999.6    NA       0.0000   9999     1350  0     0    
2019/06/30  04:06:00  BASE  2.02272  261  4.56876  278  -7.5  94    -8.4  0     0     999.6    NA       0.0000   9999     1510  0     0    
2019/06/30  04:07:00  BASE  2.42256  242  4.56876  278  -7.6  93    -8.4  0     0     999.5    NA       0.0000   9999     1410  0     0    
2019/06/30  04:08:00  BASE  2.51076  228  4.56876  278  -7.6  93    -8.5  0     0     999.6    NA       0.0000   9999     1510  0     0    
2019/06/30  04:09:00  BASE  1.2936   223  4.53936  261  -7.6  93    -8.6  0     0     999.6    NA       0.0000   9999     1480  0     0    
2019/06/30  04:10:00  BASE  0.29988  235  4.53936  261  -7.6  92    -8.7  0     0     999.6    NA       0.0000   9999     1510  0     0    
2019/06/30  04:11:00  BASE  0.06468  276  4.53936  261  -7.6  92    -8.7  0     0     999.6    NA       0.0000   9999     1540  0     0    
2019/06/30  04:12:00  BASE  0.44688  296  4.32768  272  -7.6  92    -8.8  0     0     999.6    NA       0.0000   9999     1540  0     0    
2019/06/30  04:13:00  BASE  0.64092  291  3.53976  259  -7.6  91    -8.8  0     0     999.6    NA       0.0000   9999     1570  0     0    
2019/06/30  04:14:00  BASE  0.43512  280  3.29868  237  -7.6  91    -8.8  0     0     999.6    NA       0.0000   9999     1540  0     0    
2019/06/30  04:15:00  BASE  0.44688  275  3.29868  237  -7.6  90    -8.9  0     0     999.6    NA       0.0000   9999     1570  0     0    
2019/06/30  04:16:00  BASE  0.58212  274  3.26928  223  -7.6  90    -8.9  0     0     999.7    NA       0.0000   9999     1540  0     0    
2019/06/30  04:17:00  BASE  1.04664  266  2.48136  233  -7.6  90    -8.9  0     0     999.7    NA       0.0000   9999     1540  0     0    
2019/06/30  04:18:00  BASE  1.25832  264  1.66404  270  -7.6  90    -8.9  0     0     999.7    NA       0.0000   9999     1570  0     0    
2019/06/30  04:19:00  BASE  0.51744  254  1.66404  270  -7.5  90    -8.9  0     0     999.7    NA       0.0000   9999     1480  0     0    
2019/06/30  04:20:00  BASE  0        240  1.66404  270  -7.5  90    -8.9  0     0     999.7    NA       0.0000   9999     1510  0     0    
2019/06/30  04:21:00  BASE  0.06468  216  1.66404  270  -7.5  89    -8.9  0     0     999.7    NA       0.0000   9999     1610  0     0    
2019/06/30  04:22:00  BASE  0.71148  185  1.66404  270  -7.5  89    -9.0  0     0     999.7    NA       0.0000   9999     1570  0     0    
2019/06/30  04:23:00  BASE  1.06428  173  1.66404  270  -7.5  89    -9.0  0     0     999.7    NA       0.0000   9999     1510  0     0    
2019/06/30  04:24:00  BASE  1.07604  159  1.66404  270  -7.5  89    -8.9  0     0     999.7    NA       0.0000   9999     1510  0     0    
2019/06/30  04:25:00  BASE  1.11132  165  1.66404  270  -7.5  90    -8.9  0     0     999.7    NA       0.0000   9999     1540  0     0    
2019/06/30  04:26:00  BASE  1.50528  191  3.44568  246  -7.5  90    -8.8  0     0     999.6    NA       0.0000   9999     1570  0     0    
2019/06/30  04:27:00  BASE  2.81652  225  4.08072  237  -7.4  90    -8.8  0     0     999.6    NA       0.0000   9999     1610  0     0    
2019/06/30  04:28:00  BASE  4.05132  247  5.2038   240  -7.4  90    -8.7  0     0     999.6    NA       0.0000   9999     1640  0     0    
2019/06/30  04:29:00  BASE  4.59816  241  5.2038   240  -7.4  90    -8.7  0     0     999.6    NA       0.0000   9999     1640  0     0    
2019/06/30  04:30:00  BASE  4.51584  231  5.2038   240  -7.4  90    -8.7  0     0     999.6    NA       0.0000   9999     1540  0     0    
2019/06/30  04:31:00  BASE  4.36884  233  5.2038   240  -7.4  90    -8.7  0     0     999.6    NA       0.0000   9999     1610  0     0    
2019/06/30  04:32:00  BASE  4.27476  234  5.2038   240  -7.4  90    -8.8  0     0     999.6    NA       0.0000   9999     1510  0     0    
2019/06/30  04:33:00  BASE  3.75732  235  5.2038   240  -7.4  90    -8.8  0     0     999.7    NA       0.0000   9999     1440  0     0    
2019/06/30  04:34:00  BASE  5.15088  235  8.59068  230  -7.4  90    -8.8  0     0     999.5    NA       0.0000   9999     1570  0     0    
2019/06/30  04:35:00  BASE  5.87412  233  8.59068  230  -7.5  90    -8.8  0     0     999.7    NA       0.0000   9999     1540  0     0    
2019/06/30  04:36:00  BASE  4.10424  236  8.59068  230  -7.5  90    -8.9  0     0     999.7    NA       0.0000   9999     1510  0     0    
2019/06/30  04:37:00  BASE  3.88668  238  8.59068  230  -7.5  90    -8.9  0     0     999.7    NA       0.0000   9999     1380  0     0    
2019/06/30  04:38:00  BASE  4.03956  239  8.59068  230  -7.6  90    -8.9  0     0     999.7    NA       0.0000   9999     1350  0     0    
2019/06/30  04:39:00  BASE  3.7338   243  8.59068  230  -7.6  90    -8.9  0     0     999.7    NA       0.0000   9999     1440  0     0    
2019/06/30  04:40:00  BASE  3.9102   240  8.59068  230  -7.5  90    -8.9  0     0     999.7    NA       0.0000   9999     1480  0     0    
2019/06/30  04:41:00  BASE  4.25124  232  8.59068  230  -7.5  90    -8.8  0     0     999.7    NA       0.0000   9999     1540  0     0    
2019/06/30  04:42:00  BASE  3.97488  223  8.59068  230  -7.5  90    -8.8  0     0     999.7    NA       0.0000   9999     1380  0     0    
2019/06/30  04:43:00  BASE  3.44568  222  8.59068  230  -7.5  91    -8.7  0     0     999.7    NA       0.0000   9999     1250  0     0    
2019/06/30  04:44:00  BASE  2.72244  226  5.92704  232  -7.5  91    -8.7  0     0     999.7    NA       0.0000   9999     1380  0     0    
2019/06/30  04:45:00  BASE  1.65228  213  4.96272  227  -7.5  91    -8.7  0     0     999.7    NA       0.0000   9999     1280  0     0    
2019/06/30  04:46:00  BASE  1.24656  197  4.96272  227  -7.6  91    -8.8  0     0     999.7    NA       0.0000   9999     1350  0     0    
2019/06/30  04:47:00  BASE  1.48764  199  4.96272  227  -7.6  91    -8.8  0     0     999.7    NA       0.0000   9999     1380  0     0    
2019/06/30  04:48:00  BASE  1.69344  201  4.96272  227  -7.6  91    -8.8  0     0     999.7    NA       0.0000   9999     1380  0     0    
2019/06/30  04:49:00  BASE  1.65228  203  4.96272  227  -7.6  91    -8.8  0     0     999.7    NA       0.0000   9999     1380  0     0    
2019/06/30  04:50:00  BASE  1.45824  207  4.80984  217  -7.5  91    -8.7  0     0     999.7    NA       0.0000   9999     1350  0     0    
2019/06/30  04:51:00  BASE  1.78752  207  4.35708  222  -7.5  91    -8.7  0     0     999.7    NA       0.0000   9999     1350  0     0    
2019/06/30  04:52:00  BASE  1.93452  209  3.62796  230  -7.5  92    -8.6  0     0     999.7    NA       0.0000   9999     1350  0     0    
2019/06/30  04:53:00  BASE  2.11092  204  3.41628  179  -7.5  92    -8.6  0     0     999.8    NA       0.0000   9999     1380  0     0    
2019/06/30  04:54:01  BASE  2.63424  180  3.41628  179  -7.5  92    -8.5  0     0     999.8    NA       0.0000   9999     1250  0     0    
2019/06/30  04:55:01  BASE  2.86944  179  4.1748   218  -7.5  92    -8.5  0     0     999.8    NA       0.0000   9999     1250  0     0    
2019/06/30  04:56:01  BASE  3.234    194  4.1748   218  -7.4  92    -8.5  0     0     999.8    NA       0.0000   9999     1150  0     0    
2019/06/30  04:57:01  BASE  3.37512  206  4.1748   218  -7.4  92    -8.4  0     0     999.8    NA       0.0000   9999     1180  0     0    
2019/06/30  04:58:01  BASE  3.234    222  4.1748   218  -7.3  93    -8.3  0     0     999.8    NA       0.0000   9999     1250  0     0    
2019/06/30  04:59:01  BASE  2.98116  225  4.1748   218  -7.3  93    -8.3  0     0     999.8    NA       0.0000   9999     1250  0     0    
2019/06/30  05:00:01  BASE  2.91648  220  4.1748   218  -7.3  93    -8.2  0     0     999.8    NA       0.0000   9999     1250  0     0    
2019/06/30  05:01:01  BASE  2.79888  222  4.1748   218  -7.3  93    -8.2  0     0     999.8    NA       0.0000   9999     1310  0     0    
2019/06/30  05:02:01  BASE  3.04584  237  4.75104  228  -7.3  93    -8.1  0     0     999.8    NA       0.0000   9999     1310  0     0    
2019/06/30  05:03:01  BASE  3.86316  235  5.10972  232  -7.2  94    -8.1  0     0     999.8    NA       0.0000   9999     1180  0     0    
2019/06/30  05:04:01  BASE  4.51584  230  5.3214   237  -7.2  94    -8.1  0     0     999.8    NA       0.0000   9999     1180  0     0    
2019/06/30  05:05:01  BASE  5.54484  234  6.89724  231  -7.2  94    -8.0  0     0     999.8    NA       0.0000   9999     1250  0     0    
2019/06/30  05:06:01  BASE  5.95056  234  6.89724  231  -7.2  94    -8.0  0     0     999.8    NA       0.0000   9999     1210  0     0    
2019/06/30  05:07:01  BASE  5.60952  231  6.89724  231  -7.3  94    -8.1  0     0     999.9    NA       0.0000   9999     1180  0     0    
2019/06/30  05:08:01  BASE  5.16852  229  6.89724  231  -7.3  94    -8.1  0     0     999.8    NA       0.0000   9999     1210  0     0    
2019/06/30  05:09:01  BASE  4.42764  229  6.89724  231  -7.3  94    -8.1  0     0     999.8    NA       0.0000   9999     1480  0     0    
2019/06/30  05:10:01  BASE  3.78672  224  6.89724  231  -7.4  94    -8.2  0     0     999.8    NA       0.0000   9999     1570  0     0    
2019/06/30  05:11:01  BASE  3.1458   216  6.89724  231  -7.4  94    -8.2  0     0     999.8    NA       0.0000   9999     1570  0     0    
2019/06/30  05:12:01  BASE  2.99292  209  6.89724  231  -7.4  94    -8.2  0     0     999.7    NA       0.0000   9999     1610  0     0    
2019/06/30  05:13:01  BASE  3.31044  202  6.89724  231  -7.4  94    -8.2  0     0     999.7    NA       0.0000   9999     1410  0     0    
2019/06/30  05:14:01  BASE  3.55152  207  6.89724  231  -7.3  94    -8.2  0     0     999.7    NA       0.0000   9999     1540  0     0    
2019/06/30  05:15:01  BASE  3.68088  228  6.74436  227  -7.3  93    -8.2  0     0     999.7    NA       0.0000   9999     1610  0     0    
2019/06/30  05:16:01  BASE  3.38688  247  6.74436  227  -7.3  93    -8.2  0     0     999.7    NA       0.0000   9999     1740  0     0    
2019/06/30  05:17:01  BASE  2.89884  256  6.53268  227  -7.3  93    -8.2  0     0     999.7    NA       0.0000   9999     1670  0     0    
2019/06/30  05:18:01  BASE  2.44608  260  4.78044  209  -7.3  93    -8.3  0     0     999.7    NA       0.0000   9999     1740  0     0    
2019/06/30  05:19:01  BASE  2.25204  258  4.78044  209  -7.3  93    -8.3  0     0     999.7    NA       0.0000   9999     1740  0     0    
2019/06/30  05:20:01  BASE  2.56368  251  4.50996  234  -7.4  92    -8.4  0     0     999.7    NA       0.0000   9999     1640  0     0    
2019/06/30  05:21:01  BASE  2.60484  234  4.50996  234  -7.4  92    -8.5  0     0     999.7    NA       0.0000   9999     1710  0     0    
2019/06/30  05:22:01  BASE  2.28732  220  4.50996  234  -7.4  92    -8.5  0     0     999.7    NA       0.0000   9999     1670  0     0    
2019/06/30  05:23:01  BASE  2.88708  221  4.62756  220  -7.3  91    -8.5  0     0     999.7    NA       0.0000   9999     1870  0     0    
2019/06/30  05:24:01  BASE  4.19244  212  5.145    205  -7.3  91    -8.5  0     0     999.7    NA       0.0000   9999     1800  0     0    
2019/06/30  05:25:01  BASE  4.47468  209  5.145    205  -7.3  91    -8.5  0     0     999.7    NA       0.0000   9999     1770  0     0    
2019/06/30  05:26:01  BASE  4.3512   221  5.145    205  -7.2  90    -8.5  0     0     999.6    NA       0.0000   9999     1770  0     0    
2019/06/30  05:27:01  BASE  4.65108  223  5.89764  223  -7.2  90    -8.5  0     0     999.6    NA       0.0000   9999     1900  0     0    
2019/06/30  05:28:01  BASE  4.51584  217  5.89764  223  -7.2  90    -8.5  0     0     999.6    NA       0.0000   9999     1870  0     0    
2019/06/30  05:29:01  BASE  4.22184  217  5.89764  223  -7.2  90    -8.6  0     0     999.6    NA       0.0000   9999     1710  0     0    
2019/06/30  05:30:01  BASE  4.25124  218  5.89764  223  -7.2  89    -8.6  0     0     999.6    NA       0.0000   9999     1770  0     0    
2019/06/30  05:31:01  BASE  3.68676  216  5.89764  223  -7.2  89    -8.7  0     0     999.6    NA       0.0000   9999     1800  0     0    
2019/06/30  05:32:01  BASE  3.44568  229  5.89764  223  -7.2  89    -8.7  0     0     999.6    NA       0.0000   9999     1900  0     0    
2019/06/30  05:33:01  BASE  3.43392  235  5.89764  223  -7.2  88    -8.7  0     0     999.6    NA       0.0000   9999     1870  0     0    
2019/06/30  05:34:01  BASE  2.9988   227  5.89764  223  -7.1  88    -8.8  0     0     999.7    NA       0.0000   9999     1800  0     0    
2019/06/30  05:35:01  BASE  2.78712  219  5.89764  223  -7.1  88    -8.8  0     0     999.7    NA       0.0000   9999     1800  0     0    
2019/06/30  05:36:01  BASE  2.9106   211  5.89764  223  -7.1  88    -8.8  0     0     999.7    NA       0.0000   9999     1770  0     0    
2019/06/30  05:37:01  BASE  2.87532  211  4.80984  217  -7.1  88    -8.8  0     0     999.7    NA       0.0000   9999     1770  0     0    
2019/06/30  05:38:01  BASE  2.89884  209  4.80984  217  -7.1  88    -8.8  0     0     999.7    NA       0.0000   9999     1800  0     0    
2019/06/30  05:39:01  BASE  3.24576  215  4.80984  217  -7.1  88    -8.8  0     0     999.7    NA       0.0000   9999     1770  0     0    
2019/06/30  05:40:01  BASE  2.793    224  4.38648  249  -7.2  88    -8.8  0     0     999.6    NA       0.0000   9999     1740  0     0    
2019/06/30  05:41:01  BASE  2.53428  228  4.38648  249  -7.2  88    -8.8  0     0     999.6    NA       0.0000   9999     1670  0     0    
2019/06/30  05:42:01  BASE  3.01056  233  3.86904  219  -7.2  88    -8.8  0     0     999.6    NA       0.0000   9999     1770  0     0    
2019/06/30  05:43:01  BASE  3.26928  232  3.86904  219  -7.1  88    -8.8  0     0     999.5    NA       0.0000   9999     1800  0     0    
2019/06/30  05:44:01  BASE  3.52212  228  4.75104  224  -7.1  88    -8.8  0     0     999.5    NA       0.0000   9999     1710  0     0    
2019/06/30  05:45:01  BASE  4.07484  226  4.89804  232  -7.1  87    -8.9  0     0     999.5    NA       0.0000   9999     1770  0     0    
2019/06/30  05:46:01  BASE  4.01016  226  4.89804  232  -7.1  87    -8.9  0     0     999.5    NA       0.0000   9999     1640  0     0    
2019/06/30  05:47:01  BASE  3.06936  224  4.89804  232  -7.2  87    -8.9  0     0     999.6    NA       0.0000   9999     1670  0     0    
2019/06/30  05:48:01  BASE  2.98116  235  4.89804  232  -7.2  87    -9.0  0     0     999.6    NA       0.0000   9999     1740  0     0    
2019/06/30  05:49:01  BASE  3.39864  248  4.89804  232  -7.2  87    -9.0  0     0     999.5    NA       0.0000   9999     1840  0     0    
2019/06/30  05:50:01  BASE  3.51624  245  4.89804  232  -7.2  87    -9.0  0     0     999.5    NA       0.0000   9999     1900  0     0    
2019/06/30  05:51:01  BASE  3.36924  239  4.89804  232  -7.2  86    -9.1  0     0     999.5    NA       0.0000   9999     1740  0     0    
2019/06/30  05:52:01  BASE  3.13992  235  4.89804  232  -7.2  86    -9.1  0     0     999.5    NA       0.0000   9999     1710  0     0    
2019/06/30  05:53:01  BASE  3.09876  233  4.89804  232  -7.1  86    -9.1  0     0     999.5    NA       0.0000   9999     1640  0     0    
2019/06/30  05:54:01  BASE  2.80476  233  4.89804  232  -7.1  86    -9.1  0     0     999.5    NA       0.0000   9999     1710  0     0    
2019/06/30  05:55:01  BASE  2.65776  234  4.263    236  -7.1  86    -9.1  0     0     999.5    NA       0.0000   9999     1710  0     0    
2019/06/30  05:56:01  BASE  2.51664  227  4.263    236  -7.1  86    -9.0  0     0     999.5    NA       0.0000   9999     1710  0     0    
2019/06/30  05:57:01  BASE  3.31632  219  6.74436  219  -7.2  87    -9.0  0     0     999.4    NA       0.0000   9999     1610  0     0    
2019/06/30  05:58:01  BASE  4.94508  218  6.74436  219  -7.1  87    -8.9  0     0     999.4    NA       0.0000   9999     1640  0     0    
2019/06/30  05:59:01  BASE  5.16852  212  6.74436  219  -7.1  87    -8.9  0     0     999.4    NA       0.0000   9999     1640  0     0    
2019/06/30  06:00:01  BASE  5.02152  204  6.74436  219  -7.1  87    -8.9  0     0     999.4    NA       0.0000   9999     1740  0     0    
2019/06/30  06:01:01  BASE  4.83924  196  6.74436  219  -7.1  87    -8.9  0     0     999.4    NA       0.0000   9999     1710  0     0    
2019/06/30  06:02:01  BASE  4.21596  188  6.74436  219  -7.1  87    -8.9  0     0     999.4    NA       0.0000   9999     1770  0     0    
2019/06/30  06:03:01  BASE  4.1748   189  6.74436  219  -7.2  87    -9.0  0     0     999.4    NA       0.0000   9999     1940  0     0    
2019/06/30  06:04:01  BASE  3.92196  194  6.74436  219  -7.2  87    -9.0  0     0     999.4    NA       0.0000   9999     1800  0     0    
2019/06/30  06:05:01  BASE  3.22812  198  6.74436  219  -7.3  87    -9.1  0     0     999.4    NA       0.0000   9999     1770  0     0    
2019/06/30  06:06:01  BASE  3.28692  204  6.74436  219  -7.3  87    -9.1  0     0     999.3    NA       0.0000   9999     1670  0     0    
2019/06/30  06:07:01  BASE  4.0572   205  6.53268  215  -7.3  87    -9.1  0     0     999.3    NA       0.0000   9999     1640  0     0    
2019/06/30  06:08:01  BASE  3.61032  198  5.86824  204  -7.3  87    -9.1  0     0     999.4    NA       0.0000   9999     1610  0     0    
2019/06/30  06:09:01  BASE  2.65776  197  5.86824  204  -7.3  87    -9.1  0     0     999.3    NA       0.0000   9999     1710  0     0    
2019/06/30  06:10:01  BASE  3.40452  200  5.62716  202  -7.2  87    -9.0  0     0     999.3    NA       0.0000   9999     1800  0     0    
2019/06/30  06:11:01  BASE  4.22772  200  5.62716  202  -7.2  87    -9.0  0     0     999.2    NA       0.0000   9999     1940  0     0    
2019/06/30  06:12:01  BASE  3.675    194  5.62716  202  -7.3  87    -9.1  0     0     999.2    NA       0.0000   9999     1710  0     0    
2019/06/30  06:13:01  BASE  2.98704  191  5.62716  202  -7.3  87    -9.1  0     0     999.2    NA       0.0000   9999     1540  0     0    
2019/06/30  06:14:01  BASE  2.76948  204  5.62716  202  -7.3  87    -9.1  0     0     999.2    NA       0.0000   9999     1640  0     0    
2019/06/30  06:15:01  BASE  3.00468  219  5.62716  202  -7.3  87    -9.1  0     0     999.2    NA       0.0000   9999     1640  0     0    
2019/06/30  06:16:01  BASE  3.25164  229  5.62716  202  -7.2  87    -9.0  0     0     999.2    NA       0.0000   9999     1710  0     0    
2019/06/30  06:17:01  BASE  3.01056  239  5.62716  202  -7.2  87    -9.0  0     0     999.3    NA       0.0000   9999     1670  0     0    
2019/06/30  06:18:01  BASE  2.2638   232  5.62716  202  -7.2  87    -9.0  0     0     999.4    NA       0.0000   9999     1670  0     0    
2019/06/30  06:19:01  BASE  1.72284  225  5.62716  202  -7.2  87    -9.0  0     0     999.4    NA       0.0000   9999     1710  0     0    
2019/06/30  06:20:01  BASE  1.58172  224  4.93332  198  -7.2  87    -9.0  0     0     999.4    NA       0.0000   9999     1670  0     0    
2019/06/30  06:21:01  BASE  1.4994   226  3.75144  193  -7.2  87    -9.0  0     0     999.4    NA       0.0000   9999     1670  0     0    
2019/06/30  06:22:01  BASE  1.52292  238  3.62796  221  -7.2  87    -9.1  0     0     999.4    NA       0.0000   9999     1710  0     0    
2019/06/30  06:23:01  BASE  1.79928  249  3.62796  221  -7.2  87    -9.1  0     0     999.5    NA       0.0000   9999     1740  0     0    
2019/06/30  06:24:01  BASE  1.9992   257  3.62796  221  -7.2  87    -9.1  0     0     999.5    NA       0.0000   9999     1740  0     0    
2019/06/30  06:25:01  BASE  1.92276  255  3.53976  237  -7.2  87    -9.1  0     0     999.5    NA       0.0000   9999     1710  0     0    
2019/06/30  06:26:01  BASE  1.89336  239  3.2046   237  -7.2  87    -9.1  0     0     999.5    NA       0.0000   9999     1740  0     0    
2019/06/30  06:27:01  BASE  2.0286   226  2.54016  218  -7.2  87    -9.0  0     0     999.5    NA       0.0000   9999     1710  0     0    
2019/06/30  06:28:01  BASE  2.68716  219  4.08072  220  -7.2  87    -9.0  0     0     999.4    NA       0.0000   9999     1670  0     0    
2019/06/30  06:29:01  BASE  3.3222   215  4.29828  225  -7.2  87    -8.9  0     0     999.4    NA       0.0000   9999     1710  0     0    
2019/06/30  06:30:01  BASE  3.06348  215  4.29828  225  -7.1  87    -8.9  0     0     999.4    NA       0.0000   9999     1640  0     0    
2019/06/30  06:31:01  BASE  2.5284   207  4.29828  225  -7.1  87    -8.9  0     0     999.4    NA       0.0000   9999     1670  0     0    
2019/06/30  06:32:01  BASE  2.91648  202  4.29828  225  -7.1  87    -8.9  0     0     999.4    NA       0.0000   9999     1640  0     0    
2019/06/30  06:33:01  BASE  3.16344  200  4.29828  225  -7.2  87    -9.0  0     0     999.3    NA       0.0000   9999     1570  0     0    
2019/06/30  06:34:01  BASE  3.31044  192  4.59816  187  -7.2  87    -9.0  0     0     999.3    NA       0.0000   9999     1640  0     0    
2019/06/30  06:35:01  BASE  3.78672  188  4.59816  187  -7.2  87    -9.0  0     0     999.3    NA       0.0000   9999     1710  0     0    
2019/06/30  06:36:01  BASE  3.66912  186  4.59816  187  -7.2  87    -9.0  0     0     999.3    NA       0.0000   9999     1670  0     0    
2019/06/30  06:37:01  BASE  3.53388  179  4.59816  187  -7.2  87    -9.0  0     0     999.3    NA       0.0000   9999     1670  0     0    
2019/06/30  06:38:01  BASE  3.65148  182  4.59816  187  -7.2  88    -8.9  0     0     999.4    NA       0.0000   9999     1610  0     0    
2019/06/30  06:39:01  BASE  4.0278   188  4.78044  189  -7.2  88    -8.9  0     0     999.4    NA       0.0000   9999     1670  0     0    
2019/06/30  06:40:01  BASE  4.36296  192  5.02152  193  -7.3  88    -8.9  0     0     999.4    NA       0.0000   9999     1570  0     0    
2019/06/30  06:41:01  BASE  3.93372  193  5.02152  193  -7.3  88    -8.9  0     0     999.4    NA       0.0000   9999     1540  0     0    
2019/06/30  06:42:01  BASE  3.63384  189  5.02152  193  -7.3  88    -8.9  0     0     999.4    NA       0.0000   9999     1540  0     0    
2019/06/30  06:43:01  BASE  3.7044   183  5.02152  193  -7.2  88    -8.9  0     0     999.4    NA       0.0000   9999     1610  0     0    
2019/06/30  06:44:01  BASE  3.32808  181  5.02152  193  -7.3  88    -8.9  0     0     999.4    NA       0.0000   9999     1610  0     0    
2019/06/30  06:45:01  BASE  2.69892  189  5.02152  193  -7.3  88    -8.9  0     0     999.4    NA       0.0000   9999     1610  0     0    
2019/06/30  06:46:01  BASE  1.96392  195  5.02152  193  -7.3  88    -8.8  0     0     999.4    NA       0.0000   9999     1710  0     0    
2019/06/30  06:47:01  BASE  1.46412  196  5.02152  193  -7.3  89    -8.8  0     0     999.4    NA       0.0000   9999     1440  0     0    
2019/06/30  06:48:01  BASE  1.06428  201  5.02152  193  -7.3  89    -8.8  0     0     999.4    NA       0.0000   9999     1640  0     0    
2019/06/30  06:49:01  BASE  0.50568  189  5.02152  193  -7.3  89    -8.8  0     0     999.4    NA       0.0000   9999     1670  0     0    
2019/06/30  06:50:01  BASE  0.27048  191  4.29828  186  -7.2  89    -8.7  0     0     999.4    NA       0.0000   9999     1640  0     0    
2019/06/30  06:51:01  BASE  1.12896  216  4.29828  186  -7.2  89    -8.7  0     0     999.4    NA       0.0000   9999     1610  0     0    
2019/06/30  06:52:01  BASE  2.205    234  3.93372  186  -7.2  89    -8.7  0     0     999.4    NA       0.0000   9999     1480  0     0    
2019/06/30  06:53:01  BASE  2.5578   242  3.32808  178  -7.2  89    -8.7  0     0     999.4    NA       0.0000   9999     1570  0     0    
2019/06/30  06:54:01  BASE  2.78124  252  3.26928  255  -7.2  89    -8.7  0     0     999.4    NA       0.0000   9999     1540  0     0    
2019/06/30  06:55:01  BASE  3.06348  254  3.59856  250  -7.2  89    -8.7  0     0     999.4    NA       0.0000   9999     1540  0     0    
2019/06/30  06:56:01  BASE  2.94     246  3.59856  250  -7.2  89    -8.7  0     0     999.4    NA       0.0000   9999     1570  0     0    
2019/06/30  06:57:01  BASE  3.2046   225  4.86864  217  -7.2  89    -8.7  0     0     999.4    NA       0.0000   9999     1610  0     0    
2019/06/30  06:58:01  BASE  3.84552  218  4.96272  229  -7.1  89    -8.6  0     0     999.3    NA       0.0000   9999     1640  0     0    
2019/06/30  06:59:01  BASE  3.8808   222  5.3214   188  -7.1  89    -8.6  0     0     999.3    NA       0.0000   9999     1610  0     0    
2019/06/30  07:00:01  BASE  3.4692   202  5.3214   188  -7.1  89    -8.6  0     0     999.4    NA       0.0000   9999     1610  0     0    
2019/06/30  07:01:01  BASE  2.646    181  5.3214   188  -7.0  89    -8.5  0     0     999.4    NA       0.0000   9999     1540  0     0    
2019/06/30  07:02:01  BASE  2.14032  176  5.3214   188  -7.0  89    -8.5  0     0     999.4    NA       0.0000   9999     1510  0     0    
2019/06/30  07:03:01  BASE  2.0874   180  5.3214   188  -7.1  89    -8.6  0     0     999.4    NA       0.0000   9999     1570  0     0    
2019/06/30  07:04:01  BASE  2.25204  191  5.3214   188  -7.1  89    -8.6  0     0     999.5    NA       0.0000   9999     1670  0     0    
2019/06/30  07:05:01  BASE  2.52252  211  5.3214   188  -7.1  89    -8.6  0     0     999.4    NA       0.0000   9999     1570  0     0    
2019/06/30  07:06:01  BASE  2.68716  213  5.3214   188  -7.1  89    -8.6  0     0     999.4    NA       0.0000   9999     1610  0     0    
2019/06/30  07:07:01  BASE  3.78672  215  6.2622   230  -7.1  90    -8.5  0     0     999.3    NA       0.0000   9999     1740  0     0    
2019/06/30  07:08:01  BASE  4.96272  225  6.2622   230  -7.1  90    -8.5  0     0     999.2    NA       0.0000   9999     1740  0     0    
2019/06/30  07:09:01  BASE  5.12148  227  6.3798   224  -7.1  90    -8.5  0     0     999.2    NA       0.0000   9999     1570  0     0    
2019/06/30  07:10:01  BASE  4.63932  227  6.3798   224  -7.1  89    -8.6  0     0     999.3    NA       0.0000   9999     1610  0     0    
2019/06/30  07:11:01  BASE  3.69852  229  6.3798   224  -7.2  89    -8.6  0     0     999.3    NA       0.0000   9999     1540  0     0    
2019/06/30  07:12:01  BASE  4.263    224  6.3798   224  -7.2  89    -8.7  0     0     999.2    NA       0.0000   9999     1710  0     0    
2019/06/30  07:13:01  BASE  4.79808  215  6.3798   224  -7.2  89    -8.7  0     0     999.3    NA       0.0000   9999     1770  0     0    
2019/06/30  07:14:01  BASE  4.15128  212  6.3798   224  -7.2  89    -8.8  0     0     999.4    NA       0.0000   9999     2130  0     0    
2019/06/30  07:15:01  BASE  3.8514   210  6.3798   224  -7.2  88    -8.8  0     0     999.4    NA       0.0000   9999     1710  0     0    
2019/06/30  07:16:01  BASE  3.69852  211  6.3798   224  -7.2  88    -8.9  0     0     999.4    NA       0.0000   9999     1670  0     0    
2019/06/30  07:17:01  BASE  3.71028  209  6.3798   224  -7.3  88    -8.9  0     0     999.4    NA       0.0000   9999     1640  0     0    
2019/06/30  07:18:01  BASE  3.54564  200  6.3798   224  -7.3  88    -8.9  0     0     999.4    NA       0.0000   9999     1670  0     0    
2019/06/30  07:19:01  BASE  3.1164   198  5.68596  217  -7.2  88    -8.9  0     0     999.4    NA       0.0000   9999     1670  0     0    
2019/06/30  07:20:01  BASE  2.49312  198  5.68596  217  -7.2  87    -9.0  0     0     999.3    NA       0.0000   9999     1640  0     0    
2019/06/30  07:21:01  BASE  1.89336  202  5.68596  217  -7.2  87    -9.0  0     0     999.3    NA       0.0000   9999     1740  0     0    
2019/06/30  07:22:01  BASE  1.65228  203  5.02152  214  -7.2  87    -9.0  0     0     999.2    NA       0.0000   9999     1740  0     0    
2019/06/30  07:23:01  BASE  1.59936  204  5.02152  214  -7.2  87    -9.0  0     0     999.2    NA       0.0000   9999     1740  0     0    
2019/06/30  07:24:01  BASE  1.41708  209  4.32768  218  -7.2  87    -9.0  0     0     999.2    NA       0.0000   9999     1710  0     0    
2019/06/30  07:25:01  BASE  1.37592  210  4.32768  218  -7.2  87    -9.0  0     0     999.2    NA       0.0000   9999     1740  0     0    
2019/06/30  07:26:01  BASE  1.47588  209  4.32768  218  -7.2  86    -9.1  0     0     999.2    NA       0.0000   9999     1740  0     0    
2019/06/30  07:27:01  BASE  1.3818   210  3.81024  202  -7.1  86    -9.1  0     0     999.2    NA       0.0000   9999     1710  0     0    
2019/06/30  07:28:01  BASE  2.32848  197  4.02192  185  -7.1  86    -9.1  0     0     999.2    NA       0.0000   9999     1710  0     0    
2019/06/30  07:29:00  BASE  2.9694   185  4.02192  185  -7.1  86    -9.1  0     0     999.2    NA       0.0000   9999     1740  0     0    
2019/06/30  07:30:01  BASE  2.40492  183  4.02192  185  -7.1  86    -9.0  0     0     999.1    NA       0.0000   9999     1710  0     0    
2019/06/30  07:31:00  BASE  2.1756   173  4.02192  185  -7.1  86    -9.0  0     0     999.1    NA       0.0000   9999     1710  0     0    
2019/06/30  07:32:01  BASE  2.43432  176  4.02192  185  -7.1  86    -9.0  0     0     999.1    NA       0.0000   9999     1710  0     0    
2019/06/30  07:33:01  BASE  3.18696  184  4.05132  182  -7.1  87    -9.0  0     0     999.1    NA       0.0000   9999     1640  0     0    
2019/06/30  07:34:00  BASE  3.72204  186  4.05132  182  -7.2  87    -9.0  0     0     999.0    NA       0.0000   9999     1670  0     0    
2019/06/30  07:35:01  BASE  4.116    190  5.41548  201  -7.2  87    -8.9  0     0     999.0    NA       0.0000   9999     1710  0     0    
2019/06/30  07:36:00  BASE  4.38648  193  5.41548  201  -7.2  87    -8.9  0     0     999.0    NA       0.0000   9999     1710  0     0    
2019/06/30  07:37:01  BASE  4.33356  190  5.41548  201  -7.2  88    -8.9  0     0     999.0    NA       0.0000   9999     1640  0     0    
2019/06/30  07:38:00  BASE  4.4982   191  5.41548  201  -7.2  88    -8.9  0     0     999.0    NA       0.0000   9999     1640  0     0    
2019/06/30  07:39:00  BASE  4.27476  195  5.41548  201  -7.2  88    -8.9  0     0     999.1    NA       0.0000   9999     1610  0     0    
2019/06/30  07:40:01  BASE  3.11052  194  5.41548  201  -7.3  88    -8.9  0     0     999.1    NA       0.0000   9999     1540  0     0    
2019/06/30  07:41:00  BASE  2.09328  196  5.41548  201  -7.3  89    -8.9  0     0     999.1    NA       0.0000   9999     1510  2130  0    
2019/06/30  07:42:00  BASE  1.8522   213  5.41548  201  -7.3  89    -8.8  0     0     999.1    NA       0.0000   9999     1670  0     0    
2019/06/30  07:43:00  BASE  1.5582   241  5.41548  201  -7.3  89    -8.8  0     0     999.1    NA       0.0000   9999     1510  0     0    
2019/06/30  07:44:01  BASE  1.50528  259  5.41548  201  -7.3  89    -8.8  0     0     999.2    NA       0.0000   9999     1410  0     0    
2019/06/30  07:45:00  BASE  2.18736  261  4.96272  190  -7.3  89    -8.8  0     0     999.2    NA       0.0000   9999     1670  0     0    
2019/06/30  07:46:01  BASE  2.1756   269  4.96272  190  -7.3  89    -8.9  0     0     999.2    NA       0.0000   9999     1640  0     0    
2019/06/30  07:47:00  BASE  1.62288  292  4.96272  190  -7.3  88    -8.9  0     0     999.2    NA       0.0000   9999     1480  0     0    
2019/06/30  07:48:01  BASE  1.18188  315  4.50996  185  -7.3  88    -8.9  0     0     999.2    NA       0.0000   9999     1510  0     0    
2019/06/30  07:49:01  BASE  0.71148  344  3.02232  260  -7.3  88    -9.0  0     0     999.2    NA       0.0000   9999     1610  0     0    
2019/06/30  07:50:01  BASE  0.6468   357  3.02232  260  -7.3  88    -9.0  0     0     999.2    NA       0.0000   9999     1670  0     0    
2019/06/30  07:51:00  BASE  1.24068  313  3.087    237  -7.3  88    -9.0  0     0     999.2    NA       0.0000   9999     1670  0     0    
2019/06/30  07:52:00  BASE  2.10504  250  3.087    237  -7.3  88    -9.0  0     0     999.2    NA       0.0000   9999     1640  0     0    
2019/06/30  07:53:00  BASE  2.7636   236  3.81024  220  -7.2  87    -9.0  0     0     999.2    NA       0.0000   9999     1640  0     0    
2019/06/30  07:54:00  BASE  3.36924  227  4.1454   226  -7.2  87    -9.0  0     0     999.1    NA       0.0000   9999     1640  0     0    
2019/06/30  07:55:00  BASE  3.29868  221  4.1454   226  -7.2  87    -9.0  0     0     999.1    NA       0.0000   9999     1640  0     0    
2019/06/30  07:56:00  BASE  2.9988   225  4.1454   226  -7.2  87    -9.0  0     0     999.1    NA       0.0000   9999     1610  0     0    
2019/06/30  07:57:00  BASE  3.32808  234  4.1454   226  -7.1  87    -8.9  0     0     999.1    NA       0.0000   9999     1610  0     0    
2019/06/30  07:58:00  BASE  3.84552  239  4.50996  235  -7.2  87    -8.9  0     0     999.1    NA       0.0000   9999     1510  0     0    
2019/06/30  07:59:00  BASE  3.69264  239  4.50996  235  -7.2  88    -8.9  0     0     999.1    NA       0.0000   9999     1610  0     0    
2019/06/30  08:00:00  BASE  2.98704  230  4.50996  235  -7.2  88    -8.9  0     0     999.1    NA       0.0000   9999     1440  0     0    
2019/06/30  08:01:00  BASE  2.63424  219  4.50996  235  -7.2  88    -8.8  0     0     999.1    NA       0.0000   9999     1610  0     0    
2019/06/30  08:02:00  BASE  2.31672  217  4.50996  235  -7.2  88    -8.8  0     0     999.1    NA       0.0000   9999     1540  0     0    
2019/06/30  08:03:00  BASE  1.97568  219  4.50996  235  -7.2  88    -8.9  0     0     999.1    NA       0.0000   9999     1480  0     0    
2019/06/30  08:04:01  BASE  2.41668  209  4.50996  235  -7.2  88    -8.9  0     0     999.1    NA       0.0000   9999     1540  0     0    
2019/06/30  08:05:01  BASE  2.6166   198  4.50996  235  -7.2  88    -8.9  0     0     999.1    NA       0.0000   9999     1480  0     0    
2019/06/30  08:06:01  BASE  2.71656  196  4.50996  235  -7.2  88    -8.8  0     0     999.1    NA       0.0000   9999     1570  0     0    
2019/06/30  08:07:01  BASE  3.71616  193  4.78044  201  -7.2  88    -8.8  0     0     999.1    NA       0.0000   9999     1640  0     0    
2019/06/30  08:08:01  BASE  3.89844  186  4.78044  201  -7.2  88    -8.8  0     0     999.0    NA       0.0000   9999     1640  0     0    
2019/06/30  08:09:01  BASE  3.45744  184  4.78044  201  -7.2  88    -8.8  0     0     999.0    NA       0.0000   9999     1510  0     0    
2019/06/30  08:10:01  BASE  3.32808  187  4.78044  201  -7.2  88    -8.8  0     0     999.1    NA       0.0000   9999     1510  0     0    
2019/06/30  08:11:01  BASE  3.39864  191  4.78044  201  -7.2  88    -8.8  0     0     999.0    NA       0.0000   9999     1610  0     0    
2019/06/30  08:12:01  BASE  3.53388  188  4.78044  201  -7.2  88    -8.8  0     0     999.0    NA       0.0000   9999     1570  0     0    
2019/06/30  08:13:01  BASE  3.23988  184  4.78044  201  -7.2  88    -8.8  0     0     999.0    NA       0.0000   9999     1570  0     0    
2019/06/30  08:14:01  BASE  3.03996  191  4.78044  201  -7.2  88    -8.8  0     0     999.0    NA       0.0000   9999     1480  0     0    
2019/06/30  08:15:01  BASE  3.00468  203  4.78044  201  -7.2  88    -8.8  0     0     999.0    NA       0.0000   9999     1510  0     0    
2019/06/30  08:16:01  BASE  2.9106   198  4.78044  201  -7.2  89    -8.8  0     0     999.0    NA       0.0000   9999     1540  0     0    
2019/06/30  08:17:01  BASE  3.43392  190  4.86864  191  -7.2  89    -8.7  0     0     999.0    NA       0.0000   9999     1570  0     0    
2019/06/30  08:18:01  BASE  3.92784  190  4.86864  191  -7.2  89    -8.7  0     0     999.0    NA       0.0000   9999     1540  0     0    
2019/06/30  08:19:01  BASE  3.58092  193  4.86864  191  -7.2  89    -8.7  0     0     999.0    NA       0.0000   9999     1510  0     0    
2019/06/30  08:20:01  BASE  3.13992  198  4.86864  191  -7.2  89    -8.7  0     0     999.0    NA       0.0000   9999     1480  0     0    
2019/06/30  08:21:01  BASE  3.16344  204  4.86864  191  -7.2  89    -8.7  0     0     999.0    NA       0.0000   9999     1440  0     0    
2019/06/30  08:22:01  BASE  3.22812  216  4.86864  191  -7.2  89    -8.7  0     0     999.1    NA       0.0000   9999     1540  0     0    
2019/06/30  08:23:01  BASE  3.28692  224  4.86864  191  -7.2  89    -8.7  0     0     999.0    NA       0.0000   9999     1610  0     0    
2019/06/30  08:24:01  BASE  3.12228  230  4.86864  191  -7.1  89    -8.6  0     0     999.1    NA       0.0000   9999     1610  0     0    
2019/06/30  08:25:01  BASE  2.86356  228  4.86864  191  -7.1  89    -8.6  0     0     999.0    NA       0.0000   9999     1640  0     0    
2019/06/30  08:26:01  BASE  3.06348  219  4.86864  191  -7.1  89    -8.6  0     0     999.0    NA       0.0000   9999     1440  0     0    
2019/06/30  08:27:01  BASE  3.15168  211  4.80984  187  -7.1  89    -8.6  0     0     999.1    NA       0.0000   9999     1410  0     0    
2019/06/30  08:28:01  BASE  2.57544  210  4.05132  196  -7.1  89    -8.6  0     0     999.1    NA       0.0000   9999     1480  0     0    
2019/06/30  08:29:01  BASE  2.31672  206  3.96312  235  -7.2  89    -8.7  0     0     999.1    NA       0.0000   9999     1510  0     0    
2019/06/30  08:30:01  BASE  2.89884  199  3.96312  235  -7.2  89    -8.7  0     0     999.1    NA       0.0000   9999     1570  0     0    
2019/06/30  08:31:01  BASE  2.68128  196  3.96312  235  -7.2  89    -8.7  0     0     999.1    NA       0.0000   9999     1510  0     0    
2019/06/30  08:32:01  BASE  2.058    186  3.96312  235  -7.2  89    -8.7  0     0     999.1    NA       0.0000   9999     1540  0     0    
2019/06/30  08:33:01  BASE  2.45196  169  3.81024  195  -7.2  89    -8.7  0     0     999.1    NA       0.0000   9999     1440  0     0    
2019/06/30  08:34:01  BASE  2.646    168  3.81024  195  -7.2  89    -8.7  0     0     999.1    NA       0.0000   9999     1480  0     0    
2019/06/30  08:35:01  BASE  2.08152  170  3.81024  195  -7.2  89    -8.7  0     0     999.1    NA       0.0000   9999     1540  0     0    
2019/06/30  08:36:01  BASE  1.89924  164  3.81024  195  -7.3  89    -8.8  0     0     999.1    NA       0.0000   9999     1510  0     0    
2019/06/30  08:37:01  BASE  2.22852  161  3.81024  195  -7.3  89    -8.8  0     0     999.1    NA       0.0000   9999     1510  0     0    
2019/06/30  08:38:01  BASE  2.24028  160  3.81024  195  -7.3  89    -8.8  0     0     999.1    NA       0.0000   9999     1440  0     0    
2019/06/30  08:39:01  BASE  2.14032  169  3.72204  195  -7.3  89    -8.7  0     0     999.1    NA       0.0000   9999     1480  0     0    
2019/06/30  08:40:01  BASE  2.11092  201  3.51036  163  -7.3  89    -8.7  0     0     999.1    NA       0.0000   9999     1540  0     0    
2019/06/30  08:41:01  BASE  1.98156  221  3.51036  163  -7.2  90    -8.6  0     0     999.1    NA       0.0000   9999     1410  0     0    
2019/06/30  08:42:01  BASE  2.15796  230  3.51036  163  -7.2  90    -8.6  0     0     999.1    NA       0.0000   9999     1440  0     0    
2019/06/30  08:43:01  BASE  2.54016  249  3.51036  259  -7.2  90    -8.5  0     0     999.0    NA       0.0000   9999     1410  0     0    
2019/06/30  08:44:01  BASE  2.50488  246  3.51036  259  -7.1  90    -8.5  0     0     999.1    NA       0.0000   9999     1510  0     0    
2019/06/30  08:45:01  BASE  2.15208  219  3.51036  259  -7.1  90    -8.5  0     0     999.1    NA       0.0000   9999     1510  0     0    
2019/06/30  08:46:01  BASE  1.84632  195  3.51036  259  -7.1  90    -8.5  0     0     999.1    NA       0.0000   9999     1540  0     0    
2019/06/30  08:47:01  BASE  1.6758   182  3.51036  259  -7.1  90    -8.5  0     0     999.1    NA       0.0000   9999     1510  0     0    
2019/06/30  08:48:01  BASE  1.7346   184  3.51036  259  -7.1  90    -8.5  0     0     999.1    NA       0.0000   9999     1540  0     0    
2019/06/30  08:49:01  BASE  1.57584  184  3.51036  259  -7.1  90    -8.5  0     0     999.1    NA       0.0000   9999     1540  0     0    
2019/06/30  08:50:01  BASE  1.45824  176  3.51036  259  -7.1  90    -8.5  0     0     999.1    NA       0.0000   9999     1510  0     0    
2019/06/30  08:51:01  BASE  1.323    188  3.51036  259  -7.2  90    -8.5  0     0     999.1    NA       0.0000   9999     1540  0     0    
2019/06/30  08:52:01  BASE  1.34652  230  3.51036  259  -7.2  90    -8.6  0     0     999.1    NA       0.0000   9999     1540  0     0    
2019/06/30  08:53:01  BASE  2.28144  262  3.96312  245  -7.2  90    -8.5  0     0     999.1    NA       0.0000   9999     1350  0     0    
2019/06/30  08:54:01  BASE  3.33984  258  4.53936  256  -7.2  90    -8.5  0     0     999.1    NA       0.0000   9999     1350  0     0    
2019/06/30  08:55:01  BASE  3.4692   243  4.53936  256  -7.1  91    -8.4  0     0     999.1    NA       0.0000   9999     1440  0     0    
2019/06/30  08:56:01  BASE  2.98704  206  4.53936  256  -7.1  91    -8.4  0     0     999.1    NA       0.0000   9999     1440  0     0    
2019/06/30  08:57:01  BASE  2.61072  188  4.53936  256  -7.1  91    -8.3  0     0     999.1    NA       0.0000   9999     1480  0     0    
2019/06/30  08:58:01  BASE  3.00468  206  4.68636  218  -7.1  91    -8.4  0     0     999.1    NA       0.0000   9999     1440  0     0    
2019/06/30  08:59:01  BASE  3.80436  217  4.68636  218  -7.2  91    -8.4  0     0     999.1    NA       0.0000   9999     1480  0     0    
2019/06/30  09:00:01  BASE  3.5574   208  4.68636  218  -7.2  91    -8.4  0     0     999.2    NA       0.0000   9999     1380  0     0    
2019/06/30  09:01:01  BASE  2.7048   196  4.68636  218  -7.2  91    -8.4  0     0     999.2    NA       0.0000   9999     1380  0     0    
2019/06/30  09:02:01  BASE  2.55192  199  4.68636  218  -7.2  91    -8.4  0     0     999.1    NA       0.0000   9999     1350  0     0    
2019/06/30  09:03:01  BASE  2.95764  227  4.68636  218  -7.2  91    -8.4  0     0     999.1    NA       0.0000   9999     1480  0     0    
2019/06/30  09:04:01  BASE  3.4398   246  4.68636  218  -7.2  91    -8.4  0     0     999.1    NA       0.0000   9999     1410  0     0    
2019/06/30  09:05:01  BASE  3.30456  230  4.68636  218  -7.2  91    -8.4  0     0     999.1    NA       0.0000   9999     1410  0     0    
2019/06/30  09:06:01  BASE  2.53428  221  4.68636  218  -7.3  91    -8.5  0     0     999.1    NA       0.0000   9999     1380  0     0    
2019/06/30  09:07:01  BASE  2.5578   237  4.68636  218  -7.3  91    -8.5  0     0     999.1    NA       0.0000   9999     1480  0     0    
2019/06/30  09:08:00  BASE  3.48096  241  4.41588  236  -7.3  91    -8.5  0     0     999.1    NA       0.0000   9999     1610  0     0    
2019/06/30  09:09:01  BASE  4.03956  245  5.2626   253  -7.3  91    -8.5  0     0     999.1    NA       0.0000   9999     1440  0     0    
2019/06/30  09:10:01  BASE  3.32808  256  5.2626   253  -7.3  90    -8.6  0     0     999.1    NA       0.0000   9999     1380  0     0    
2019/06/30  09:11:00  BASE  2.34612  270  5.2626   253  -7.3  90    -8.6  0     0     999.1    NA       0.0000   9999     1440  0     0    
2019/06/30  09:12:00  BASE  2.11092  275  5.2626   253  -7.3  90    -8.7  0     0     999.1    NA       0.0000   9999     1350  0     0    
2019/06/30  09:13:00  BASE  2.35788  260  5.2626   253  -7.3  90    -8.7  0     0     999.1    NA       0.0000   9999     1350  0     0    
2019/06/30  09:14:00  BASE  2.352    248  5.2626   253  -7.3  90    -8.7  0     0     999.1    NA       0.0000   9999     1310  0     0    
2019/06/30  09:15:01  BASE  1.9404   250  5.2626   253  -7.3  90    -8.7  0     0     999.1    NA       0.0000   9999     1480  0     0    
2019/06/30  09:16:00  BASE  1.42296  261  5.2626   253  -7.3  89    -8.8  0     0     999.1    NA       0.0000   9999     1540  0     0    
2019/06/30  09:17:00  BASE  0.8232   290  5.2626   253  -7.3  89    -8.8  0     0     999.1    NA       0.0000   9999     1540  0     0    
2019/06/30  09:18:01  BASE  1.34064  297  5.2626   253  -7.3  89    -8.8  0     0     999.1    NA       0.0000   9999     1540  0     0    
2019/06/30  09:19:00  BASE  2.22852  270  3.59856  251  -7.3  89    -8.8  0     0     999.1    NA       0.0000   9999     1570  0     0    
2019/06/30  09:20:01  BASE  2.09328  260  3.59856  251  -7.3  89    -8.8  0     0     999.1    NA       0.0000   9999     1570  0     0    
2019/06/30  09:21:00  BASE  2.22264  259  3.59856  251  -7.3  89    -8.8  0     0     999.1    NA       0.0000   9999     1570  0     0    
2019/06/30  09:22:00  BASE  2.47548  272  3.59856  251  -7.3  89    -8.8  0     0     999.1    NA       0.0000   9999     1640  0     0    
2019/06/30  09:23:01  BASE  2.51076  280  3.38688  250  -7.3  89    -8.8  0     0     999.1    NA       0.0000   9999     1640  0     0    
2019/06/30  09:24:01  BASE  3.38688  253  4.93332  230  -7.3  89    -8.8  0     0     999.1    NA       0.0000   9999     1610  0     0    
2019/06/30  09:25:01  BASE  4.0572   231  4.93332  230  -7.3  89    -8.8  0     0     999.1    NA       0.0000   9999     1570  0     0    
2019/06/30  09:26:00  BASE  3.77496  239  4.93332  230  -7.3  89    -8.8  0     0     999.1    NA       0.0000   9999     1510  0     0    
2019/06/30  09:27:00  BASE  3.44568  245  4.93332  230  -7.3  89    -8.8  0     0     999.1    NA       0.0000   9999     1540  0     0    
2019/06/30  09:28:00  BASE  3.01644  250  4.93332  230  -7.3  89    -8.8  0     0     999.1    NA       0.0000   9999     1610  0     0    
2019/06/30  09:29:00  BASE  2.65776  240  4.93332  230  -7.3  89    -8.8  0     0     999.1    NA       0.0000   9999     1510  0     0    
2019/06/30  09:30:00  BASE  3.33984  211  4.93332  230  -7.3  89    -8.8  0     0     999.1    NA       0.0000   9999     1480  0     0    
2019/06/30  09:31:00  BASE  3.73968  197  4.93332  230  -7.3  89    -8.8  0     0     999.1    NA       0.0000   9999     1380  0     0    
2019/06/30  09:32:00  BASE  2.95176  193  4.93332  230  -7.3  89    -8.8  0     0     999.1    NA       0.0000   9999     1350  0     0    
2019/06/30  09:33:00  BASE  2.28144  195  4.93332  230  -7.4  89    -8.9  0     0     999.1    NA       0.0000   9999     1310  0     0    
2019/06/30  09:34:00  BASE  2.0286   211  4.59816  198  -7.4  89    -8.9  0     0     999.1    NA       0.0000   9999     1380  0     0    
2019/06/30  09:35:00  BASE  1.58172  228  4.59816  198  -7.4  89    -8.9  0     0     999.1    NA       0.0000   9999     1250  0     0    
2019/06/30  09:36:00  BASE  0.71736  213  4.59816  198  -7.4  89    -8.9  0     0     999.1    NA       0.0000   9999     1280  0     0    
2019/06/30  09:37:00  BASE  0.11172  192  4.59816  198  -7.3  89    -8.8  0     0     999.1    NA       0.0000   9999     1380  0     0    
2019/06/30  09:38:00  BASE  0.22932  219  4.59816  198  -7.3  89    -8.8  0     0     999.1    NA       0.0000   9999     1440  0     0    
2019/06/30  09:39:00  BASE  0.7056   251  4.59816  198  -7.3  89    -8.8  0     0     999.1    NA       0.0000   9999     1480  0     0    
2019/06/30  09:40:00  BASE  1.09956  270  3.75144  196  -7.3  89    -8.8  0     0     999.1    NA       0.0000   9999     1480  0     0    
2019/06/30  09:41:00  BASE  1.21128  290  3.0576   195  -7.3  89    -8.8  0     0     999.1    NA       0.0000   9999     1380  0     0    
2019/06/30  09:42:00  BASE  1.31124  306  2.54016  191  -7.3  89    -8.7  0     0     999.0    NA       0.0000   9999     1380  0     0    
2019/06/30  09:43:00  BASE  1.30536  323  2.29908  215  -7.3  90    -8.7  0     0     999.0    NA       0.0000   9999     1310  0     0    
2019/06/30  09:44:00  BASE  1.0878   335  1.75224  308  -7.3  90    -8.7  0     0     999.0    NA       0.0000   9999     1350  0     0    
2019/06/30  09:45:01  BASE  1.01136  340  1.75224  308  -7.3  90    -8.7  0     0     999.0    NA       0.0000   9999     1440  0     0    
2019/06/30  09:46:00  BASE  0.63504  324  1.75224  308  -7.3  90    -8.7  0     0     999.0    NA       0.0000   9999     1440  0     0    
2019/06/30  09:47:00  BASE  0.12936  310  1.75224  308  -7.3  90    -8.7  0     0     999.0    NA       0.0000   9999     1440  0     0    
2019/06/30  09:48:00  BASE  0        295  1.75224  308  -7.3  90    -8.7  0     0     999.0    NA       0.0000   9999     1440  0     0    
2019/06/30  09:49:00  BASE  0        243  1.75224  308  -7.3  90    -8.6  0     0     999.0    NA       0.0000   9999     1440  0     0    
2019/06/30  09:50:01  BASE  0.34692  201  1.75224  308  -7.3  90    -8.6  0     0     999.0    NA       0.0000   9999     1510  0     0    
2019/06/30  09:51:00  BASE  1.12896  210  1.84632  230  -7.3  91    -8.6  0     0     999.0    NA       0.0000   9999     1510  0     0    
2019/06/30  09:52:00  BASE  1.28772  228  1.84632  230  -7.3  91    -8.5  0     0     999.1    NA       0.0000   9999     1480  0     0    
2019/06/30  09:53:00  BASE  0.95844  231  1.84632  230  -7.3  91    -8.5  0     0     999.1    NA       0.0000   9999     1480  0     0    
2019/06/30  09:54:00  BASE  1.05252  225  1.84632  230  -7.2  91    -8.5  0     0     999.1    NA       0.0000   9999     1480  0     0    
2019/06/30  09:55:01  BASE  1.1466   220  1.84632  230  -7.2  91    -8.4  0     0     999.1    NA       0.0000   9999     1480  0     0    
2019/06/30  09:56:00  BASE  1.74636  229  3.29868  249  -7.2  91    -8.4  0     0     999.1    NA       0.0000   9999     1440  0     0    
2019/06/30  09:57:00  BASE  2.65188  246  3.38688  247  -7.2  91    -8.4  0     0     999.1    NA       0.0000   9999     1480  0     0    
2019/06/30  09:58:00  BASE  2.71068  247  3.38688  247  -7.2  91    -8.5  0     0     999.1    NA       0.0000   9999     1410  0     0    
2019/06/30  09:59:00  BASE  2.8224   233  3.81024  223  -7.2  91    -8.5  0     0     999.1    NA       0.0000   9999     1480  0     0    
2019/06/30  10:00:00  BASE  2.9988   223  3.81024  223  -7.3  91    -8.5  0     0     999.1    NA       0.0000   9999     1440  0     0    
2019/06/30  10:01:00  BASE  3.04584  233  4.53936  245  -7.3  91    -8.5  0     0     999.0    NA       0.0000   9999     1480  0     0    
2019/06/30  10:02:00  BASE  3.4986   245  4.53936  245  -7.3  91    -8.5  0     0     999.0    NA       0.0000   9999     1480  0     0    
2019/06/30  10:03:00  BASE  3.95724  240  4.53936  228  -7.3  91    -8.5  0     0     999.0    NA       0.0000   9999     1510  0     0    
2019/06/30  10:04:00  BASE  4.05132  238  4.53936  242  -7.3  91    -8.5  0     0     999.0    NA       0.0000   9999     1480  0     0    
2019/06/30  10:05:00  BASE  4.23948  246  4.93332  244  -7.3  91    -8.5  0     0     999.0    NA       0.0000   9999     1480  0     0    
2019/06/30  10:06:00  BASE  4.33944  244  4.93332  244  -7.3  91    -8.6  0     0     999.0    NA       0.0000   9999     1410  0     0    
2019/06/30  10:07:00  BASE  3.9396   239  4.93332  244  -7.4  91    -8.6  0     0     999.0    NA       0.0000   9999     1280  0     0    
2019/06/30  10:08:00  BASE  3.39864  240  4.93332  244  -7.4  91    -8.6  0     0     999.1    NA       0.0000   9999     1280  0     0    
2019/06/30  10:09:00  BASE  2.60484  247  4.93332  244  -7.4  91    -8.6  0     0     999.1    NA       0.0000   9999     1280  0     0    
2019/06/30  10:10:00  BASE  2.06388  255  4.93332  244  -7.4  91    -8.6  0     0     999.1    NA       0.0000   9999     1310  0     0    
2019/06/30  10:11:00  BASE  1.62876  264  4.93332  244  -7.4  91    -8.6  0     0     999.1    NA       0.0000   9999     1310  0     0    
2019/06/30  10:12:00  BASE  1.1172   276  4.93332  244  -7.4  91    -8.6  0     0     999.1    NA       0.0000   9999     1380  0     0    
2019/06/30  10:13:00  BASE  1.08192  286  4.93332  244  -7.4  91    -8.6  0     0     999.1    NA       0.0000   9999     1440  0     0    
2019/06/30  10:14:00  BASE  1.09956  299  4.93332  244  -7.4  91    -8.6  0     0     999.1    NA       0.0000   9999     1440  0     0    
2019/06/30  10:15:00  BASE  1.02312  302  4.72164  237  -7.4  91    -8.6  0     0     999.1    NA       0.0000   9999     1440  0     0    
2019/06/30  10:16:00  BASE  1.05252  307  4.05132  240  -7.4  91    -8.6  0     0     999.1    NA       0.0000   9999     1280  0     0    
2019/06/30  10:17:00  BASE  0.93492  320  3.51036  237  -7.4  91    -8.6  0     0     999.1    NA       0.0000   9999     1280  0     0    
2019/06/30  10:18:00  BASE  0.39984  336  2.63424  253  -7.4  91    -8.6  0     0     999.1    NA       0.0000   9999     1310  0     0    
2019/06/30  10:19:00  BASE  0.17052  347  2.51076  257  -7.4  91    -8.6  0     0     999.1    NA       0.0000   9999     1310  0     0    
2019/06/30  10:20:00  BASE  0.61152  354  1.9992   289  -7.4  91    -8.6  0     0     999.0    NA       0.0000   9999     1280  0     0    
2019/06/30  10:21:00  BASE  0.9408   354  1.9992   289  -7.4  91    -8.6  0     0     999.0    NA       0.0000   9999     1310  0     0    
2019/06/30  10:22:00  BASE  1.09368  353  1.72284  281  -7.4  91    -8.6  0     0     999.0    NA       0.0000   9999     1350  0     0    
2019/06/30  10:23:00  BASE  1.39356  3    1.69344  2    -7.4  91    -8.7  0     0     999.0    NA       0.0000   9999     1350  0     0    
2019/06/30  10:24:00  BASE  1.56408  7    2.0286   337  -7.4  91    -8.7  0     0     999.0    NA       0.0000   9999     1350  0     0    
2019/06/30  10:25:00  BASE  1.35828  17   2.0286   337  -7.4  91    -8.7  0     0     999.0    NA       0.0000   9999     1280  0     0    
2019/06/30  10:26:00  BASE  1.33476  16   2.0286   337  -7.4  91    -8.7  0     0     999.0    NA       0.0000   9999     1380  0     0    
2019/06/30  10:27:00  BASE  1.94628  1    3.02232  341  -7.4  91    -8.6  0     0     999.0    NA       0.0000   9999     1380  0     0    
2019/06/30  10:28:00  BASE  2.499    345  3.02232  341  -7.4  91    -8.6  0     0     999.0    NA       0.0000   9999     1350  0     0    
2019/06/30  10:29:00  BASE  2.12268  339  3.02232  341  -7.4  91    -8.6  0     0     999.0    NA       0.0000   9999     1380  0     0    
2019/06/30  10:30:00  BASE  1.49352  324  3.02232  341  -7.3  91    -8.6  0     0     999.0    NA       0.0000   9999     1350  0     0    
2019/06/30  10:31:00  BASE  1.21716  313  3.02232  341  -7.3  91    -8.5  0     0     998.9    NA       0.0000   9999     1380  0     0    
2019/06/30  10:32:00  BASE  0.63504  310  3.02232  341  -7.3  91    -8.5  0     0     998.9    NA       0.0000   9999     1350  0     0    
2019/06/30  10:33:00  BASE  0.15288  290  3.02232  341  -7.3  91    -8.5  0     0     998.9    NA       0.0000   9999     1410  0     0    
2019/06/30  10:34:00  BASE  0.54684  279  3.02232  341  -7.3  91    -8.5  0     0     998.9    NA       0.0000   9999     1380  0     0    
2019/06/30  10:35:00  BASE  0.735    284  3.02232  341  -7.3  91    -8.5  0     0     998.9    NA       0.0000   9999     1380  0     0    
2019/06/30  10:36:00  BASE  1.16424  297  3.02232  341  -7.3  91    -8.5  0     0     998.9    NA       0.0000   9999     1410  0     0    
2019/06/30  10:37:00  BASE  2.058    300  2.96352  341  -7.3  91    -8.4  0     0     998.9    NA       0.0000   9999     1410  0     0    
2019/06/30  10:38:00  BASE  2.39904  284  2.93412  252  -7.3  92    -8.4  0     0     998.9    NA       0.0000   9999     1380  0     0    
2019/06/30  10:39:00  BASE  2.8518   260  3.48096  238  -7.2  92    -8.3  0     0     999.0    NA       0.0000   9999     1380  0     0    
2019/06/30  10:40:00  BASE  3.21636  245  3.48096  238  -7.2  92    -8.3  0     0     999.0    NA       0.0000   9999     1380  0     0    
2019/06/30  10:41:00  BASE  3.44568  243  4.50996  256  -7.2  92    -8.3  0     0     999.0    NA       0.0000   9999     1350  0     0    
2019/06/30  10:42:00  BASE  3.9102   254  4.93332  265  -7.2  92    -8.3  0     0     999.0    NA       0.0000   9999     1380  0     0    
2019/06/30  10:43:00  BASE  3.80436  269  4.93332  265  -7.2  92    -8.3  0     0     999.0    NA       0.0000   9999     1410  0     0    
2019/06/30  10:44:00  BASE  3.22224  282  4.93332  265  -7.3  92    -8.4  0     0     999.0    NA       0.0000   9999     1410  0     0    
2019/06/30  10:45:00  BASE  2.71656  289  4.93332  265  -7.3  92    -8.4  0     0     999.0    NA       0.0000   9999     1410  0     0    
2019/06/30  10:46:00  BASE  2.1756   287  4.93332  265  -7.3  92    -8.4  0     0     999.0    NA       0.0000   9999     1440  0     0    
2019/06/30  10:47:00  BASE  2.28732  277  4.93332  265  -7.4  92    -8.4  0     0     998.9    NA       0.0000   9999     1350  0     0    
2019/06/30  10:48:00  BASE  2.31084  257  4.93332  265  -7.4  92    -8.4  0     0     998.9    NA       0.0000   9999     1310  0     0    
2019/06/30  10:49:00  BASE  1.81692  247  4.93332  265  -7.3  92    -8.4  0     0     998.9    NA       0.0000   9999     1350  0     0    
2019/06/30  10:50:00  BASE  2.09916  250  4.93332  265  -7.3  92    -8.4  0     0     998.9    NA       0.0000   9999     1380  0     0    
2019/06/30  10:51:00  BASE  2.6754   257  4.93332  265  -7.3  92    -8.4  0     0     998.9    NA       0.0000   9999     1280  0     0    
2019/06/30  10:52:00  BASE  2.65776  266  4.08072  276  -7.3  92    -8.4  0     0     998.9    NA       0.0000   9999     1280  0     0    
2019/06/30  10:53:00  BASE  2.4696   259  3.29868  282  -7.4  92    -8.4  0     0     998.9    NA       0.0000   9999     1280  0     0    
2019/06/30  10:54:00  BASE  2.42256  252  3.26928  277  -7.4  92    -8.5  0     0     998.9    NA       0.0000   9999     1350  0     0    
2019/06/30  10:55:00  BASE  1.97568  260  3.1458   240  -7.4  92    -8.5  0     0     998.9    NA       0.0000   9999     1310  0     0    
2019/06/30  10:56:00  BASE  1.59348  270  3.1458   240  -7.4  92    -8.5  0     0     998.9    NA       0.0000   9999     1350  0     0    
2019/06/30  10:57:00  BASE  1.74048  280  3.1458   240  -7.4  92    -8.5  0     0     998.9    NA       0.0000   9999     1310  0     0    
2019/06/30  10:58:00  BASE  1.51704  288  3.1458   240  -7.4  92    -8.5  0     0     998.9    NA       0.0000   9999     1380  0     0    
2019/06/30  10:59:00  BASE  1.01724  291  3.1458   240  -7.4  92    -8.5  0     0     998.9    NA       0.0000   9999     1410  0     0    
2019/06/30  11:00:00  BASE  1.03488  276  3.1458   240  -7.4  92    -8.5  0     0     998.9    NA       0.0000   9999     1380  0     0    
2019/06/30  11:01:00  BASE  1.25244  266  3.1458   240  -7.4  92    -8.5  0     0     998.9    NA       0.0000   9999     1380  0     0    
2019/06/30  11:02:00  BASE  1.2348   304  3.1458   240  -7.4  92    -8.5  0     0     998.8    NA       0.0000   9999     1280  0     0    
2019/06/30  11:03:00  BASE  0.62328  333  2.56956  250  -7.4  92    -8.5  0     0     998.8    NA       0.0000   9999     1280  0     0    
2019/06/30  11:04:00  BASE  0.21756  343  2.29908  275  -7.4  92    -8.5  0     0     998.8    NA       0.0000   9999     1350  0     0    
2019/06/30  11:05:00  BASE  0.74676  306  2.29908  275  -7.4  91    -8.6  0     0     998.8    NA       0.0000   9999     1380  0     0    
2019/06/30  11:06:00  BASE  1.54056  266  2.29908  258  -7.4  91    -8.6  0     0     998.8    NA       0.0000   9999     1280  0     0    
2019/06/30  11:07:00  BASE  2.0286   258  2.48136  256  -7.4  91    -8.6  0     0     998.8    NA       0.0000   9999     1350  0     0    
2019/06/30  11:08:00  BASE  2.09916  247  3.29868  240  -7.4  91    -8.6  0     0     998.8    NA       0.0000   9999     1280  0     0    
2019/06/30  11:09:00  BASE  1.84044  232  3.29868  240  -7.4  91    -8.6  0     0     998.8    NA       0.0000   9999     1210  0     0    
2019/06/30  11:10:00  BASE  1.911    211  3.29868  240  -7.3  91    -8.6  0     0     998.8    NA       0.0000   9999     1180  0     0    
2019/06/30  11:11:00  BASE  1.86396  204  3.29868  240  -7.3  91    -8.5  0     0     998.9    NA       0.0000   9999     1250  0     0    
2019/06/30  11:12:00  BASE  1.4112   210  3.29868  240  -7.3  91    -8.5  0     0     998.8    NA       0.0000   9999     1350  0     0    
2019/06/30  11:13:00  BASE  1.07016  222  3.29868  240  -7.3  91    -8.5  0     0     998.9    NA       0.0000   9999     1410  0     0    
2019/06/30  11:14:00  BASE  0.48216  234  3.29868  240  -7.3  91    -8.5  0     0     998.9    NA       0.0000   9999     1410  0     0    
2019/06/30  11:15:00  BASE  0.64092  229  3.29868  240  -7.3  91    -8.5  0     0     998.9    NA       0.0000   9999     1480  0     0    
2019/06/30  11:16:00  BASE  1.2642   224  3.29868  240  -7.3  91    -8.5  0     0     998.9    NA       0.0000   9999     1480  0     0    
2019/06/30  11:17:00  BASE  1.42296  231  3.29868  240  -7.3  91    -8.5  0     0     999.0    NA       0.0000   9999     1480  0     0    
2019/06/30  11:18:00  BASE  1.40532  233  2.54016  196  -7.3  91    -8.5  0     0     999.0    NA       0.0000   9999     1480  0     0    
2019/06/30  11:19:00  BASE  1.19952  248  2.54016  196  -7.3  91    -8.5  0     0     999.0    NA       0.0000   9999     1480  0     0    
2019/06/30  11:20:00  BASE  1.31712  259  2.1168   196  -7.3  91    -8.5  0     0     999.0    NA       0.0000   9999     1440  0     0    
2019/06/30  11:21:00  BASE  1.86984  250  2.72244  242  -7.3  91    -8.5  0     0     999.0    NA       0.0000   9999     1440  0     0    
2019/06/30  11:22:00  BASE  2.352    260  3.29868  247  -7.2  91    -8.4  0     0     999.0    NA       0.0000   9999     1410  0     0    
2019/06/30  11:23:00  BASE  2.81652  270  3.48096  246  -7.2  91    -8.3  0     0     998.9    NA       0.0000   9999     1410  0     0    
2019/06/30  11:24:00  BASE  2.75184  256  3.48096  246  -7.2  92    -8.3  0     0     999.0    NA       0.0000   9999     1410  0     0    
2019/06/30  11:25:00  BASE  2.35788  248  3.48096  246  -7.2  92    -8.3  0     0     999.0    NA       0.0000   9999     1380  0     0    
2019/06/30  11:26:00  BASE  2.3226   267  3.48096  246  -7.2  92    -8.3  0     0     999.0    NA       0.0000   9999     1380  0     0    
2019/06/30  11:27:00  BASE  2.2638   285  3.48096  246  -7.2  92    -8.3  0     0     999.0    NA       0.0000   9999     1280  0     0    
2019/06/30  11:28:00  BASE  2.07564  289  3.48096  246  -7.3  92    -8.3  0     0     999.0    NA       0.0000   9999     1250  0     0    
2019/06/30  11:29:00  BASE  2.058    285  3.48096  246  -7.3  92    -8.4  0     0     999.0    NA       0.0000   9999     1440  0     0    
2019/06/30  11:30:00  BASE  2.01096  266  3.48096  246  -7.3  92    -8.4  0     0     999.0    NA       0.0000   9999     1440  0     0    
2019/06/30  11:31:00  BASE  2.22852  247  3.48096  246  -7.3  92    -8.4  0     0     999.0    NA       0.0000   9999     1440  0     0    
2019/06/30  11:32:00  BASE  3.01056  236  4.02192  237  -7.3  92    -8.4  0     0     998.9    NA       0.0000   9999     1410  0     0    
2019/06/30  11:33:00  BASE  3.06936  236  4.02192  237  -7.3  92    -8.4  0     0     998.9    NA       0.0000   9999     1380  0     0    
2019/06/30  11:34:00  BASE  2.42844  240  4.02192  237  -7.3  92    -8.4  0     0     998.9    NA       0.0000   9999     1410  0     0    
2019/06/30  11:35:00  BASE  2.04624  238  4.02192  237  -7.4  92    -8.4  0     0     998.9    NA       0.0000   9999     1410  0     0    
2019/06/30  11:36:00  BASE  2.06388  233  4.02192  237  -7.4  92    -8.4  0     0     998.9    NA       0.0000   9999     1410  0     0    
2019/06/30  11:37:00  BASE  1.90512  236  4.02192  237  -7.4  92    -8.5  0     0     998.9    NA       0.0000   9999     1410  0     0    
2019/06/30  11:38:00  BASE  1.96392  243  4.02192  237  -7.4  92    -8.5  0     0     998.8    NA       0.0000   9999     1410  0     0    
2019/06/30  11:39:00  BASE  2.65776  241  4.02192  237  -7.4  92    -8.5  0     0     998.8    NA       0.0000   9999     1410  0     0    
2019/06/30  11:40:00  BASE  2.6754   243  4.02192  237  -7.4  92    -8.5  0     0     998.8    NA       0.0000   9999     1410  0     0    
2019/06/30  11:41:00  BASE  2.34612  246  4.02192  237  -7.4  92    -8.5  0     0     998.8    NA       0.0000   9999     1410  0     0    
2019/06/30  11:42:00  BASE  2.42256  235  3.1458   229  -7.4  92    -8.5  0     0     998.8    NA       0.0000   9999     1410  0     0    
2019/06/30  11:43:00  BASE  2.57544  221  3.1458   229  -7.4  92    -8.5  0     0     998.8    NA       0.0000   9999     1410  0     0    
2019/06/30  11:44:00  BASE  2.65776  200  3.1458   229  -7.4  92    -8.5  0     0     998.8    NA       0.0000   9999     1310  0     0    
2019/06/30  11:45:00  BASE  2.45196  178  3.1458   229  -7.4  92    -8.5  0     0     998.8    NA       0.0000   9999     1250  0     0    
2019/06/30  11:46:00  BASE  2.09916  158  3.1458   229  -7.4  92    -8.5  0     0     998.8    NA       0.0000   9999     1210  0     0    
2019/06/30  11:47:00  BASE  1.58172  142  3.1458   229  -7.4  92    -8.5  0     0     998.8    NA       0.0000   9999     1250  0     0    
2019/06/30  11:48:00  BASE  0.8526   115  3.1458   229  -7.4  92    -8.5  0     0     998.8    NA       0.0000   9999     1210  0     0    
2019/06/30  11:49:00  BASE  0.95256  102  3.087    173  -7.4  92    -8.5  0     0     998.6    NA       0.0000   9999     1210  0     0    
2019/06/30  11:50:00  BASE  1.51704  115  3.087    173  -7.4  92    -8.5  0     0     998.6    NA       0.0000   9999     1250  0     0    
2019/06/30  11:51:00  BASE  1.54644  109  3.087    173  -7.4  92    -8.5  0     0     998.6    NA       0.0000   9999     1250  0     0    
2019/06/30  11:52:00  BASE  1.13484  104  3.087    173  -7.4  92    -8.5  0     0     998.6    NA       0.0000   9999     1210  0     0    
2019/06/30  11:53:00  BASE  0.74676  96   3.087    173  -7.4  92    -8.5  0     0     998.6    NA       0.0000   9999     1250  0     0    
2019/06/30  11:54:00  BASE  0.78204  84   2.69304  184  -7.4  92    -8.5  0     0     998.6    NA       0.0000   9999     1310  0     0    
2019/06/30  11:55:00  BASE  0.86436  84   2.38728  149  -7.4  92    -8.5  0     0     998.6    NA       0.0000   9999     1380  0     0    
2019/06/30  11:56:00  BASE  0.69384  94   2.29908  74   -7.4  92    -8.5  0     0     998.6    NA       0.0000   9999     1410  0     0    
2019/06/30  11:57:00  BASE  0.41748  112  2.29908  74   -7.4  92    -8.5  0     0     998.6    NA       0.0000   9999     1410  0     0    
2019/06/30  11:58:00  BASE  0.13524  124  2.29908  74   -7.4  92    -8.5  0     0     998.6    NA       0.0000   9999     1380  0     0    
2019/06/30  11:59:00  BASE  0.1764   117  2.29908  74   -7.4  92    -8.4  0     0     998.5    NA       0.0000   9999     1410  0     0    
2019/06/30  12:00:00  BASE  0.43512  100  2.29908  74   -7.4  92    -8.4  0     0     998.5    NA       0.0000   9999     1380  0     0    
2019/06/30  12:01:00  BASE  0.61152  80   1.32888  116  -7.4  93    -8.4  0     0     998.5    NA       0.0000   9999     1380  0     0    
2019/06/30  12:02:00  BASE  0.5292   54   1.1172   75   -7.4  93    -8.4  0     0     998.5    NA       0.0000   9999     1350  0     0    
2019/06/30  12:03:00  BASE  0.1764   45   1.1172   75   -7.4  93    -8.4  0     0     998.5    NA       0.0000   9999     1350  0     0    
2019/06/30  12:04:00  BASE  0.0294   61   1.1172   75   -7.4  93    -8.4  0     0     998.5    NA       0.0000   9999     1280  0     0    
2019/06/30  12:05:00  BASE  0.0294   69   1.1172   75   -7.4  93    -8.3  0     0     998.5    NA       0.0000   9999     1310  0     0    
2019/06/30  12:06:00  BASE  0        65   1.1172   75   -7.4  93    -8.3  0     0     998.5    NA       0.0000   9999     1350  0     0    
2019/06/30  12:07:00  BASE  0.147    71   1.1172   75   -7.4  93    -8.3  0     0     998.5    NA       0.0000   9999     1350  0     0    
2019/06/30  12:08:00  BASE  0.64092  78   1.48176  86   -7.4  93    -8.4  0     0     998.5    NA       0.0000   9999     1280  0     0    
2019/06/30  12:09:00  BASE  1.12308  84   1.48176  86   -7.4  93    -8.4  0     0     998.5    NA       0.0000   9999     1280  0     0    
2019/06/30  12:10:00  BASE  0.88788  104  1.48176  86   -7.4  93    -8.4  0     0     998.5    NA       0.0000   9999     1210  0     0    
2019/06/30  12:11:00  BASE  0.4704   118  1.48176  86   -7.4  93    -8.4  0     0     998.5    NA       0.0000   9999     1180  0     0    
2019/06/30  12:12:00  BASE  0.77616  123  1.48176  86   -7.4  93    -8.4  0     0     998.5    NA       0.0000   9999     1280  0     0    
2019/06/30  12:13:00  BASE  1.09368  125  1.48176  86   -7.4  93    -8.4  0     0     998.4    NA       0.0000   9999     1350  0     0    
2019/06/30  12:14:00  BASE  0.95844  124  1.48176  86   -7.4  93    -8.3  0     0     998.4    NA       0.0000   9999     1380  0     0    
2019/06/30  12:15:00  BASE  0.85848  127  1.48176  86   -7.4  93    -8.4  0     0     998.4    NA       0.0000   9999     1380  0     0    
2019/06/30  12:16:00  BASE  0.92316  130  1.48176  86   -7.4  93    -8.4  0     0     998.4    NA       0.0000   9999     1310  0     0    
2019/06/30  12:17:00  BASE  1.00548  138  1.48176  86   -7.5  93    -8.4  0     0     998.4    NA       0.0000   9999     1310  0     0    
2019/06/30  12:18:00  BASE  1.09368  151  1.42296  93   -7.5  93    -8.4  0     0     998.4    NA       0.0000   9999     1380  0     0    
2019/06/30  12:19:00  BASE  1.08192  163  1.39356  165  -7.5  93    -8.4  0     0     998.4    NA       0.0000   9999     1280  0     0    
2019/06/30  12:20:00  BASE  0.99372  175  1.39356  165  -7.5  93    -8.4  0     0     998.4    NA       0.0000   9999     1250  0     0    
2019/06/30  12:21:00  BASE  1.0584   195  1.75224  207  -7.5  93    -8.4  0     0     998.4    NA       0.0000   9999     1210  0     0    
2019/06/30  12:22:00  BASE  1.55232  201  2.48136  204  -7.5  93    -8.4  0     0     998.3    NA       0.0000   9999     1310  0     0    
2019/06/30  12:23:00  BASE  2.37552  200  3.087    203  -7.4  93    -8.4  0     0     998.4    NA       0.0000   9999     1310  0     0    
2019/06/30  12:24:00  BASE  2.30496  212  3.087    203  -7.4  93    -8.3  0     0     998.4    NA       0.0000   9999     1350  0     0    
2019/06/30  12:25:00  BASE  1.89924  220  3.087    203  -7.4  93    -8.3  0     0     998.4    NA       0.0000   9999     1310  0     0    
2019/06/30  12:26:00  BASE  1.42884  228  3.087    203  -7.4  94    -8.3  0     0     998.4    NA       0.0000   9999     1280  0     0    
2019/06/30  12:27:00  BASE  0.77028  236  3.087    203  -7.4  94    -8.2  0     0     998.4    NA       0.0000   9999     1280  0     0    
2019/06/30  12:28:00  BASE  0.89964  233  3.087    203  -7.4  94    -8.2  0     0     998.4    NA       0.0000   9999     1310  0     0    
2019/06/30  12:29:00  BASE  0.78204  220  3.087    203  -7.4  94    -8.2  0     0     998.4    NA       0.0000   9999     1350  0     0    
2019/06/30  12:30:00  BASE  0.30576  220  3.087    203  -7.4  94    -8.2  0     0     998.4    NA       0.0000   9999     1350  0     0    
2019/06/30  12:31:00  BASE  0.59388  219  3.087    203  -7.4  94    -8.2  0     0     998.4    NA       0.0000   9999     1350  0     0    
2019/06/30  12:32:00  BASE  0.91728  187  3.087    203  -7.4  94    -8.2  0     0     998.4    NA       0.0000   9999     1310  0     0    
2019/06/30  12:33:00  BASE  1.3524   164  2.72244  215  -7.4  94    -8.2  0     0     998.4    NA       0.0000   9999     1310  0     0    
2019/06/30  12:34:00  BASE  1.617    174  2.72244  215  -7.4  94    -8.2  0     0     998.4    NA       0.0000   9999     1310  0     0    
2019/06/30  12:35:00  BASE  0.95256  174  2.48136  183  -7.4  94    -8.2  0     0     998.4    NA       0.0000   9999     1280  0     0    
2019/06/30  12:36:00  BASE  0.89376  168  2.48136  183  -7.4  94    -8.2  0     0     998.4    NA       0.0000   9999     1250  0     0    
2019/06/30  12:37:00  BASE  1.30536  170  2.48136  183  -7.4  94    -8.2  0     0     998.4    NA       0.0000   9999     1210  0     0    
2019/06/30  12:38:00  BASE  1.62288  175  2.48136  183  -7.4  94    -8.2  0     0     998.4    NA       0.0000   9999     1180  0     0    
2019/06/30  12:39:00  BASE  1.5876   178  2.48136  183  -7.4  94    -8.2  0     0     998.4    NA       0.0000   9999     1210  0     0    
2019/06/30  12:40:00  BASE  1.09368  171  2.48136  183  -7.4  94    -8.2  0     0     998.4    NA       0.0000   9999     1250  0     0    
2019/06/30  12:41:00  BASE  1.09956  160  2.48136  183  -7.4  94    -8.2  0     0     998.4    NA       0.0000   9999     1210  0     0    
2019/06/30  12:42:00  BASE  1.2936   157  2.48136  183  -7.4  94    -8.2  0     0     998.4    NA       0.0000   9999     1250  0     0    
2019/06/30  12:43:00  BASE  1.12896  146  2.0874   174  -7.4  95    -8.1  0     0     998.4    NA       0.0000   9999     1250  0     0    
2019/06/30  12:44:00  BASE  0.9996   141  2.0874   174  -7.4  95    -8.1  0     0     998.4    NA       0.0000   9999     1210  0     0    
2019/06/30  12:45:01  BASE  1.15836  155  2.0874   174  -7.4  95    -8.1  0     0     998.4    NA       0.0000   9999     1150  0     0    
2019/06/30  12:46:00  BASE  1.27008  162  2.0874   174  -7.4  95    -8.1  0     0     998.4    NA       0.0000   9999     1180  0     0    
2019/06/30  12:47:00  BASE  0.88788  147  2.0874   174  -7.4  95    -8.1  0     0     998.4    NA       0.0000   9999     1210  0     0    
2019/06/30  12:48:00  BASE  0.37044  146  1.72284  162  -7.5  95    -8.1  0     0     998.4    NA       0.0000   9999     1250  0     0    
2019/06/30  12:49:00  BASE  0.11172  135  1.72284  162  -7.5  95    -8.1  0     0     998.4    NA       0.0000   9999     1250  0     0    
2019/06/30  12:50:00  BASE  0        107  1.72284  162  -7.5  95    -8.1  0     0     998.4    NA       0.0000   9999     1250  0     0    
2019/06/30  12:51:00  BASE  0        168  1.72284  162  -7.4  95    -8.1  0     0     998.5    NA       0.0000   9999     1250  0     0    
2019/06/30  12:52:00  BASE  0        208  1.57584  150  -7.4  95    -8.1  0     0     998.5    NA       0.0000   9999     1250  0     0    
2019/06/30  12:53:00  BASE  0.4704   284  1.57584  150  -7.4  95    -8.1  0     0     998.5    NA       0.0000   9999     1210  0     0    
2019/06/30  12:54:00  BASE  0.63504  314  1.57584  150  -7.4  95    -8.1  0     0     998.5    NA       0.0000   9999     1150  0     0    
2019/06/30  12:55:00  BASE  0.49392  296  1.57584  150  -7.4  95    -8.1  0     0     998.5    NA       0.0000   9999     1250  0     0    
2019/06/30  12:56:00  BASE  1.10544  239  2.38728  166  -7.4  95    -8.1  0     0     998.5    NA       0.0000   9999     1250  0     0    
2019/06/30  12:57:00  BASE  1.78752  193  2.38728  166  -7.4  95    -8.1  0     0     998.5    NA       0.0000   9999     1210  0     0    
2019/06/30  12:58:00  BASE  2.03448  184  2.48136  194  -7.4  95    -8.1  0     0     998.5    NA       0.0000   9999     1250  0     0    
2019/06/30  12:59:00  BASE  2.08152  187  2.48136  189  -7.4  95    -8.1  0     0     998.5    NA       0.0000   9999     1250  0     0    
2019/06/30  13:00:00  BASE  2.30496  192  2.87532  197  -7.4  95    -8.1  0     0     998.5    NA       0.0000   9999     1250  0     0    
2019/06/30  13:01:00  BASE  2.43432  191  2.93412  184  -7.4  95    -8.1  0     0     998.5    NA       0.0000   9999     1250  0     0    
2019/06/30  13:02:00  BASE  2.38728  185  2.93412  184  -7.4  95    -8.1  0     0     998.5    NA       0.0000   9999     1210  0     0    
2019/06/30  13:03:00  BASE  2.44608  188  2.93412  184  -7.4  95    -8.0  0     0     998.5    NA       0.0000   9999     1210  0     0    
2019/06/30  13:04:00  BASE  2.24028  190  2.93412  184  -7.4  95    -8.0  0     0     998.5    NA       0.0000   9999     1250  0     0    
2019/06/30  13:05:00  BASE  1.96392  186  2.93412  184  -7.4  96    -8.0  0     0     998.5    NA       0.0000   9999     1210  0     0    
2019/06/30  13:06:00  BASE  2.13444  177  2.93412  184  -7.4  96    -8.0  0     0     998.5    NA       0.0000   9999     1180  0     0    
2019/06/30  13:07:00  BASE  2.38728  178  3.26928  182  -7.5  96    -8.0  0     0     998.5    NA       0.0000   9999     1210  0     0    
2019/06/30  13:08:00  BASE  2.41668  184  3.26928  182  -7.5  96    -8.0  0     0     998.4    NA       0.0000   9999     1250  0     0    
2019/06/30  13:09:00  BASE  2.45196  184  3.26928  182  -7.5  96    -8.0  0     0     998.4    NA       0.0000   9999     1250  0     0    
2019/06/30  13:10:00  BASE  2.058    179  3.26928  182  -7.5  96    -8.0  0     0     998.4    NA       0.0000   9999     1180  0     0    
2019/06/30  13:11:00  BASE  1.64052  181  3.26928  182  -7.5  96    -8.0  0     0     998.4    NA       0.0000   9999     1150  0     0    
2019/06/30  13:12:00  BASE  1.44648  186  3.26928  182  -7.5  96    -8.0  0     0     998.4    NA       0.0000   9999     1150  0     0    
2019/06/30  13:13:00  BASE  1.28772  200  3.26928  182  -7.5  96    -8.0  0     0     998.4    NA       0.0000   9999     1180  0     0    
2019/06/30  13:14:00  BASE  1.71696  219  3.26928  182  -7.5  96    -8.0  0     0     998.3    NA       0.0000   9999     1120  0     0    
2019/06/30  13:15:00  BASE  2.22264  232  3.26928  182  -7.5  96    -8.0  0     0     998.3    NA       0.0000   9999     1080  0     0    
2019/06/30  13:16:00  BASE  2.54604  248  3.26928  182  -7.5  96    -8.0  0     0     998.3    NA       0.0000   9999     1080  0     0    
2019/06/30  13:17:00  BASE  2.33436  252  3.1458   252  -7.5  96    -8.0  0     0     998.3    NA       0.0000   9999     1080  0     0    
2019/06/30  13:18:00  BASE  1.45236  251  3.1458   252  -7.5  96    -8.0  0     0     998.3    NA       0.0000   9999     1120  0     0    
2019/06/30  13:19:00  BASE  0.72324  263  3.1458   252  -7.5  96    -8.1  0     0     998.3    NA       0.0000   9999     1120  0     0    
2019/06/30  13:20:00  BASE  0.65268  273  3.1458   252  -7.5  96    -8.1  0     0     998.3    NA       0.0000   9999     1180  0     0    
2019/06/30  13:21:00  BASE  0.81144  267  3.1458   252  -7.5  96    -8.1  0     0     998.3    NA       0.0000   9999     1120  0     0    
2019/06/30  13:22:00  BASE  0.66444  243  3.1458   252  -7.5  96    -8.1  0     0     998.3    NA       0.0000   9999     1280  0     0    
2019/06/30  13:23:00  BASE  0.30576  228  3.1458   252  -7.5  96    -8.0  0     0     998.3    NA       0.0000   9999     1150  0     0    
2019/06/30  13:24:00  BASE  0.81732  244  3.1458   252  -7.5  96    -8.0  0     0     998.3    NA       0.0000   9999     1020  0     0    
2019/06/30  13:25:01  BASE  1.27008  269  3.1458   252  -7.5  96    -8.0  0     0     998.3    NA       0.0000   9999     1020  0     0    
2019/06/30  13:26:00  BASE  0.66444  276  2.21088  246  -7.5  96    -8.0  0     0     998.3    NA       0.0000   9999     1050  0     0    
2019/06/30  13:27:00  BASE  0.66444  249  1.90512  254  -7.5  96    -8.1  0     0     998.3    NA       0.0000   9999     1080  0     0    
2019/06/30  13:28:00  BASE  1.00548  224  1.90512  254  -7.6  96    -8.1  0     0     998.3    NA       0.0000   9999     1120  0     0    
2019/06/30  13:29:00  BASE  1.08192  215  1.90512  254  -7.6  96    -8.1  0     0     998.3    NA       0.0000   9999     1080  0     0    
2019/06/30  13:30:00  BASE  0.72912  206  1.90512  254  -7.6  96    -8.2  0     0     998.3    NA       0.0000   9999     1210  0     0    
2019/06/30  13:31:00  BASE  0.17052  195  1.90512  254  -7.6  95    -8.2  0     0     998.3    NA       0.0000   9999     1210  0     0    
2019/06/30  13:32:00  BASE  0        185  1.90512  254  -7.6  95    -8.2  0     0     998.3    NA       0.0000   9999     1280  0     0    
2019/06/30  13:33:00  BASE  0        171  1.90512  254  -7.6  95    -8.3  0     0     998.3    NA       0.0000   9999     1350  0     0    
2019/06/30  13:34:00  BASE  0        152  1.54056  277  -7.6  95    -8.3  0     0     998.3    NA       0.0000   9999     1380  0     0    
2019/06/30  13:35:00  BASE  0.18816  143  1.35828  214  -7.6  95    -8.3  0     0     998.3    NA       0.0000   9999     1380  0     0    
2019/06/30  13:36:00  BASE  0.54096  156  1.35828  214  -7.6  95    -8.3  1     0     998.3    NA       0.0000   9999     1410  0     0    
2019/06/30  13:37:00  BASE  0.74088  181  1.35828  214  -7.6  95    -8.3  1     0     998.4    NA       0.0000   9999     1350  0     0    
2019/06/30  13:38:00  BASE  1.10544  194  1.81692  202  -7.6  95    -8.3  1     0     998.4    NA       0.0000   9999     1210  0     0    
2019/06/30  13:39:00  BASE  1.51704  201  1.93452  201  -7.6  95    -8.3  1     0     998.4    NA       0.0000   9999     1250  0     0    
2019/06/30  13:40:00  BASE  1.74048  215  2.0874   225  -7.6  95    -8.3  1     0     998.4    NA       0.0000   9999     1210  0     0    
2019/06/30  13:41:00  BASE  2.15208  218  2.81064  201  -7.6  95    -8.2  1     0     998.4    NA       0.0000   9999     1350  0     0    
2019/06/30  13:42:00  BASE  2.10504  213  2.81064  201  -7.6  95    -8.2  1     0     998.4    NA       0.0000   9999     1410  0     0    
2019/06/30  13:43:00  BASE  1.7934   218  2.81064  201  -7.5  95    -8.2  1     0     998.4    NA       0.0000   9999     1380  0     0    
2019/06/30  13:44:00  BASE  1.69344  225  2.81064  201  -7.5  95    -8.2  1     0     998.4    NA       0.0000   9999     1310  0     0    
2019/06/30  13:45:00  BASE  1.47     218  2.81064  201  -7.5  95    -8.2  1     0     998.4    NA       0.0000   9999     1250  0     0    
2019/06/30  13:46:00  BASE  1.13484  207  2.81064  201  -7.5  95    -8.2  1     0     998.4    NA       0.0000   9999     1210  0     0    
2019/06/30  13:47:00  BASE  0.78792  219  2.81064  201  -7.5  95    -8.2  1     0     998.4    NA       0.0000   9999     1120  0     0    
2019/06/30  13:48:00  BASE  0.71148  240  2.81064  201  -7.6  95    -8.2  1     0     998.4    NA       0.0000   9999     1310  0     0    
2019/06/30  13:49:00  BASE  0.65856  242  2.81064  201  -7.6  95    -8.2  1     0     998.4    NA       0.0000   9999     1310  0     0    
2019/06/30  13:50:00  BASE  0.63504  246  2.81064  201  -7.6  95    -8.2  1     0     998.4    NA       0.0000   9999     1350  0     0    
2019/06/30  13:51:00  BASE  0.96432  271  2.0286   228  -7.6  95    -8.3  1     0     998.4    NA       0.0000   9999     1210  0     0    
2019/06/30  13:52:00  BASE  1.4406   282  2.0286   228  -7.6  95    -8.3  1     0     998.4    NA       0.0000   9999     1210  0     0    
2019/06/30  13:53:00  BASE  1.60524  266  2.0286   228  -7.6  95    -8.3  1     0     998.3    NA       0.0000   9999     1180  0     0    
2019/06/30  13:54:00  BASE  1.11132  252  1.96392  264  -7.6  95    -8.3  1     0     998.3    NA       0.0000   9999     1280  0     0    
2019/06/30  13:55:00  BASE  0.84672  241  1.96392  264  -7.6  95    -8.3  1     0     998.3    NA       0.0000   9999     1250  0     0    
2019/06/30  13:56:00  BASE  1.22304  233  1.96392  264  -7.6  95    -8.3  1     0     998.3    NA       0.0000   9999     1120  0     0    
2019/06/30  13:57:00  BASE  0.8232   217  1.96392  264  -7.6  95    -8.3  1     0     998.3    NA       0.0000   9999     1150  0     0    
2019/06/30  13:58:00  BASE  0.19404  157  1.96392  264  -7.6  95    -8.3  1     0     998.3    NA       0.0000   9999     1180  0     0    
2019/06/30  13:59:00  BASE  0.25872  73   1.96392  264  -7.6  95    -8.3  1     0     998.3    NA       0.0000   9999     1250  0     0    
2019/06/30  14:00:01  BASE  0.29988  73   1.96392  264  -7.6  95    -8.3  1     0     998.3    NA       0.0000   9999     1150  0     0    
2019/06/30  14:01:00  BASE  0.12936  43   1.96392  264  -7.6  95    -8.2  2     0     998.3    NA       0.0000   9999     1050  0     0    
2019/06/30  14:02:00  BASE  0        47   1.75224  224  -7.6  95    -8.2  2     0     998.3    NA       0.0000   9999     1080  0     0    
2019/06/30  14:03:00  BASE  0        114  1.75224  224  -7.6  95    -8.2  2     0     998.3    NA       0.0000   9999     1050  0     0    
2019/06/30  14:04:00  BASE  0        122  1.75224  224  -7.5  95    -8.2  2     0     998.3    NA       0.0000   9999     1180  0     0    
2019/06/30  14:05:00  BASE  0        175  1.75224  224  -7.5  95    -8.2  2     0     998.3    NA       0.0000   9999     1210  0     0    
2019/06/30  14:06:00  BASE  0        169  1.1172   222  -7.5  95    -8.2  2     0     998.3    NA       0.0000   9999     1210  0     0    
2019/06/30  14:07:00  BASE  0        111  0.90552  112  -7.5  95    -8.2  2     0     998.3    NA       0.0000   9999     1250  0     0    
2019/06/30  14:08:00  BASE  0.29988  83   0.9996   61   -7.5  95    -8.2  2     0     998.2    NA       0.0000   9999     1210  0     0    
2019/06/30  14:09:00  BASE  0.29988  39   0.9996   61   -7.5  95    -8.2  2     0     998.2    NA       0.0000   9999     1210  0     0    
2019/06/30  14:10:00  BASE  0.0294   37   0.9996   61   -7.5  95    -8.2  2     0     998.2    NA       0.0000   9999     1180  0     0    
2019/06/30  14:11:00  BASE  0.2646   66   0.9996   61   -7.6  95    -8.2  2     0     998.2    NA       0.0000   9999     1210  0     0    
2019/06/30  14:12:00  BASE  0.31752  74   0.9996   61   -7.6  95    -8.2  2     0     998.2    NA       0.0000   9999     1180  0     0    
2019/06/30  14:13:00  BASE  0.08232  83   0.9996   61   -7.6  95    -8.3  2     0     998.2    NA       0.0000   9999     1150  0     0    
2019/06/30  14:14:00  BASE  0.4704   89   1.60524  100  -7.6  95    -8.3  2     0     998.2    NA       0.0000   9999     1150  0     0    
2019/06/30  14:15:00  BASE  1.34064  89   2.0286   87   -7.6  95    -8.3  2     0     998.2    NA       0.0000   9999     1210  0     0    
2019/06/30  14:16:00  BASE  1.7346   87   2.0286   87   -7.6  95    -8.3  2     0     998.2    NA       0.0000   9999     1210  0     0    
2019/06/30  14:17:00  BASE  1.71696  88   2.0286   87   -7.6  95    -8.3  2     0     998.2    NA       0.0000   9999     1210  0     0    
2019/06/30  14:18:00  BASE  1.78164  88   2.058    81   -7.7  95    -8.3  2     0     998.2    NA       0.0000   9999     1210  0     0    
2019/06/30  14:19:00  BASE  1.66992  77   2.058    81   -7.7  95    -8.3  2     0     998.2    NA       0.0000   9999     1210  0     0    
2019/06/30  14:20:00  BASE  1.53468  74   2.058    81   -7.7  95    -8.4  2     0     998.2    NA       0.0000   9999     1250  0     0    
2019/06/30  14:21:00  BASE  1.59936  75   2.058    81   -7.7  95    -8.4  3     0     998.2    NA       0.0000   9999     1250  0     0    
2019/06/30  14:22:00  BASE  2.01684  72   3.86904  36   -7.7  95    -8.4  3     0     998.1    NA       0.0000   9999     1250  0     0    
2019/06/30  14:23:00  BASE  2.36376  34   3.86904  36   -7.7  95    -8.3  3     0     998.1    NA       0.0000   9999     1210  0     0    
2019/06/30  14:24:00  BASE  2.26968  1    3.86904  36   -7.7  96    -8.3  3     0     998.1    NA       0.0000   9999     1210  0     0    
2019/06/30  14:25:00  BASE  2.41668  8    3.86904  36   -7.7  96    -8.2  3     0     998.1    NA       0.0000   9999     1210  0     0    
2019/06/30  14:26:00  BASE  2.7048   14   3.86904  36   -7.6  96    -8.1  3     0     998.0    NA       0.0000   9999     1210  0     0    
2019/06/30  14:27:00  BASE  2.5872   6    3.86904  36   -7.6  96    -8.1  3     0     998.0    NA       0.0000   9999     1180  0     0    
2019/06/30  14:28:00  BASE  2.27556  358  3.86904  36   -7.6  96    -8.1  3     0     998.0    NA       0.0000   9999     1150  0     0    
2019/06/30  14:29:00  BASE  2.38728  357  3.86904  36   -7.6  96    -8.1  3     0     998.0    NA       0.0000   9999     1150  0     0    
2019/06/30  14:30:00  BASE  2.49312  356  3.86904  36   -7.6  96    -8.1  3     0     998.0    NA       0.0000   9999     1150  0     0    
2019/06/30  14:31:00  BASE  2.5872   359  3.86904  36   -7.6  96    -8.1  3     0     998.0    NA       0.0000   9999     1180  0     0    
2019/06/30  14:32:00  BASE  2.74008  3    3.62796  352  -7.6  96    -8.1  3     0     998.0    NA       0.0000   9999     1180  0     0    
2019/06/30  14:33:00  BASE  2.53428  2    3.1752   2    -7.6  96    -8.1  3     0     998.1    NA       0.0000   9999     1180  0     0    
2019/06/30  14:34:00  BASE  2.9988   7    4.263    14   -7.6  96    -8.1  3     0     998.0    NA       0.0000   9999     1180  0     0    
2019/06/30  14:35:00  BASE  3.71616  14   4.263    14   -7.6  96    -8.1  4     0     998.0    NA       0.0000   9999     1180  0     0    
2019/06/30  14:36:00  BASE  3.44568  18   4.263    14   -7.6  96    -8.1  4     0     998.1    NA       0.0000   9999     1180  0     0    
2019/06/30  14:37:00  BASE  3.3516   22   4.263    14   -7.6  97    -8.0  4     0     998.1    NA       0.0000   9999     1150  0     0    
2019/06/30  14:38:00  BASE  3.4104   21   4.263    14   -7.6  97    -8.0  4     0     998.1    NA       0.0000   9999     1180  0     0    
2019/06/30  14:39:00  BASE  3.25752  17   4.263    14   -7.6  97    -8.0  4     0     998.2    NA       0.0000   9999     1180  0     0    
2019/06/30  14:40:00  BASE  3.31044  15   4.263    14   -7.6  97    -8.0  4     0     998.2    NA       0.0000   9999     1180  0     0    
2019/06/30  14:41:00  BASE  3.07524  18   4.263    14   -7.6  97    -8.0  4     0     998.2    NA       0.0000   9999     1180  0     0    
2019/06/30  14:42:00  BASE  3.04584  23   4.263    14   -7.7  97    -8.0  4     0     998.2    NA       0.0000   9999     1150  0     0    
2019/06/30  14:43:00  BASE  3.56916  21   4.263    14   -7.7  97    -8.1  4     0     998.2    NA       0.0000   9999     1150  0     0    
2019/06/30  14:44:00  BASE  4.1748   23   4.86864  26   -7.7  97    -8.1  4     0     998.2    NA       0.0000   9999     1180  0     0    
2019/06/30  14:45:00  BASE  4.4982   24   4.86864  26   -7.8  97    -8.1  4     0     998.1    NA       0.0000   9999     1150  0     0    
2019/06/30  14:46:00  BASE  4.2042   21   4.86864  26   -7.8  97    -8.1  5     0     998.1    NA       0.0000   9999     1150  0     0    
2019/06/30  14:47:00  BASE  3.78084  19   4.86864  26   -7.8  98    -8.1  5     0     998.0    NA       0.0000   9999     1180  0     0    
2019/06/30  14:48:00  BASE  3.69852  23   4.86864  26   -7.8  98    -8.1  5     0     998.0    NA       0.0000   9999     1180  0     0    
2019/06/30  14:49:00  BASE  3.7632   28   4.86864  26   -7.8  98    -8.0  5     0     998.0    NA       0.0000   9999     1180  0     0    
2019/06/30  14:50:00  BASE  4.03368  22   5.41548  15   -7.8  98    -8.0  5     0     998.0    NA       0.0000   9999     1150  0     0    
2019/06/30  14:51:00  BASE  4.46292  21   5.41548  15   -7.8  98    -8.0  5     0     998.0    NA       0.0000   9999     1120  0     0    
2019/06/30  14:52:00  BASE  4.33356  28   5.41548  15   -7.8  98    -8.1  5     0     998.0    NA       0.0000   9999     1150  0     0    
2019/06/30  14:53:00  BASE  4.22184  29   5.41548  15   -7.8  98    -8.1  5     0     998.0    NA       0.0000   9999     1120  0     0    
2019/06/30  14:54:00  BASE  4.704    27   5.41548  15   -7.8  98    -8.1  5     0     998.0    NA       0.0000   9999     980   0     0    
2019/06/30  14:55:00  BASE  4.80984  27   5.41548  15   -7.9  98    -8.1  5     0     998.0    NA       0.0000   9999     980   0     0    
2019/06/30  14:56:00  BASE  4.2042   20   5.41548  15   -7.9  99    -8.0  6     0     998.0    NA       0.0000   9999     1020  0     0    
2019/06/30  14:57:00  BASE  4.08072  14   5.41548  15   -7.8  99    -8.0  6     0     998.0    NA       0.0000   9999     1080  0     0    
2019/06/30  14:58:00  BASE  4.59816  20   5.41548  15   -7.8  99    -7.9  6     0     998.0    NA       0.0000   9999     1050  0     0    
2019/06/30  14:59:00  BASE  4.69224  26   5.41548  15   -7.8  99    -8.0  6     0     998.0    NA       0.0000   9999     1020  0     0    
2019/06/30  15:00:00  BASE  4.13952  29   5.38608  24   -7.8  99    -8.0  6     0     998.0    NA       0.0000   9999     980   0     0    
2019/06/30  15:01:00  BASE  3.39276  31   5.38608  24   -7.9  99    -8.0  6     0     998.0    NA       0.0000   9999     950   0     0    
2019/06/30  15:02:00  BASE  3.3222   26   5.38608  24   -7.9  99    -8.0  6     0     998.0    NA       0.0000   9999     1080  0     0    
2019/06/30  15:03:00  BASE  3.44568  21   5.3214   23   -7.9  99    -8.1  7     0     998.0    NA       0.0000   9999     1150  0     0    
2019/06/30  15:04:00  BASE  3.34572  19   5.2626   26   -7.9  99    -8.0  7     0     998.0    NA       0.0000   9999     1080  0     0    
2019/06/30  15:05:00  BASE  3.87492  14   5.2038   22   -7.9  99    -8.0  7     0     998.0    NA       0.0000   9999     1050  0     0    
2019/06/30  15:06:00  BASE  4.57464  14   5.2038   22   -7.8  100   -7.9  7     0     998.0    NA       0.0000   9999     1120  0     0    
2019/06/30  15:07:00  BASE  4.60404  16   5.10972  10   -7.8  100   -7.9  7     0     998.0    NA       0.0000   9999     1150  0     0    
2019/06/30  15:08:00  BASE  4.40412  19   5.08032  23   -7.8  100   -7.8  8     0     998.0    NA       0.0000   9999     1180  0     0    
2019/06/30  15:09:00  BASE  4.37472  19   5.41548  12   -7.8  100   -7.8  8     0     998.0    NA       0.0000   9999     1180  0     0    
2019/06/30  15:10:00  BASE  4.92744  17   5.78004  16   -7.8  100   -7.8  8     0     998.0    NA       0.0000   9999     1150  0     0    
2019/06/30  15:11:00  BASE  5.42136  17   5.78004  20   -7.8  100   -7.8  8     0     997.9    NA       0.0000   9999     1180  0     0    
2019/06/30  15:12:00  BASE  5.40372  20   5.78004  20   -7.9  100   -7.9  8     0     998.0    NA       0.0000   9999     1180  0     0    
2019/06/30  15:13:00  BASE  5.2332   22   5.78004  20   -7.9  100   -7.9  9     0     998.0    NA       0.0000   9999     1180  0     0    
2019/06/30  15:14:00  BASE  5.33316  24   6.02112  23   -8.0  100   -8.0  9     0     998.0    NA       0.0000   9999     1180  0     0    
2019/06/30  15:15:00  BASE  5.79768  29   6.41508  33   -8.0  100   -8.0  9     0     998.0    NA       0.0000   9999     1120  0     0    
2019/06/30  15:16:00  BASE  5.56248  30   6.41508  33   -8.1  100   -8.1  10    0     998.0    NA       0.0000   9999     1120  0     0    
2019/06/30  15:17:00  BASE  5.08032  26   6.41508  33   -8.2  100   -8.2  10    0     998.0    NA       0.0000   9999     1120  0     0    
2019/06/30  15:18:00  BASE  5.06856  26   6.41508  33   -8.2  100   -8.2  10    0     998.0    NA       0.0000   9999     1150  0     0    
2019/06/30  15:19:00  BASE  4.79808  28   6.41508  33   -8.2  100   -8.2  10    0     998.0    NA       0.0000   9999     1180  0     0    
2019/06/30  15:20:00  BASE  4.53936  27   6.41508  33   -8.2  100   -8.2  10    0     998.0    NA       0.0000   9999     1120  0     0    
2019/06/30  15:21:00  BASE  4.51584  27   6.41508  33   -8.2  100   -8.2  10    0     998.1    NA       0.0000   9999     1150  0     0    
2019/06/30  15:22:00  BASE  4.25712  20   6.41508  33   -8.2  100   -8.2  10    0     998.1    NA       0.0000   9999     1120  0     0    
2019/06/30  15:23:00  BASE  4.05132  17   6.41508  33   -8.1  100   -8.1  10    0     998.2    NA       0.0000   9999     1050  0     0    
2019/06/30  15:24:00  BASE  4.15716  18   6.41508  33   -8.1  100   -8.1  10    0     997.6    NA       0.0000   9999     1050  0     0    
2019/06/30  15:25:00  BASE  4.34532  14   6.2034   26   -8.1  100   -8.1  10    0     998.1    NA       0.0000   9999     1050  0     0    
2019/06/30  15:26:00  BASE  4.76868  17   5.89764  18   -8.0  100   -8.0  10    0     998.0    NA       0.0000   9999     1120  0     0    
2019/06/30  15:27:00  BASE  5.26848  22   5.89764  18   -8.1  100   -8.1  10    0     998.0    NA       0.0000   9999     1180  0     0    
2019/06/30  15:28:00  BASE  5.34492  24   5.89764  18   -8.2  100   -8.2  10    0     998.0    NA       0.0000   9999     1180  0     0    
2019/06/30  15:29:00  BASE  5.28612  25   5.89764  18   -8.2  100   -8.2  11    0     998.0    NA       0.0000   9999     1150  0     0    
2019/06/30  15:30:00  BASE  5.3214   27   5.89764  18   -8.2  100   -8.2  11    0     998.0    NA       0.0000   9999     1150  0     0    
2019/06/30  15:31:00  BASE  5.16852  28   5.89764  18   -8.3  100   -8.3  12    0     998.0    NA       0.0000   9999     1120  0     0    
2019/06/30  15:32:00  BASE  5.36256  31   6.05052  36   -8.3  100   -8.3  12    0     998.0    NA       0.0000   9999     1120  0     0    
2019/06/30  15:33:00  BASE  5.586    32   6.05052  36   -8.3  100   -8.3  11    0     998.0    NA       0.0000   9999     1180  0     0    
2019/06/30  15:34:00  BASE  5.586    31   6.13872  30   -8.4  100   -8.4  11    0     998.0    NA       0.0000   9999     1180  0     0    
2019/06/30  15:35:00  BASE  5.58012  31   6.2034   31   -8.5  100   -8.5  11    0     998.0    NA       0.0000   9999     1180  0     0    
2019/06/30  15:36:00  BASE  5.50956  31   6.2034   31   -8.5  100   -8.5  11    0     998.0    NA       0.0000   9999     1180  0     0    
2019/06/30  15:37:00  BASE  5.45664  31   6.2034   31   -8.6  100   -8.6  12    0     998.0    NA       0.0000   9999     1180  0     0    
2019/06/30  15:38:00  BASE  5.22732  30   6.2034   31   -8.6  100   -8.6  12    0     998.0    NA       0.0000   9999     1180  0     0    
2019/06/30  15:39:00  BASE  5.13324  32   6.2034   31   -8.6  100   -8.6  12    0     998.0    NA       0.0000   9999     1150  0     0    
2019/06/30  15:40:00  BASE  5.18028  35   6.2034   31   -8.7  100   -8.7  12    0     998.0    NA       0.0000   9999     1180  0     0    
2019/06/30  15:41:00  BASE  5.20968  36   6.2034   31   -8.7  100   -8.7  12    0     998.0    NA       0.0000   9999     1180  0     0    
2019/06/30  15:42:00  BASE  5.0274   34   6.2034   31   -8.7  100   -8.7  12    0     998.0    NA       0.0000   9999     1150  0     0    
2019/06/30  15:43:00  BASE  4.71576  30   6.2034   31   -8.7  100   -8.7  12    0     998.0    NA       0.0000   9999     1150  0     0    
2019/06/30  15:44:00  BASE  4.49232  29   6.2034   31   -8.7  100   -8.7  12    0     998.0    NA       0.0000   9999     1150  0     0    
2019/06/30  15:45:00  BASE  4.2924   27   5.86824  36   -8.7  100   -8.7  12    0     998.0    NA       0.0000   9999     1150  0     0    
2019/06/30  15:46:00  BASE  4.11012  24   5.86824  36   -8.6  100   -8.6  12    0     998.0    NA       0.0000   9999     1150  0     0    
2019/06/30  15:47:00  BASE  3.86904  26   5.59776  29   -8.5  100   -8.5  12    0     998.0    NA       0.0000   9999     1120  0     0    
2019/06/30  15:48:00  BASE  3.75144  26   5.59776  29   -8.4  100   -8.4  12    0     998.1    NA       0.0000   9999     1150  0     0    
2019/06/30  15:49:00  BASE  3.9102   25   5.59776  29   -8.3  100   -8.3  11    0     998.1    NA       0.0000   9999     1120  0     0    
2019/06/30  15:50:00  BASE  4.15716  25   5.3214   36   -8.3  100   -8.3  11    0     998.1    NA       0.0000   9999     1120  0     0    
2019/06/30  15:51:00  BASE  4.1748   26   5.292    29   -8.2  100   -8.2  11    0     998.1    NA       0.0000   9999     1120  0     0    
2019/06/30  15:52:00  BASE  4.13364  27   5.145    29   -8.2  100   -8.2  11    0     998.1    NA       0.0000   9999     1050  0     0    
2019/06/30  15:53:00  BASE  4.18068  27   4.65696  26   -8.2  100   -8.2  11    0     998.1    NA       0.0000   9999     980   0     0    
2019/06/30  15:54:00  BASE  3.98664  27   4.65696  26   -8.2  100   -8.2  11    0     998.2    NA       0.0000   9999     1020  0     0    
2019/06/30  15:55:00  BASE  4.01604  26   4.65696  26   -8.2  100   -8.2  11    0     998.2    NA       0.0000   9999     1020  0     0    
2019/06/30  15:56:00  BASE  4.06308  22   4.65696  26   -8.2  100   -8.2  11    0     998.1    NA       0.0000   9999     1020  0     0    
2019/06/30  15:57:00  BASE  3.66912  20   4.65696  26   -8.2  100   -8.2  11    0     998.1    NA       0.0000   9999     1020  0     0    
2019/06/30  15:58:00  BASE  3.675    22   4.65696  26   -8.1  99    -8.2  11    0     998.0    NA       0.0000   9999     1050  0     0    
2019/06/30  15:59:00  BASE  3.78084  24   4.65696  26   -8.1  100   -8.1  11    0     998.0    NA       0.0000   9999     1050  0     0    
2019/06/30  16:00:00  BASE  3.68676  29   4.56876  24   -8.0  100   -8.1  11    0     998.0    NA       0.0000   9999     1020  0     0    
2019/06/30  16:01:00  BASE  3.98664  25   4.56876  24   -8.0  99    -8.1  11    0     998.0    NA       0.0000   9999     1020  0     0    
2019/06/30  16:02:00  BASE  4.12188  17   4.56876  24   -8.0  99    -8.1  11    0     998.0    NA       0.0000   9999     1020  0     0    
2019/06/30  16:03:00  BASE  3.81612  11   4.47468  19   -7.9  99    -8.0  11    0     998.0    NA       0.0000   9999     1020  0     0    
2019/06/30  16:04:00  BASE  3.51036  7    4.47468  19   -7.9  99    -8.1  11    0     998.0    NA       0.0000   9999     1050  0     0    
2019/06/30  16:05:00  BASE  3.33396  4    4.47468  19   -7.9  99    -8.0  11    0     998.0    NA       0.0000   9999     1120  0     0    
2019/06/30  16:06:00  BASE  3.12816  4    4.47468  19   -7.9  99    -8.0  11    0     998.0    NA       0.0000   9999     1150  0     0    
2019/06/30  16:07:00  BASE  2.84004  4    4.47468  19   -7.9  99    -8.0  11    0     998.0    NA       0.0000   9999     1150  0     0    
2019/06/30  16:08:00  BASE  2.74008  357  4.47468  19   -7.9  99    -8.0  12    0     998.0    NA       0.0000   9999     1180  0     0    
2019/06/30  16:09:00  BASE  2.78124  351  4.47468  19   -7.9  99    -8.0  12    0     998.0    NA       0.0000   9999     1050  0     0    
2019/06/30  16:10:00  BASE  2.59896  360  4.47468  19   -7.9  99    -8.0  11    0     998.0    NA       0.0000   9999     1120  0     0    
2019/06/30  16:11:00  BASE  2.8518   6    4.263    22   -7.9  99    -8.0  10    0     998.0    NA       0.0000   9999     1150  0     0    
2019/06/30  16:12:00  BASE  3.15756  17   4.116    8    -7.9  99    -8.0  10    0     998.0    NA       0.0000   9999     1120  0     0    
2019/06/30  16:13:00  BASE  3.09876  17   4.116    8    -7.8  99    -8.0  11    0     998.0    NA       0.0000   9999     1150  0     0    
2019/06/30  16:14:00  BASE  3.36924  6    4.116    8    -7.8  99    -8.0  11    0     998.0    NA       0.0000   9999     1080  0     0    
2019/06/30  16:15:00  BASE  3.72204  8    4.2042   7    -7.8  99    -7.9  11    0     998.0    NA       0.0000   9999     1080  0     0    
2019/06/30  16:16:00  BASE  3.78672  11   4.2042   9    -7.8  99    -8.0  11    0     998.0    NA       0.0000   9999     1050  0     0    
2019/06/30  16:17:00  BASE  3.56916  10   4.2042   9    -7.9  99    -8.0  11    0     998.0    NA       0.0000   9999     1120  0     0    
2019/06/30  16:18:00  BASE  3.59856  10   4.29828  8    -7.9  99    -8.0  11    0     998.0    NA       0.0000   9999     1150  0     0    
2019/06/30  16:19:00  BASE  3.81024  5    4.29828  8    -7.9  99    -8.1  11    0     997.9    NA       0.0000   9999     1050  0     0    
2019/06/30  16:20:00  BASE  3.68088  5    4.29828  8    -7.9  99    -8.1  11    0     998.0    NA       0.0000   9999     1080  0     0    
2019/06/30  16:21:00  BASE  3.72204  10   4.29828  8    -7.9  99    -8.0  11    0     998.0    NA       0.0000   9999     1050  0     0    
2019/06/30  16:22:00  BASE  3.6456   13   4.29828  8    -7.9  99    -8.0  11    0     998.0    NA       0.0000   9999     1080  0     0    
2019/06/30  16:23:00  BASE  3.22224  15   4.29828  8    -7.9  99    -8.0  11    0     998.0    NA       0.0000   9999     1120  0     0    
2019/06/30  16:24:00  BASE  2.58132  13   4.29828  8    -7.9  99    -8.0  11    0     998.0    NA       0.0000   9999     1080  0     0    
2019/06/30  16:25:00  BASE  1.911    8    4.29828  8    -7.9  99    -8.0  11    0     997.9    NA       0.0000   9999     1020  0     0    
2019/06/30  16:26:00  BASE  1.74636  16   4.29828  8    -7.9  99    -8.0  12    0     997.9    NA       0.0000   9999     1020  0     0    
2019/06/30  16:27:00  BASE  2.18148  27   4.29828  8    -7.9  99    -8.1  12    0     997.9    NA       0.0000   9999     980   0     0    
2019/06/30  16:28:00  BASE  2.84004  35   4.116    18   -7.9  99    -8.1  12    0     997.9    NA       0.0000   9999     950   0     0    
2019/06/30  16:29:00  BASE  3.087    40   4.116    18   -7.9  99    -8.1  12    0     997.9    NA       0.0000   9999     950   0     0    
2019/06/30  16:30:00  BASE  3.31044  34   4.1748   31   -7.9  99    -8.0  12    0     997.9    NA       0.0000   9999     980   0     0    
2019/06/30  16:31:00  BASE  3.82788  24   4.80984  10   -7.9  99    -8.0  13    0     997.8    NA       0.0000   9999     950   0     0    
2019/06/30  16:32:00  BASE  3.66912  24   4.80984  10   -7.9  99    -8.0  14    0     997.9    NA       0.0000   9999     920   0     0    
2019/06/30  16:33:00  BASE  3.1164   30   4.80984  10   -7.9  99    -8.0  14    0     997.9    NA       0.0000   9999     980   0     0    
2019/06/30  16:34:00  BASE  3.31044  23   4.80984  10   -7.9  99    -8.0  14    0     997.9    NA       0.0000   9999     1020  0     0    
2019/06/30  16:35:00  BASE  3.18108  20   4.80984  10   -7.9  99    -8.1  14    0     997.9    NA       0.0000   9999     1050  0     0    
2019/06/30  16:36:00  BASE  2.8812   21   4.80984  10   -8.0  99    -8.1  14    0     997.9    NA       0.0000   9999     1050  0     0    
2019/06/30  16:37:00  BASE  2.84592  17   4.80984  10   -8.0  99    -8.1  14    0     997.9    NA       0.0000   9999     1080  0     0    
2019/06/30  16:38:00  BASE  2.81064  17   4.80984  10   -8.0  99    -8.1  14    0     997.9    NA       0.0000   9999     1080  0     0    
2019/06/30  16:39:00  BASE  2.92824  18   4.80984  10   -8.0  99    -8.1  14    0     997.9    NA       0.0000   9999     1120  0     0    
2019/06/30  16:40:00  BASE  3.01644  15   4.80984  10   -8.0  99    -8.1  14    0     997.9    NA       0.0000   9999     1080  0     0    
2019/06/30  16:41:00  BASE  2.68128  14   4.2042   21   -8.0  99    -8.1  14    0     998.0    NA       0.0000   9999     1050  0     0    
2019/06/30  16:42:00  BASE  2.50488  4    4.08072  11   -7.9  99    -8.1  14    0     998.0    NA       0.0000   9999     1020  0     0    
2019/06/30  16:43:00  BASE  2.6166   357  4.08072  11   -7.9  99    -8.0  13    0     998.0    NA       0.0000   9999     1050  0     0    
2019/06/30  16:44:00  BASE  2.52252  2    3.62796  25   -7.9  99    -8.0  13    0     998.0    NA       0.0000   9999     1080  0     0    
2019/06/30  16:45:00  BASE  2.56956  357  3.59856  22   -7.9  99    -8.0  13    0     998.0    NA       0.0000   9999     1050  0     0    
2019/06/30  16:46:00  BASE  2.7342   350  3.59856  22   -7.9  99    -8.0  12    0     998.0    NA       0.0000   9999     1050  0     0    
2019/06/30  16:47:00  BASE  2.45784  354  3.59856  22   -7.9  99    -8.0  12    0     998.0    NA       0.0000   9999     1050  0     0    
2019/06/30  16:48:00  BASE  2.31084  360  3.59856  22   -7.9  99    -8.0  12    0     998.0    NA       0.0000   9999     980   0     0    
2019/06/30  16:49:00  BASE  2.68716  11   3.59856  22   -7.9  99    -8.1  13    0     998.0    NA       0.0000   9999     980   0     0    
2019/06/30  16:50:00  BASE  2.82828  22   3.35748  25   -7.9  99    -8.1  14    0     998.0    NA       0.0000   9999     1020  0     0    
2019/06/30  16:51:00  BASE  2.64012  18   3.35748  25   -7.9  99    -8.0  14    0     998.0    NA       0.0000   9999     980   0     0    
2019/06/30  16:52:00  BASE  2.62248  1    3.35748  25   -7.9  99    -8.0  13    0     997.9    NA       0.0000   9999     980   0     0    
2019/06/30  16:53:00  BASE  2.57544  350  3.35748  25   -7.9  99    -8.0  12    0     997.9    NA       0.0000   9999     950   0     0    
2019/06/30  16:54:00  BASE  2.2344   1    3.35748  25   -7.9  99    -8.0  13    0     997.9    NA       0.0000   9999     980   0     0    
2019/06/30  16:55:00  BASE  2.37552  12   3.35748  25   -7.9  99    -8.0  13    0     997.9    NA       0.0000   9999     1050  0     0    
2019/06/30  16:56:00  BASE  2.43432  11   3.35748  25   -7.9  99    -8.1  12    0     997.9    NA       0.0000   9999     980   0     0    
2019/06/30  16:57:00  BASE  2.54604  12   3.35748  360  -7.9  99    -8.1  12    0     997.9    NA       0.0000   9999     950   0     0    
2019/06/30  16:58:00  BASE  2.5284   21   3.35748  360  -8.0  99    -8.1  11    0     997.8    NA       0.0000   9999     1180  0     0    
2019/06/30  16:59:00  BASE  1.86396  36   3.35748  360  -8.0  99    -8.1  10    0     997.8    NA       0.0000   9999     1120  0     0    
2019/06/30  17:00:00  BASE  1.30536  41   3.35748  360  -8.0  99    -8.1  10    0     997.8    NA       0.0000   9999     950   0     0    
2019/06/30  17:01:00  BASE  0.81144  35   3.35748  360  -8.0  99    -8.1  10    0     997.8    NA       0.0000   9999     1050  0     0    
2019/06/30  17:02:00  BASE  0.2646   45   3.35748  360  -8.0  99    -8.1  10    0     997.8    NA       0.0000   9999     1120  0     0    
2019/06/30  17:03:00  BASE  0        63   3.35748  360  -8.0  99    -8.1  9     0     997.8    NA       0.0000   9999     1180  0     0    
2019/06/30  17:04:00  BASE  0        104  3.35748  360  -8.0  99    -8.1  9     0     997.9    NA       0.0000   9999     1210  0     0    
2019/06/30  17:05:00  BASE  0.27048  101  3.35748  360  -8.0  99    -8.1  9     0     997.9    NA       0.0000   9999     1120  0     0    
2019/06/30  17:06:00  BASE  0.37632  16   3.35748  360  -8.0  99    -8.1  9     0     997.9    NA       0.0000   9999     1250  0     0    
2019/06/30  17:07:00  BASE  0.58212  333  2.56956  26   -8.0  99    -8.2  9     0     997.9    NA       0.0000   9999     1250  0     0    
2019/06/30  17:08:00  BASE  1.2054   304  1.90512  45   -8.0  99    -8.1  8     0     997.9    NA       0.0000   9999     1210  0     0    
2019/06/30  17:09:00  BASE  1.48764  288  1.90512  295  -7.9  98    -8.1  8     0     997.9    NA       0.0000   9999     1180  1900  0    
2019/06/30  17:10:00  BASE  1.04076  292  1.90512  295  -7.9  98    -8.2  8     0     997.9    NA       0.0000   9999     1280  0     0    
2019/06/30  17:11:00  BASE  0.97608  276  1.90512  225  -7.9  98    -8.2  9     0     997.9    NA       0.0000   9999     1310  0     0    
2019/06/30  17:12:00  BASE  1.5582   247  1.96392  240  -7.9  98    -8.1  9     0     997.9    NA       0.0000   9999     1280  0     0    
2019/06/30  17:13:00  BASE  1.66992  247  1.96392  240  -7.9  98    -8.2  9     0     997.9    NA       0.0000   9999     1150  0     0    
2019/06/30  17:14:00  BASE  1.45236  247  1.96392  240  -7.9  98    -8.2  8     0     997.9    NA       0.0000   9999     1080  1670  0    
2019/06/30  17:15:00  BASE  1.1466   249  1.96392  240  -7.9  98    -8.2  8     0     997.8    NA       0.0000   9999     950   0     0    
2019/06/30  17:16:00  BASE  1.00548  241  1.96392  240  -8.0  98    -8.2  8     0     997.8    NA       0.0000   9999     950   0     0    
2019/06/30  17:17:00  BASE  0.98784  230  1.96392  240  -8.0  98    -8.2  7     0     997.8    NA       0.0000   9999     1020  0     0    
2019/06/30  17:18:00  BASE  0.95844  222  1.96392  240  -8.0  98    -8.2  7     0     997.8    NA       0.0000   9999     1120  0     0    
2019/06/30  17:19:00  BASE  1.09368  206  1.96392  240  -7.9  98    -8.2  7     0     997.8    NA       0.0000   9999     1020  0     0    
2019/06/30  17:20:00  BASE  1.12308  196  1.96392  240  -7.9  98    -8.2  7     0     997.8    NA       0.0000   9999     950   0     0    
2019/06/30  17:21:00  BASE  0.71736  201  1.96392  240  -7.9  98    -8.2  7     0     997.8    NA       0.0000   9999     1080  0     0    
2019/06/30  17:22:00  BASE  0.5292   191  1.87572  239  -7.9  98    -8.2  6     0     997.8    NA       0.0000   9999     1180  0     0    
2019/06/30  17:23:00  BASE  0.50568  160  1.45236  251  -7.9  98    -8.2  6     0     997.8    NA       0.0000   9999     1150  0     0    
2019/06/30  17:24:00  BASE  0.18816  143  1.42296  193  -7.9  98    -8.2  6     0     997.8    NA       0.0000   9999     1180  0     0    
2019/06/30  17:25:01  BASE  0.07644  127  1.42296  193  -7.9  98    -8.2  6     0     997.8    NA       0.0000   9999     1210  0     0    
2019/06/30  17:26:00  BASE  0.07644  90   1.42296  193  -7.9  98    -8.2  5     0     997.8    NA       0.0000   9999     1210  0     0    
2019/06/30  17:27:00  BASE  0        67   1.42296  193  -7.9  98    -8.1  5     0     997.8    NA       0.0000   9999     1150  0     0    
2019/06/30  17:28:00  BASE  0        81   1.42296  193  -7.9  98    -8.1  5     0     997.8    NA       0.0000   9999     1150  0     0    
2019/06/30  17:29:00  BASE  0.21168  101  1.35828  194  -7.9  98    -8.1  5     0     997.8    NA       0.0000   9999     1210  0     0    
2019/06/30  17:30:00  BASE  0.32928  109  1.35828  194  -7.9  98    -8.1  5     0     997.8    NA       0.0000   9999     1120  0     0    
2019/06/30  17:31:00  BASE  0.49392  122  1.29948  130  -7.9  98    -8.2  5     0     997.8    NA       0.0000   9999     1120  0     0    
2019/06/30  17:32:00  BASE  0.78792  134  1.32888  130  -7.9  98    -8.2  5     0     997.8    NA       0.0000   9999     1080  0     0    
2019/06/30  17:33:00  BASE  0.94668  135  1.32888  130  -7.9  97    -8.2  5     0     997.7    NA       0.0000   9999     1120  0     0    
2019/06/30  17:34:00  BASE  1.04664  133  1.32888  130  -7.9  97    -8.3  4     0     997.7    NA       0.0000   9999     1120  0     0    
2019/06/30  17:35:00  BASE  1.06428  126  1.32888  130  -8.0  97    -8.3  4     0     997.7    NA       0.0000   9999     1120  0     0    
2019/06/30  17:36:00  BASE  1.08192  119  1.32888  130  -8.0  97    -8.4  4     0     997.6    NA       0.0000   9999     1120  0     0    
2019/06/30  17:37:00  BASE  0.94668  119  1.32888  130  -8.0  97    -8.4  4     0     997.6    NA       0.0000   9999     1080  0     0    
2019/06/30  17:38:00  BASE  0.86436  121  1.32888  130  -8.0  97    -8.4  4     0     997.6    NA       0.0000   9999     1080  0     0    
2019/06/30  17:39:00  BASE  0.7056   123  1.32888  130  -8.0  97    -8.4  4     0     997.6    NA       0.0000   9999     1080  0     0    
2019/06/30  17:40:00  BASE  0.31164  121  1.32888  130  -8.0  97    -8.4  4     0     997.6    NA       0.0000   9999     1080  0     0    
2019/06/30  17:41:00  BASE  0.4704   115  1.32888  130  -8.0  97    -8.3  4     0     997.6    NA       0.0000   9999     1050  0     0    
2019/06/30  17:42:00  BASE  0.7938   111  1.24068  126  -8.0  97    -8.3  4     0     997.6    NA       0.0000   9999     1050  0     0    
2019/06/30  17:43:00  BASE  0.9702   114  1.48176  116  -8.0  97    -8.3  4     0     997.6    NA       0.0000   9999     1020  0     0    
2019/06/30  17:44:00  BASE  1.21716  118  1.48176  116  -8.0  97    -8.3  4     0     997.6    NA       0.0000   9999     950   0     0    
2019/06/30  17:45:00  BASE  1.16424  119  1.48176  116  -8.0  97    -8.3  4     0     997.6    NA       0.0000   9999     980   0     0    
2019/06/30  17:46:00  BASE  1.01724  122  1.48176  116  -7.9  97    -8.3  4     0     997.6    NA       0.0000   9999     1020  0     0    
2019/06/30  17:47:00  BASE  0.882    125  1.48176  116  -7.9  97    -8.3  4     0     997.5    NA       0.0000   9999     1050  0     0    
2019/06/30  17:48:00  BASE  0.75264  110  1.48176  116  -7.9  97    -8.3  3     0     997.5    NA       0.0000   9999     920   0     0    
2019/06/30  17:49:00  BASE  0.6762   83   1.48176  116  -7.9  97    -8.3  3     0     997.5    NA       0.0000   9999     950   0     0    
2019/06/30  17:50:00  BASE  0.62328  68   1.48176  116  -7.9  97    -8.3  3     0     997.5    NA       0.0000   9999     950   0     0    
2019/06/30  17:51:00  BASE  0.48804  55   1.48176  116  -7.9  97    -8.2  3     0     997.5    NA       0.0000   9999     950   0     0    
2019/06/30  17:52:00  BASE  0.61152  50   1.48176  116  -7.9  98    -8.2  3     0     997.5    NA       0.0000   9999     1050  0     0    
2019/06/30  17:53:00  BASE  1.22892  35   2.75184  7    -7.9  98    -8.2  3     0     997.5    NA       0.0000   9999     1050  0     0    
2019/06/30  17:54:00  BASE  2.59896  17   5.2626   31   -7.9  98    -8.1  3     0     997.5    NA       0.0000   9999     1080  0     0    
2019/06/30  17:55:00  BASE  3.98076  24   5.2626   31   -7.9  98    -8.1  3     0     997.5    NA       0.0000   9999     1080  0     0    
2019/06/30  17:56:00  BASE  4.3512   29   5.2626   31   -7.9  98    -8.2  3     0     997.5    NA       0.0000   9999     1120  0     0    
2019/06/30  17:57:00  BASE  4.66872  25   6.02112  16   -7.9  98    -8.2  3     0     997.5    NA       0.0000   9999     1020  0     0    
2019/06/30  17:58:00  BASE  4.76868  21   6.02112  16   -7.9  98    -8.2  3     0     997.5    NA       0.0000   9999     1050  0     0    
2019/06/30  17:59:00  BASE  4.96272  21   6.05052  25   -7.9  98    -8.2  3     0     997.4    NA       0.0000   9999     1080  0     0    
2019/06/30  18:00:00  BASE  5.18028  26   6.05052  25   -7.9  98    -8.2  3     0     997.5    NA       0.0000   9999     1020  0     0    
2019/06/30  18:01:00  BASE  5.5566   25   6.321    25   -7.9  98    -8.2  3     0     997.4    NA       0.0000   9999     1020  0     0    
2019/06/30  18:02:00  BASE  6.25044  21   6.86784  13   -8.0  98    -8.2  3     0     997.4    NA       0.0000   9999     1020  0     0    
2019/06/30  18:03:00  BASE  6.05052  21   6.86784  13   -8.0  98    -8.2  3     0     997.5    NA       0.0000   9999     1020  0     0    
2019/06/30  18:04:00  BASE  5.7918   21   6.86784  13   -8.0  98    -8.3  3     0     997.4    NA       0.0000   9999     950   0     0    
2019/06/30  18:05:00  BASE  5.57424  21   6.86784  13   -8.1  99    -8.3  3     0     997.5    NA       0.0000   9999     950   0     0    
2019/06/30  18:06:00  BASE  5.02152  22   6.86784  13   -8.1  99    -8.3  2     0     997.4    NA       0.0000   9999     980   0     0    
2019/06/30  18:07:00  BASE  5.23908  20   6.86784  13   -8.1  99    -8.2  2     0     997.4    NA       0.0000   9999     980   0     0    
2019/06/30  18:08:00  BASE  5.70948  17   6.86784  13   -8.1  99    -8.2  2     0     997.3    NA       0.0000   9999     980   0     0    
2019/06/30  18:09:00  BASE  5.77416  18   6.86784  13   -8.1  99    -8.2  2     0     997.3    NA       0.0000   9999     1050  0     0    
2019/06/30  18:10:00  BASE  5.69184  23   6.86784  13   -8.0  99    -8.2  2     0     997.3    NA       0.0000   9999     1050  0     0    
2019/06/30  18:11:00  BASE  5.60952  26   6.86784  13   -8.0  99    -8.2  2     0     997.3    NA       0.0000   9999     1020  0     0    
2019/06/30  18:12:00  BASE  5.66832  28   6.3798   15   -8.0  99    -8.1  2     0     997.3    NA       0.0000   9999     1120  0     0    
2019/06/30  18:13:00  BASE  5.78004  27   6.3798   15   -8.1  99    -8.2  2     0     997.3    NA       0.0000   9999     1080  0     0    
2019/06/30  18:14:00  BASE  6.18576  27   6.92664  32   -8.1  100   -8.2  2     0     997.3    NA       0.0000   9999     1080  0     0    
2019/06/30  18:15:00  BASE  6.12696  28   6.92664  32   -8.2  100   -8.2  2     0     997.3    NA       0.0000   9999     1080  0     0    
2019/06/30  18:16:00  BASE  5.4978   25   6.92664  32   -8.2  100   -8.2  2     0     997.3    NA       0.0000   9999     1080  0     0    
2019/06/30  18:17:00  BASE  5.45076  25   6.92664  32   -8.2  100   -8.2  2     0     997.3    NA       0.0000   9999     1080  0     0    
2019/06/30  18:18:00  BASE  5.53308  25   6.92664  32   -8.2  100   -8.2  2     0     997.3    NA       0.0000   9999     1020  0     0    
2019/06/30  18:19:00  BASE  5.30964  21   6.92664  32   -8.2  100   -8.2  2     0     997.3    NA       0.0000   9999     1020  0     0    
2019/06/30  18:20:00  BASE  5.33904  20   6.92664  32   -8.2  100   -8.2  2     0     997.3    NA       0.0000   9999     1080  0     0    
2019/06/30  18:21:00  BASE  5.60364  20   6.92664  32   -8.1  100   -8.1  2     0     997.3    NA       0.0000   9999     1080  0     0    
2019/06/30  18:22:00  BASE  5.6448   23   6.92664  32   -8.1  100   -8.1  2     0     997.3    NA       0.0000   9999     980   0     0    
2019/06/30  18:23:00  BASE  5.7624   26   6.92664  32   -8.1  100   -8.1  1     0     997.3    NA       0.0000   9999     950   0     0    
2019/06/30  18:24:00  BASE  6.09756  27   6.65616  23   -8.1  100   -8.1  1     0     997.3    NA       0.0000   9999     920   0     0    
2019/06/30  18:25:00  BASE  5.97996  28   6.65616  23   -8.1  100   -8.1  1     0     997.3    NA       0.0000   9999     980   0     0    
2019/06/30  18:26:00  BASE  5.60364  27   6.65616  23   -8.2  100   -8.2  1     0     997.3    NA       0.0000   9999     1080  0     0    
2019/06/30  18:27:00  BASE  5.15676  23   6.65616  23   -8.2  100   -8.2  1     0     997.3    NA       0.0000   9999     1080  0     0    
2019/06/30  18:28:00  BASE  4.96272  22   6.65616  23   -8.2  100   -8.2  1     0     997.3    NA       0.0000   9999     980   0     0    
2019/06/30  18:29:00  BASE  5.0862   22   6.65616  23   -8.2  100   -8.2  1     0     997.4    NA       0.0000   9999     980   0     0    
2019/06/30  18:30:00  BASE  5.42136  22   6.65616  23   -8.1  100   -8.1  1     0     997.3    NA       0.0000   9999     1080  0     0    
2019/06/30  18:31:00  BASE  5.68596  24   6.65616  23   -8.1  100   -8.1  1     0     997.3    NA       0.0000   9999     1050  0     0    
2019/06/30  18:32:00  BASE  5.7624   25   6.65616  23   -8.1  100   -8.1  1     0     997.3    NA       0.0000   9999     1050  0     0    
2019/06/30  18:33:00  BASE  6.01524  27   6.68556  25   -8.1  100   -8.1  1     0     997.3    NA       0.0000   9999     1050  0     0    
2019/06/30  18:34:00  BASE  5.9388   29   6.68556  25   -8.2  100   -8.2  1     0     997.4    NA       0.0000   9999     980   0     0    
2019/06/30  18:35:00  BASE  5.9976   30   6.71496  30   -8.3  100   -8.3  1     0     997.3    NA       0.0000   9999     1020  0     0    
2019/06/30  18:36:00  BASE  5.8212   32   6.71496  30   -8.3  100   -8.3  1     0     997.3    NA       0.0000   9999     1020  0     0    
2019/06/30  18:37:00  BASE  5.13912  31   6.71496  30   -8.3  100   -8.3  1     0     997.3    NA       0.0000   9999     1050  0     0    
2019/06/30  18:38:00  BASE  5.13324  32   6.71496  30   -8.3  100   -8.3  1     0     997.3    NA       0.0000   9999     1050  0     0    
2019/06/30  18:39:00  BASE  5.63304  31   6.71496  30   -8.3  100   -8.3  1     0     997.3    NA       0.0000   9999     1020  0     0    
2019/06/30  18:40:00  BASE  6.06816  28   6.71496  30   -8.3  100   -8.3  1     0     997.3    NA       0.0000   9999     1020  0     0    
2019/06/30  18:41:00  BASE  6.2916   30   6.83844  34   -8.3  100   -8.3  1     0     997.2    NA       0.0000   9999     1020  0     0    
2019/06/30  18:42:00  BASE  6.3504   34   7.07952  33   -8.3  100   -8.3  1     0     997.3    NA       0.0000   9999     950   0     0    
2019/06/30  18:43:00  BASE  5.89764  34   7.07952  33   -8.4  100   -8.4  1     0     997.3    NA       0.0000   9999     950   0     0    
2019/06/30  18:44:00  BASE  5.33316  33   7.07952  33   -8.4  100   -8.4  1     0     997.2    NA       0.0000   9999     890   0     0    
2019/06/30  18:45:00  BASE  5.20968  36   7.07952  33   -8.3  100   -8.3  1     0     997.2    NA       0.0000   9999     890   0     0    
2019/06/30  18:46:00  BASE  5.18616  40   7.07952  33   -8.3  100   -8.3  1     0     997.2    NA       0.0000   9999     920   0     0    
2019/06/30  18:47:00  BASE  4.58052  38   7.07952  33   -8.3  100   -8.3  1     0     997.2    NA       0.0000   9999     920   0     0    
2019/06/30  18:48:00  BASE  4.16304  26   7.07952  33   -8.3  100   -8.3  1     0     997.2    NA       0.0000   9999     980   0     0    
2019/06/30  18:49:00  BASE  4.13952  27   7.07952  33   -8.2  100   -8.2  1     0     997.2    NA       0.0000   9999     980   0     0    
2019/06/30  18:50:00  BASE  3.8808   31   7.07952  33   -8.2  100   -8.2  0     0     997.2    NA       0.0000   9999     980   0     0    
2019/06/30  18:51:00  BASE  3.81612  30   7.07952  33   -8.2  100   -8.2  0     0     997.2    NA       0.0000   9999     1020  0     0    
2019/06/30  18:52:00  BASE  3.78672  31   6.2328   37   -8.1  100   -8.1  0     0     997.2    NA       0.0000   9999     980   0     0    
2019/06/30  18:53:00  BASE  3.71616  28   6.02112  40   -8.1  100   -8.1  0     0     997.2    NA       0.0000   9999     1020  0     0    
2019/06/30  18:54:00  BASE  3.53388  30   6.02112  40   -8.1  100   -8.1  0     0     997.2    NA       0.0000   9999     1050  0     0    
2019/06/30  18:55:00  BASE  3.6456   33   6.02112  40   -8.1  100   -8.1  0     0     997.2    NA       0.0000   9999     1080  0     0    
2019/06/30  18:56:00  BASE  4.16892  36   5.02152  29   -8.1  100   -8.1  0     0     997.2    NA       0.0000   9999     1050  0     0    
2019/06/30  18:57:00  BASE  4.42764  35   5.02152  29   -8.1  100   -8.1  0     0     997.2    NA       0.0000   9999     980   0     0    
2019/06/30  18:58:00  BASE  4.7628   34   5.74476  39   -8.1  100   -8.1  0     0     997.2    NA       0.0000   9999     1020  0     0    
2019/06/30  18:59:00  BASE  5.25084  34   6.13872  35   -8.1  100   -8.1  0     0     997.2    NA       0.0000   9999     1050  0     0    
2019/06/30  19:00:00  BASE  5.3508   33   6.13872  35   -8.1  100   -8.1  0     0     997.2    NA       0.0000   9999     1050  0     0    
2019/06/30  19:01:00  BASE  5.23908  34   6.13872  35   -8.2  100   -8.2  0     0     997.2    NA       0.0000   9999     1020  0     0    
2019/06/30  19:02:00  BASE  4.704    37   6.13872  35   -8.2  100   -8.2  0     0     997.2    NA       0.0000   9999     1020  0     0    
2019/06/30  19:03:00  BASE  4.56288  39   6.13872  35   -8.2  100   -8.2  0     0     997.2    NA       0.0000   9999     980   0     0    
2019/06/30  19:04:00  BASE  5.10972  36   6.13872  35   -8.3  100   -8.3  0     0     997.2    NA       0.0000   9999     1050  0     0    
2019/06/30  19:05:00  BASE  5.28024  36   6.13872  35   -8.3  100   -8.3  0     0     997.1    NA       0.0000   9999     950   0     0    
2019/06/30  19:06:00  BASE  5.1744   39   6.13872  35   -8.3  100   -8.3  0     0     997.2    NA       0.0000   9999     950   0     0    
2019/06/30  19:07:00  BASE  5.41548  41   6.13872  35   -8.3  100   -8.3  0     0     997.1    NA       0.0000   9999     950   0     0    
2019/06/30  19:08:00  BASE  5.60952  40   6.13872  35   -8.4  100   -8.4  0     0     997.1    NA       0.0000   9999     950   0     0    
2019/06/30  19:09:00  BASE  5.3214   42   5.95644  37   -8.4  100   -8.4  0     0     997.1    NA       0.0000   9999     950   0     0    
2019/06/30  19:10:00  BASE  4.97448  43   5.95644  37   -8.4  100   -8.4  0     0     997.1    NA       0.0000   9999     980   0     0    
2019/06/30  19:11:00  BASE  4.68048  43   5.95644  37   -8.4  100   -8.4  0     0     997.1    NA       0.0000   9999     980   0     0    
2019/06/30  19:12:00  BASE  4.24536  44   5.95644  37   -8.4  100   -8.4  0     0     997.1    NA       0.0000   9999     950   0     0    
2019/06/30  19:13:00  BASE  4.13952  45   5.95644  37   -8.4  100   -8.4  0     0     997.2    NA       0.0000   9999     980   0     0    
2019/06/30  19:14:00  BASE  4.0572   44   5.95644  37   -8.4  100   -8.4  0     0     997.2    NA       0.0000   9999     1020  0     0    
2019/06/30  19:15:00  BASE  3.45744  42   5.95644  37   -8.4  100   -8.4  0     0     997.2    NA       0.0000   9999     1050  0     0    
2019/06/30  19:16:00  BASE  2.8812   43   5.95644  37   -8.4  100   -8.4  0     0     997.2    NA       0.0000   9999     980   0     0    
2019/06/30  19:17:00  BASE  2.5284   40   5.95644  37   -8.4  100   -8.4  0     0     997.2    NA       0.0000   9999     950   0     0    
2019/06/30  19:18:00  BASE  2.48724  37   5.47428  43   -8.4  100   -8.4  0     0     997.2    NA       0.0000   9999     950   0     0    
2019/06/30  19:19:00  BASE  2.66952  42   5.02152  42   -8.4  100   -8.4  0     0     997.2    NA       0.0000   9999     920   0     0    
2019/06/30  19:20:00  BASE  2.81064  41   4.86864  43   -8.3  100   -8.3  0     0     997.2    NA       0.0000   9999     980   0     0    
2019/06/30  19:21:00  BASE  2.75772  43   4.68636  43   -8.3  100   -8.3  0     0     997.2    NA       0.0000   9999     950   0     0    
2019/06/30  19:22:00  BASE  2.66364  43   4.68636  43   -8.3  100   -8.3  0     0     997.2    NA       0.0000   9999     950   0     0    
2019/06/30  19:23:00  BASE  2.9694   39   4.2042   34   -8.2  100   -8.2  0     0     997.2    NA       0.0000   9999     950   0     0    
2019/06/30  19:24:00  BASE  3.19284  40   3.72204  39   -8.2  100   -8.2  0     0     997.2    NA       0.0000   9999     950   0     0    
2019/06/30  19:25:00  BASE  3.40452  37   4.263    32   -8.2  100   -8.2  0     0     997.2    NA       0.0000   9999     850   0     0    
2019/06/30  19:26:00  BASE  3.83964  35   4.41588  41   -8.2  100   -8.2  0     0     997.2    NA       0.0000   9999     850   0     0    
2019/06/30  19:27:00  BASE  3.59268  39   4.41588  41   -8.2  100   -8.2  0     0     997.2    NA       0.0000   9999     890   0     0    
2019/06/30  19:28:00  BASE  3.22224  43   4.41588  41   -8.2  100   -8.2  0     0     997.2    NA       0.0000   9999     820   0     0    
2019/06/30  19:29:00  BASE  2.89884  46   4.41588  41   -8.2  100   -8.2  0     0     997.2    NA       0.0000   9999     820   0     0    
2019/06/30  19:30:00  BASE  2.83416  50   4.41588  41   -8.2  100   -8.2  0     0     997.2    NA       0.0000   9999     820   0     0    
2019/06/30  19:31:00  BASE  3.0576   43   4.41588  41   -8.2  100   -8.2  0     0     997.2    NA       0.0000   9999     920   0     0    
2019/06/30  19:32:00  BASE  2.91648  36   4.41588  41   -8.2  100   -8.2  0     0     997.2    NA       0.0000   9999     850   0     0    
2019/06/30  19:33:00  BASE  2.60484  42   4.41588  41   -8.2  100   -8.2  0     0     997.2    NA       0.0000   9999     890   0     0    
2019/06/30  19:34:00  BASE  1.71696  51   4.41588  41   -8.2  100   -8.2  0     0     997.2    NA       0.0000   9999     890   0     0    
2019/06/30  19:35:00  BASE  1.01724  57   4.41588  41   -8.2  100   -8.2  0     0     997.2    NA       0.0000   9999     890   0     0    
2019/06/30  19:36:00  BASE  0.60564  66   3.78084  38   -8.2  100   -8.2  0     0     997.2    NA       0.0000   9999     820   0     0    
2019/06/30  19:37:00  BASE  0.0882   91   3.78084  38   -8.2  100   -8.2  0     0     997.2    NA       0.0000   9999     850   0     0    
2019/06/30  19:38:00  BASE  0.24696  70   3.78084  38   -8.2  100   -8.2  0     0     997.2    NA       0.0000   9999     890   0     0    
2019/06/30  19:39:00  BASE  0.44688  7    3.78084  38   -8.2  100   -8.2  0     0     997.2    NA       0.0000   9999     850   0     0    
2019/06/30  19:40:00  BASE  0.22932  2    3.78084  38   -8.2  100   -8.2  0     0     997.2    NA       0.0000   9999     920   0     0    
2019/06/30  19:41:00  BASE  1.07016  32   3.1458   44   -8.1  100   -8.1  0     0     997.1    NA       0.0000   9999     920   0     0    
2019/06/30  19:42:00  BASE  2.39904  49   2.99292  52   -8.1  100   -8.1  0     0     997.1    NA       0.0000   9999     920   0     0    
2019/06/30  19:43:00  BASE  2.37552  44   2.99292  52   -8.1  100   -8.1  0     0     997.1    NA       0.0000   9999     890   0     0    
2019/06/30  19:44:00  BASE  1.50528  24   2.99292  52   -8.1  100   -8.1  0     0     997.1    NA       0.0000   9999     890   0     0    
2019/06/30  19:45:00  BASE  1.04076  51   2.99292  52   -8.1  100   -8.1  0     0     997.1    NA       0.0000   9999     920   0     0    
2019/06/30  19:46:00  BASE  1.43472  75   2.99292  52   -8.1  100   -8.1  0     0     997.1    NA       0.0000   9999     920   0     0    
2019/06/30  19:47:00  BASE  2.02272  64   2.99292  52   -8.1  100   -8.1  0     0     997.1    NA       0.0000   9999     980   0     0    
2019/06/30  19:48:00  BASE  2.1168   70   2.99292  52   -8.1  100   -8.1  0     0     997.1    NA       0.0000   9999     1020  0     0    
2019/06/30  19:49:00  BASE  1.99332  67   2.99292  52   -8.1  100   -8.1  0     0     997.1    NA       0.0000   9999     980   0     0    
2019/06/30  19:50:00  BASE  2.1462   67   2.99292  52   -8.1  100   -8.1  0     0     997.1    NA       0.0000   9999     920   0     0    
2019/06/30  19:51:00  BASE  2.4108   74   2.99292  52   -8.1  100   -8.1  0     0     997.2    NA       0.0000   9999     890   0     0    
2019/06/30  19:52:00  BASE  2.28732  68   2.87532  71   -8.1  100   -8.1  0     0     997.2    NA       0.0000   9999     850   0     0    
2019/06/30  19:53:00  BASE  1.9404   56   2.87532  71   -8.1  100   -8.1  0     0     997.2    NA       0.0000   9999     920   0     0    
2019/06/30  19:54:00  BASE  1.91688  62   2.87532  71   -8.1  100   -8.1  0     0     997.2    NA       0.0000   9999     890   0     0    
2019/06/30  19:55:00  BASE  2.21676  78   2.87532  71   -8.1  100   -8.1  0     0     997.2    NA       0.0000   9999     850   0     0    
2019/06/30  19:56:00  BASE  2.15208  86   2.87532  71   -8.2  100   -8.2  0     0     997.2    NA       0.0000   9999     890   0     0    
2019/06/30  19:57:00  BASE  1.74048  80   2.87532  71   -8.2  100   -8.2  0     0     997.2    NA       0.0000   9999     850   0     0    
2019/06/30  19:58:00  BASE  1.77576  75   2.87532  71   -8.2  100   -8.2  0     0     997.2    NA       0.0000   9999     890   0     0    
2019/06/30  19:59:00  BASE  2.0286   88   2.87532  71   -8.2  100   -8.2  0     0     997.2    NA       0.0000   9999     890   0     0    
2019/06/30  20:00:00  BASE  1.72872  102  2.87532  71   -8.2  100   -8.2  0     0     997.2    NA       0.0000   9999     920   0     0    
2019/06/30  20:01:00  BASE  1.59936  94   2.84592  78   -8.2  100   -8.2  0     0     997.2    NA       0.0000   9999     920   0     0    
2019/06/30  20:02:00  BASE  1.78752  83   2.84592  78   -8.2  100   -8.2  0     0     997.2    NA       0.0000   9999     920   0     0    
2019/06/30  20:03:00  BASE  1.51704  85   2.84592  78   -8.2  100   -8.2  0     0     997.2    NA       0.0000   9999     950   0     0    
2019/06/30  20:04:00  BASE  1.4406   78   2.84592  78   -8.2  100   -8.2  0     0     997.2    NA       0.0000   9999     950   0     0    
2019/06/30  20:05:00  BASE  1.75812  60   2.66364  96   -8.2  100   -8.2  0     0     997.2    NA       0.0000   9999     980   0     0    
2019/06/30  20:06:00  BASE  1.94628  56   2.66364  96   -8.2  100   -8.2  0     0     997.2    NA       0.0000   9999     980   0     0    
2019/06/30  20:07:00  BASE  1.77576  53   2.66364  96   -8.2  100   -8.2  0     0     997.1    NA       0.0000   9999     950   0     0    
2019/06/30  20:08:00  BASE  1.68168  47   2.66364  96   -8.1  100   -8.1  0     0     997.1    NA       0.0000   9999     950   0     0    
2019/06/30  20:09:00  BASE  1.68168  45   2.63424  37   -8.1  100   -8.1  0     0     997.1    NA       0.0000   9999     920   0     0    
2019/06/30  20:10:01  BASE  1.69344  43   2.63424  37   -8.1  100   -8.1  0     0     997.0    NA       0.0000   9999     920   0     0    
2019/06/30  20:11:00  BASE  2.01096  45   2.63424  37   -8.1  100   -8.1  0     0     997.0    NA       0.0000   9999     950   0     0    
2019/06/30  20:12:00  BASE  2.45784  41   2.87532  28   -8.1  100   -8.1  0     0     997.0    NA       0.0000   9999     950   0     0    
2019/06/30  20:13:00  BASE  2.53428  35   2.87532  28   -8.1  100   -8.1  0     0     997.0    NA       0.0000   9999     950   0     0    
2019/06/30  20:14:00  BASE  2.34024  39   2.87532  28   -8.2  100   -8.2  0     0     997.0    NA       0.0000   9999     950   0     0    
2019/06/30  20:15:00  BASE  2.16972  39   2.87532  28   -8.2  100   -8.2  0     0     997.0    NA       0.0000   9999     920   0     0    
2019/06/30  20:16:00  BASE  1.9404   41   2.87532  28   -8.2  100   -8.2  0     0     997.0    NA       0.0000   9999     950   0     0    
2019/06/30  20:17:00  BASE  1.58172  43   2.87532  28   -8.2  100   -8.2  0     0     997.0    NA       0.0000   9999     950   0     0    
2019/06/30  20:18:00  BASE  1.617    36   2.87532  28   -8.2  100   -8.2  0     0     997.0    NA       0.0000   9999     980   0     0    
2019/06/30  20:19:00  BASE  1.85808  38   2.87532  28   -8.2  100   -8.2  0     0     997.0    NA       0.0000   9999     980   0     0    
2019/06/30  20:20:00  BASE  1.75224  48   2.87532  28   -8.2  100   -8.2  0     0     997.0    NA       0.0000   9999     980   0     0    
2019/06/30  20:21:00  BASE  2.06388  50   3.1458   44   -8.2  100   -8.2  0     0     997.0    NA       0.0000   9999     980   0     0    
2019/06/30  20:22:00  BASE  2.56956  41   3.1458   44   -8.2  100   -8.2  0     0     997.0    NA       0.0000   9999     980   0     0    
2019/06/30  20:23:00  BASE  2.84592  39   3.234    38   -8.3  100   -8.3  0     0     997.0    NA       0.0000   9999     950   0     0    
2019/06/30  20:24:00  BASE  3.0282   42   3.234    38   -8.3  100   -8.3  0     0     997.0    NA       0.0000   9999     920   0     0    
2019/06/30  20:25:00  BASE  3.087    45   3.62796  39   -8.3  100   -8.3  0     0     997.0    NA       0.0000   9999     920   0     0    
2019/06/30  20:26:00  BASE  3.27516  46   3.86904  44   -8.4  100   -8.4  0     0     997.0    NA       0.0000   9999     950   0     0    
2019/06/30  20:27:00  BASE  3.42804  44   3.86904  44   -8.4  100   -8.4  0     0     997.0    NA       0.0000   9999     950   0     0    
2019/06/30  20:28:00  BASE  3.27516  48   3.86904  44   -8.5  100   -8.5  0     0     997.1    NA       0.0000   9999     950   0     0    
2019/06/30  20:29:00  BASE  3.2046   55   3.86904  44   -8.5  100   -8.5  0     0     997.1    NA       0.0000   9999     950   0     0    
2019/06/30  20:30:00  BASE  3.04584  55   3.86904  44   -8.6  100   -8.6  0     0     997.1    NA       0.0000   9999     950   0     0    
2019/06/30  20:31:00  BASE  2.8518   53   3.86904  44   -8.6  100   -8.6  0     0     997.1    NA       0.0000   9999     920   0     0    
2019/06/30  20:32:00  BASE  2.80476  51   3.86904  44   -8.7  100   -8.7  0     0     997.1    NA       0.0000   9999     920   0     0    
2019/06/30  20:33:00  BASE  2.64012  50   3.86904  44   -8.7  100   -8.7  0     0     997.1    NA       0.0000   9999     920   0     0    
2019/06/30  20:34:00  BASE  2.4696   55   3.86904  44   -8.7  100   -8.7  0     0     997.1    NA       0.0000   9999     920   0     0    
2019/06/30  20:35:00  BASE  2.19324  54   3.86904  44   -8.7  100   -8.7  0     0     997.1    NA       0.0000   9999     950   0     0    
2019/06/30  20:36:00  BASE  1.9698   51   3.78084  42   -8.6  100   -8.6  0     0     997.1    NA       0.0000   9999     950   0     0    
2019/06/30  20:37:00  BASE  2.03448  48   3.48096  53   -8.6  100   -8.6  0     0     997.1    NA       0.0000   9999     920   0     0    
2019/06/30  20:38:00  BASE  2.28732  49   3.48096  53   -8.6  100   -8.6  0     0     997.1    NA       0.0000   9999     850   0     0    
2019/06/30  20:39:00  BASE  2.68128  43   3.78084  28   -8.5  100   -8.5  0     0     997.0    NA       0.0000   9999     850   0     0    
2019/06/30  20:40:00  BASE  3.24576  37   3.81024  48   -8.5  100   -8.5  0     0     997.0    NA       0.0000   9999     850   0     0    
2019/06/30  20:41:00  BASE  3.15168  45   3.81024  48   -8.5  100   -8.5  0     0     997.1    NA       0.0000   9999     820   0     0    
2019/06/30  20:42:00  BASE  2.49312  50   3.81024  48   -8.4  100   -8.4  0     0     997.1    NA       0.0000   9999     850   0     0    
2019/06/30  20:43:00  BASE  2.04036  46   3.81024  48   -8.4  100   -8.4  0     0     997.1    NA       0.0000   9999     850   0     0    
2019/06/30  20:44:00  BASE  2.34612  38   3.81024  48   -8.4  100   -8.4  0     0     997.0    NA       0.0000   9999     890   0     0    
2019/06/30  20:45:00  BASE  3.00468  31   3.81024  48   -8.4  100   -8.4  0     0     997.0    NA       0.0000   9999     920   0     0    
2019/06/30  20:46:00  BASE  2.95176  29   3.81024  48   -8.4  100   -8.4  0     0     997.1    NA       0.0000   9999     920   0     0    
2019/06/30  20:47:00  BASE  2.499    28   3.81024  48   -8.4  100   -8.4  0     0     997.1    NA       0.0000   9999     950   0     0    
2019/06/30  20:48:00  BASE  2.352    19   3.81024  48   -8.4  100   -8.4  0     0     997.1    NA       0.0000   9999     950   0     0    
2019/06/30  20:49:00  BASE  2.31084  16   3.81024  48   -8.4  100   -8.4  0     0     997.1    NA       0.0000   9999     920   0     0    
2019/06/30  20:50:00  BASE  2.39316  22   3.59856  27   -8.4  100   -8.4  0     0     997.1    NA       0.0000   9999     920   0     0    
2019/06/30  20:51:00  BASE  2.65776  21   3.59856  27   -8.4  100   -8.4  0     0     997.1    NA       0.0000   9999     920   0     0    
2019/06/30  20:52:00  BASE  3.04584  19   3.86904  11   -8.4  100   -8.4  0     0     997.1    NA       0.0000   9999     950   0     0    
2019/06/30  20:53:00  BASE  3.59856  17   4.35708  20   -8.4  100   -8.4  0     0     997.1    NA       0.0000   9999     950   0     0    
2019/06/30  20:54:00  BASE  3.969    20   5.02152  20   -8.4  100   -8.4  0     0     997.1    NA       0.0000   9999     950   0     0    
2019/06/30  20:55:00  BASE  4.28064  21   5.02152  20   -8.4  100   -8.4  0     0     997.1    NA       0.0000   9999     950   0     0    
2019/06/30  20:56:00  BASE  4.3218   19   5.02152  20   -8.5  100   -8.5  0     0     997.1    NA       0.0000   9999     920   0     0    
2019/06/30  20:57:00  BASE  4.2042   17   5.02152  20   -8.5  100   -8.5  0     0     997.1    NA       0.0000   9999     920   0     0    
2019/06/30  20:58:00  BASE  4.08072  17   5.02152  20   -8.5  100   -8.5  0     0     997.1    NA       0.0000   9999     920   0     0    
2019/06/30  20:59:00  BASE  3.72204  22   5.02152  20   -8.5  100   -8.5  0     0     997.1    NA       0.0000   9999     950   0     0    
2019/06/30  21:00:00  BASE  3.30456  24   5.02152  20   -8.6  100   -8.6  0     0     997.2    NA       0.0000   9999     920   0     0    
2019/06/30  21:01:00  BASE  3.48096  19   5.02152  20   -8.5  100   -8.5  0     0     997.1    NA       0.0000   9999     890   0     0    
2019/06/30  21:02:00  BASE  4.19832  22   5.145    28   -8.6  100   -8.6  0     0     997.1    NA       0.0000   9999     920   0     0    
2019/06/30  21:03:00  BASE  4.45704  26   5.145    28   -8.6  100   -8.6  0     0     997.1    NA       0.0000   9999     890   0     0    
2019/06/30  21:04:00  BASE  4.12776  18   5.145    28   -8.6  100   -8.6  0     0     997.1    NA       0.0000   9999     820   0     0    
2019/06/30  21:05:00  BASE  3.83964  18   5.145    28   -8.6  100   -8.6  0     0     997.2    NA       0.0000   9999     820   0     0    
2019/06/30  21:06:00  BASE  3.8808   23   5.145    28   -8.6  100   -8.6  0     0     997.2    NA       0.0000   9999     850   0     0    
2019/06/30  21:07:00  BASE  4.13952  20   5.145    28   -8.6  100   -8.6  0     0     997.2    NA       0.0000   9999     850   0     0    
2019/06/30  21:08:00  BASE  4.4982   16   5.145    28   -8.6  100   -8.6  0     0     997.2    NA       0.0000   9999     920   0     0    
2019/06/30  21:09:00  BASE  4.68048  18   5.145    28   -8.6  100   -8.6  0     0     997.2    NA       0.0000   9999     890   0     0    
2019/06/30  21:10:00  BASE  4.5864   21   5.145    28   -8.6  100   -8.6  0     0     997.2    NA       0.0000   9999     850   0     0    
2019/06/30  21:11:00  BASE  4.77456  21   5.38608  23   -8.7  100   -8.7  0     0     997.2    NA       0.0000   9999     920   0     0    
2019/06/30  21:12:00  BASE  5.0568   21   6.2034   22   -8.7  100   -8.7  0     0     997.2    NA       0.0000   9999     890   0     0    
2019/06/30  21:13:00  BASE  5.74476  23   6.86784  24   -8.8  100   -8.8  0     0     997.1    NA       0.0000   9999     890   0     0    
2019/06/30  21:14:00  BASE  6.48564  23   7.07952  17   -8.8  100   -8.8  0     0     997.1    NA       0.0000   9999     890   0     0    
2019/06/30  21:15:00  BASE  6.6444   18   7.3206   15   -8.8  100   -8.8  0     0     997.1    NA       0.0000   9999     890   0     0    
2019/06/30  21:16:00  BASE  6.60324  17   7.3206   15   -8.8  100   -8.8  0     0     997.1    NA       0.0000   9999     850   0     0    
2019/06/30  21:17:00  BASE  6.762    19   7.44408  22   -8.9  100   -8.9  0     0     997.0    NA       0.0000   9999     790   0     0    
2019/06/30  21:18:00  BASE  6.92076  20   7.44408  22   -8.9  100   -8.9  0     0     997.0    NA       0.0000   9999     850   0     0    
2019/06/30  21:19:00  BASE  6.78552  20   7.44408  22   -8.8  100   -8.8  0     0     997.0    NA       0.0000   9999     890   0     0    
2019/06/30  21:20:00  BASE  6.75612  20   7.44408  22   -8.9  100   -8.9  0     0     997.0    NA       0.0000   9999     890   0     0    
2019/06/30  21:21:00  BASE  6.909    15   7.44408  22   -8.9  100   -8.9  0     0     997.0    NA       0.0000   9999     850   0     0    
2019/06/30  21:22:00  BASE  7.0266   15   7.44408  20   -8.9  100   -8.9  0     0     997.1    NA       0.0000   9999     820   0     0    
2019/06/30  21:23:00  BASE  6.69144  16   7.53228  17   -8.8  100   -8.8  0     0     997.0    NA       0.0000   9999     790   0     0    
2019/06/30  21:24:00  BASE  6.7914   14   7.56168  17   -8.8  100   -8.8  0     0     997.0    NA       0.0000   9999     890   0     0    
2019/06/30  21:25:00  BASE  7.29708  13   8.13792  18   -8.8  100   -8.8  0     0     997.0    NA       0.0000   9999     890   0     0    
2019/06/30  21:26:00  BASE  7.63224  13   8.4672   10   -8.8  100   -8.8  0     0     997.0    NA       0.0000   9999     890   0     0    
2019/06/30  21:27:00  BASE  7.97328  13   8.59068  10   -8.8  100   -8.8  0     0     996.9    NA       0.0000   9999     980   0     0    
2019/06/30  21:28:00  BASE  8.24964  13   9.04344  11   -8.8  100   -8.8  0     0     996.9    NA       0.0000   9999     950   0     0    
2019/06/30  21:29:00  BASE  8.36724  13   9.04344  11   -8.8  100   -8.8  0     0     996.9    NA       0.0000   9999     890   0     0    
2019/06/30  21:30:00  BASE  8.36136  11   9.04344  11   -8.8  100   -8.8  0     0     996.9    NA       0.0000   9999     820   0     0    
2019/06/30  21:31:00  BASE  8.19672  10   9.04344  11   -8.8  100   -8.8  0     0     996.9    NA       0.0000   9999     850   0     0    
2019/06/30  21:32:00  BASE  7.86744  9    9.04344  11   -8.8  100   -8.8  0     0     996.9    NA       0.0000   9999     690   0     0    
2019/06/30  21:33:00  BASE  7.86744  7    9.04344  11   -8.8  100   -8.8  0     0     996.9    NA       0.0000   9999     820   0     0    
2019/06/30  21:34:00  BASE  8.12616  8    9.04344  6    -8.8  100   -8.8  0     0     996.8    NA       0.0000   9999     850   0     0    
2019/06/30  21:35:00  BASE  7.56168  11   9.04344  6    -8.8  100   -8.8  0     0     997.0    NA       0.0000   9999     920   0     0    
2019/06/30  21:36:00  BASE  7.38528  14   9.04344  6    -8.8  100   -8.8  0     0     996.9    NA       0.0000   9999     950   0     0    
2019/06/30  21:37:00  BASE  8.40252  16   9.3492   20   -8.9  100   -8.9  0     0     996.8    NA       0.0000   9999     890   0     0    
2019/06/30  21:38:00  BASE  8.4672   18   9.3492   20   -9.0  100   -9.0  0     0     996.9    NA       0.0000   9999     820   0     0    
2019/06/30  21:39:00  BASE  8.06148  15   9.3492   20   -9.2  100   -9.2  0     0     996.9    NA       0.0000   9999     920   0     0    
2019/06/30  21:40:00  BASE  8.085    11   9.3492   20   -9.2  100   -9.2  0     0     996.8    NA       0.0000   9999     950   0     0    
2019/06/30  21:41:00  BASE  7.84392  9    9.3492   20   -9.2  100   -9.2  0     0     996.9    NA       0.0000   9999     980   0     0    
2019/06/30  21:42:00  BASE  7.80276  11   9.3492   20   -9.1  100   -9.1  0     0     996.9    NA       0.0000   9999     950   0     0    
2019/06/30  21:43:00  BASE  7.73808  13   9.3492   20   -9.0  100   -9.0  0     0     997.0    NA       0.0000   9999     980   0     0    
2019/06/30  21:44:00  BASE  7.62048  13   9.3492   20   -9.0  100   -9.0  0     0     996.9    NA       0.0000   9999     920   0     0    
2019/06/30  21:45:00  BASE  7.72632  11   9.3492   20   -9.1  100   -9.1  0     0     997.0    NA       0.0000   9999     1050  0     0    
2019/06/30  21:46:00  BASE  7.59696  11   9.3492   20   -9.1  100   -9.1  0     0     996.9    NA       0.0000   9999     980   0     0    
2019/06/30  21:47:00  BASE  7.4676   11   8.95524  6    -9.2  100   -9.2  0     0     996.9    NA       0.0000   9999     980   0     0    
2019/06/30  21:48:00  BASE  7.43232  10   8.95524  6    -9.2  100   -9.2  0     0     997.0    NA       0.0000   9999     980   0     0    
2019/06/30  21:49:00  BASE  7.00308  7    8.64948  3    -9.1  100   -9.1  0     0     997.0    NA       0.0000   9999     850   0     0    
2019/06/30  21:50:00  BASE  6.45624  9    8.4084   9    -9.1  100   -9.1  0     0     997.1    NA       0.0000   9999     950   0     0    
2019/06/30  21:51:00  BASE  6.36216  12   8.4084   9    -9.1  100   -9.1  0     0     997.0    NA       0.0000   9999     950   0     0    
2019/06/30  21:52:00  BASE  6.32688  12   8.4084   9    -9.1  100   -9.1  0     0     997.0    NA       0.0000   9999     950   0     0    
2019/06/30  21:53:00  BASE  6.29748  12   8.4084   9    -9.0  100   -9.0  0     0     997.0    NA       0.0000   9999     1020  0     0    
2019/06/30  21:54:00  BASE  6.321    13   8.4084   9    -9.1  100   -9.1  0     0     997.0    NA       0.0000   9999     1050  0     0    
2019/06/30  21:55:00  BASE  5.86824  15   8.07912  9    -9.1  100   -9.1  0     0     997.0    NA       0.0000   9999     1050  0     0    
2019/06/30  21:56:00  BASE  5.3802   16   7.98504  10   -9.1  100   -9.1  0     0     997.0    NA       0.0000   9999     1080  0     0    
2019/06/30  21:57:00  BASE  5.19792  13   7.77336  5    -9.1  100   -9.1  0     0     997.0    NA       0.0000   9999     1080  0     0    
2019/06/30  21:58:00  BASE  4.99212  10   7.16772  2    -9.2  100   -9.2  0     0     997.0    NA       0.0000   9999     1020  0     0    
2019/06/30  21:59:00  BASE  4.82748  3    7.16772  2    -9.2  100   -9.2  0     0     997.0    NA       0.0000   9999     950   0     0    
2019/06/30  22:00:00  BASE  4.96272  354  6.86784  4    -9.1  99    -9.2  0     0     997.0    NA       0.0000   9999     980   0     0    
2019/06/30  22:01:00  BASE  4.97448  348  6.80316  11   -9.1  99    -9.3  0     0     997.0    NA       0.0000   9999     330   1050  0    
2019/06/30  22:02:00  BASE  4.56288  346  6.80316  11   -9.1  99    -9.3  0     0     997.1    NA       0.0000   9999     300   0     0    
2019/06/30  22:03:00  BASE  4.95096  346  6.80316  11   -9.2  98    -9.4  0     0     997.0    NA       0.0000   9999     330   0     0    
2019/06/30  22:04:00  BASE  5.33316  347  6.3504   12   -9.2  98    -9.5  0     0     997.0    NA       0.0000   9999     300   0     0    
2019/06/30  22:05:00  BASE  5.82708  355  7.62048  2    -9.2  97    -9.6  0     0     997.0    NA       0.0000   9999     490   0     0    
2019/06/30  22:06:00  BASE  6.80904  6    7.62048  2    -9.3  97    -9.7  0     0     996.9    NA       0.0000   9999     360   0     0    
2019/06/30  22:07:00  BASE  6.83844  10   7.62048  2    -9.4  96    -9.8  0     0     996.9    NA       0.0000   9999     300   0     0    
2019/06/30  22:08:00  BASE  6.321    15   7.62048  2    -9.4  96    -9.9  0     0     997.0    NA       0.0000   9999     0     0     0    
2019/06/30  22:09:00  BASE  5.85648  18   7.62048  2    -9.4  96    -10.0 0     0     997.0    NA       0.0000   9999     0     0     0    
2019/06/30  22:10:00  BASE  5.40372  21   7.62048  2    -9.5  95    -10.1 0     0     997.0    NA       0.0000   9999     0     0     0    
2019/06/30  22:11:00  BASE  4.69812  23   7.62048  2    -9.5  94    -10.2 0     0     997.0    NA       0.0000   9999     0     0     0    
2019/06/30  22:12:00  BASE  4.01604  25   7.62048  2    -9.5  94    -10.3 0     0     997.0    NA       0.0000   9999     0     0     0    
2019/06/30  22:13:00  BASE  3.63384  25   7.62048  2    -9.5  93    -10.3 0     0     997.0    NA       0.0000   9999     0     0     0    
2019/06/30  22:14:00  BASE  3.34572  23   7.62048  2    -9.5  92    -10.5 0     0     997.0    NA       0.0000   9999     300   0     0    
2019/06/30  22:15:00  BASE  3.10464  24   7.3206   5    -9.5  92    -10.6 0     0     997.0    NA       0.0000   9999     330   0     0    
2019/06/30  22:16:00  BASE  3.12228  27   7.05012  6    -9.5  91    -10.7 0     0     997.0    NA       0.0000   9999     0     0     0    
2019/06/30  22:17:00  BASE  3.21048  26   6.53268  13   -9.5  91    -10.8 0     0     997.0    NA       0.0000   9999     0     0     0    
2019/06/30  22:18:00  BASE  3.2046   22   6.53268  13   -9.5  90    -10.9 0     0     996.9    NA       0.0000   9999     0     0     0    
2019/06/30  22:19:00  BASE  3.23988  24   5.35668  28   -9.5  89    -10.9 0     0     996.8    NA       0.0000   9999     0     0     0    
2019/06/30  22:20:00  BASE  3.22224  24   4.99212  20   -9.5  89    -11.0 0     0     996.9    NA       0.0000   9999     0     0     0    
2019/06/30  22:21:00  BASE  3.23988  22   4.1748   28   -9.5  88    -11.0 0     0     996.8    NA       0.0000   9999     0     0     0    
2019/06/30  22:22:00  BASE  3.66912  21   4.50996  19   -9.5  88    -11.1 0     0     996.9    NA       0.0000   9999     0     0     0    
2019/06/30  22:23:00  BASE  3.9396   23   4.50996  19   -9.5  87    -11.2 0     0     996.9    NA       0.0000   9999     0     0     0    
2019/06/30  22:24:00  BASE  3.49272  28   4.50996  19   -9.5  87    -11.3 0     0     996.9    NA       0.0000   9999     0     0     0    
2019/06/30  22:25:00  BASE  2.75772  31   4.50996  19   -9.6  87    -11.4 0     0     997.0    NA       0.0000   9999     0     0     0    
2019/06/30  22:26:00  BASE  1.95216  39   4.50996  19   -9.6  86    -11.5 0     0     997.0    NA       0.0000   9999     0     0     0    
2019/06/30  22:27:00  BASE  1.22304  35   4.50996  19   -9.6  86    -11.5 0     0     997.1    NA       0.0000   9999     0     0     0    
2019/06/30  22:28:00  BASE  1.24068  15   4.50996  19   -9.6  85    -11.6 0     0     997.1    NA       0.0000   9999     0     0     0    
2019/06/30  22:29:00  BASE  2.52252  45   4.80984  76   -9.6  85    -11.7 0     0     997.1    NA       0.0000   9999     0     0     0    
2019/06/30  22:30:00  BASE  3.71028  71   4.80984  76   -9.6  84    -11.9 0     0     997.0    NA       0.0000   9999     0     0     0    
2019/06/30  22:31:00  BASE  3.69852  77   4.80984  76   -9.7  83    -12.0 0     0     997.0    NA       0.0000   9999     0     0     0    
2019/06/30  22:32:00  BASE  4.42176  92   6.53268  87   -9.8  83    -12.2 0     0     997.0    NA       0.0000   9999     0     0     0    
2019/06/30  22:33:00  BASE  5.48016  94   6.53268  87   -10.0 82    -12.4 0     0     997.0    NA       0.0000   9999     0     0     0    
2019/06/30  22:34:00  BASE  5.22732  93   6.53268  87   -10.1 81    -12.7 0     0     997.0    NA       0.0000   9999     0     0     0    
2019/06/30  22:35:00  BASE  4.93332  98   6.53268  87   -10.1 81    -12.7 0     0     997.0    NA       0.0000   9999     0     0     0    
2019/06/30  22:36:00  BASE  4.46292  103  6.53268  87   -10.2 81    -12.8 0     0     997.0    NA       0.0000   9999     0     0     0    
2019/06/30  22:37:00  BASE  4.50996  98   6.53268  87   -10.2 81    -12.9 0     0     997.0    NA       0.0000   9999     0     0     0    
2019/06/30  22:38:00  BASE  5.05092  92   6.53268  87   -10.2 80    -13.0 0     0     996.9    NA       0.0000   9999     0     0     0    
2019/06/30  22:39:00  BASE  5.08032  90   6.53268  87   -10.2 80    -13.0 0     0     996.9    NA       0.0000   9999     0     0     0    
2019/06/30  22:40:00  BASE  5.23908  93   6.53268  87   -10.3 80    -13.0 0     0     996.9    NA       0.0000   9999     0     0     0    
2019/06/30  22:41:00  BASE  5.56248  93   6.53268  87   -10.3 80    -13.1 0     0     996.9    NA       0.0000   9999     0     0     0    
2019/06/30  22:42:00  BASE  5.52132  87   6.44448  88   -10.3 80    -13.0 0     0     996.9    NA       0.0000   9999     0     0     0    
2019/06/30  22:43:00  BASE  5.59776  89   6.83844  95   -10.2 80    -13.0 0     0     996.9    NA       0.0000   9999     0     0     0    
2019/06/30  22:44:00  BASE  5.82708  96   6.83844  95   -10.2 81    -12.9 0     0     997.0    NA       0.0000   9999     0     0     0    
2019/06/30  22:45:00  BASE  5.50368  96   6.83844  95   -10.2 81    -12.9 0     0     997.0    NA       0.0000   9999     0     0     0    
2019/06/30  22:46:00  BASE  5.37432  90   6.83844  95   -10.2 81    -12.9 0     0     997.0    NA       0.0000   9999     0     0     0    
2019/06/30  22:47:00  BASE  5.56248  90   6.83844  95   -10.3 81    -12.9 0     0     997.0    NA       0.0000   9999     0     0     0    
2019/06/30  22:48:00  BASE  5.87412  93   6.83844  95   -10.3 81    -13.0 0     0     997.0    NA       0.0000   9999     0     0     0    
2019/06/30  22:49:00  BASE  6.027    91   6.83844  95   -10.4 81    -13.0 0     0     997.0    NA       0.0000   9999     0     0     0    
2019/06/30  22:50:00  BASE  5.7036   88   6.83844  95   -10.4 82    -13.0 0     0     997.0    NA       0.0000   9999     0     0     0    
2019/06/30  22:51:00  BASE  5.75064  88   6.83844  95   -10.5 82    -13.0 0     0     997.0    NA       0.0000   9999     0     0     0    
2019/06/30  22:52:00  BASE  5.81532  87   6.83844  95   -10.5 82    -12.9 0     0     997.0    NA       0.0000   9999     0     0     0    
2019/06/30  22:53:00  BASE  6.16224  88   7.3206   90   -10.4 83    -12.8 0     0     997.0    NA       0.0000   9999     0     0     0    
2019/06/30  22:54:00  BASE  6.77964  91   7.3206   92   -10.4 83    -12.7 0     0     997.0    NA       0.0000   9999     0     0     0    
2019/06/30  22:55:00  BASE  6.36804  93   7.3206   92   -10.4 83    -12.7 0     0     997.0    NA       0.0000   9999     0     0     0    
2019/06/30  22:56:00  BASE  5.93292  93   7.3206   92   -10.4 84    -12.7 0     0     997.0    NA       0.0000   9999     0     0     0    
2019/06/30  22:57:00  BASE  6.16812  90   7.3206   92   -10.5 84    -12.7 0     0     997.0    NA       0.0000   9999     0     0     0    
2019/06/30  22:58:00  BASE  6.468    93   7.3206   92   -10.5 84    -12.6 0     0     997.0    NA       0.0000   9999     0     0     0    
2019/06/30  22:59:00  BASE  6.50328  95   7.3206   92   -10.4 84    -12.6 0     0     997.0    NA       0.0000   9999     0     0     0    
2019/06/30  23:00:00  BASE  6.31512  92   7.3206   92   -10.5 84    -12.6 0     0     997.0    NA       0.0000   9999     0     0     0    
2019/06/30  23:01:00  BASE  6.22104  89   7.3206   92   -10.5 85    -12.6 0     0     997.0    NA       0.0000   9999     0     0     0    
2019/06/30  23:02:00  BASE  5.9094   86   7.3206   92   -10.4 85    -12.5 0     0     997.0    NA       0.0000   9999     0     0     0    
2019/06/30  23:03:00  BASE  5.81532  88   7.3206   92   -10.4 85    -12.4 0     0     997.0    NA       0.0000   9999     0     0     0    
2019/06/30  23:04:00  BASE  6.1446   92   6.92664  98   -10.4 86    -12.4 0     0     997.0    NA       0.0000   9999     0     0     0    
2019/06/30  23:05:00  BASE  6.15636  94   6.92664  98   -10.4 86    -12.3 0     0     997.0    NA       0.0000   9999     0     0     0    
2019/06/30  23:06:00  BASE  5.86824  91   6.92664  98   -10.4 86    -12.2 0     0     997.0    NA       0.0000   9999     0     0     0    
2019/06/30  23:07:00  BASE  5.65656  90   6.92664  98   -10.3 87    -12.1 0     0     997.0    NA       0.0000   9999     0     0     0    
2019/06/30  23:08:00  BASE  5.69772  92   6.62676  89   -10.3 87    -12.0 0     0     997.0    NA       0.0000   9999     0     0     0    
2019/06/30  23:09:00  BASE  5.75652  94   6.62676  89   -10.3 88    -12.0 0     0     997.0    NA       0.0000   9999     0     0     0    
2019/06/30  23:10:00  BASE  5.6448   94   6.62676  89   -10.3 88    -11.9 0     0     997.0    NA       0.0000   9999     0     0     0    
2019/06/30  23:11:00  BASE  5.50956  91   6.62676  89   -10.3 88    -11.8 0     0     997.0    NA       0.0000   9999     0     0     0    
2019/06/30  23:12:00  BASE  5.37432  88   6.62676  89   -10.3 89    -11.8 0     0     997.0    NA       0.0000   9999     0     0     0    
2019/06/30  23:13:00  BASE  5.3214   86   6.62676  89   -10.3 89    -11.8 0     0     997.0    NA       0.0000   9999     0     0     0    
2019/06/30  23:14:00  BASE  5.31552  87   6.62676  89   -10.3 90    -11.7 0     0     997.0    NA       0.0000   9999     0     0     0    
2019/06/30  23:15:00  BASE  5.15676  87   6.05052  97   -10.3 90    -11.6 0     0     997.0    NA       0.0000   9999     0     0     0    
2019/06/30  23:16:00  BASE  5.19204  87   6.05052  97   -10.3 91    -11.5 0     0     997.0    NA       0.0000   9999     0     0     0    
2019/06/30  23:17:00  BASE  5.53308  91   6.2622   98   -10.2 91    -11.4 0     0     997.0    NA       0.0000   9999     0     0     0    
2019/06/30  23:18:00  BASE  5.80944  93   6.2916   93   -10.2 92    -11.3 0     0     997.0    NA       0.0000   9999     0     0     0    
2019/06/30  23:19:00  BASE  5.88588  92   6.2916   93   -10.2 92    -11.3 0     0     997.0    NA       0.0000   9999     0     0     0    
2019/06/30  23:20:00  BASE  5.97996  92   6.321    85   -10.3 92    -11.3 0     0     997.1    NA       0.0000   9999     0     0     0    
2019/06/30  23:21:00  BASE  6.0858   90   6.50328  85   -10.3 93    -11.2 0     0     997.1    NA       0.0000   9999     0     0     0    
2019/06/30  23:22:00  BASE  6.0564   91   6.50328  85   -10.3 93    -11.2 0     0     997.1    NA       0.0000   9999     0     0     0    
2019/06/30  23:23:00  BASE  5.91528  91   6.50328  85   -10.3 93    -11.2 0     0     997.1    NA       0.0000   9999     0     0     0    
2019/06/30  23:24:00  BASE  5.91528  88   6.50328  85   -10.3 94    -11.1 0     0     997.1    NA       0.0000   9999     0     0     0    
2019/06/30  23:25:00  BASE  6.0858   88   6.50328  85   -10.2 94    -11.0 0     0     997.0    NA       0.0000   9999     0     0     0    
2019/06/30  23:26:00  BASE  5.95056  90   6.50328  85   -10.2 95    -10.9 0     0     997.0    NA       0.0000   9999     0     0     0    
2019/06/30  23:27:00  BASE  5.6448   89   6.50328  85   -10.2 95    -10.8 0     0     997.0    NA       0.0000   9999     0     0     0    
2019/06/30  23:28:00  BASE  5.20968  87   6.50328  85   -10.1 95    -10.7 0     0     997.0    NA       0.0000   9999     0     0     0    
2019/06/30  23:29:00  BASE  4.81572  86   6.50328  85   -10.0 95    -10.6 0     0     997.1    NA       0.0000   9999     0     0     0    
2019/06/30  23:30:00  BASE  4.56288  84   6.50328  85   -9.9  96    -10.5 0     0     997.1    NA       0.0000   9999     0     0     0    
2019/06/30  23:31:00  BASE  4.58052  82   6.41508  89   -9.9  96    -10.4 0     0     997.1    NA       0.0000   9999     0     0     0    
2019/06/30  23:32:00  BASE  4.8216   83   6.41508  89   -9.8  96    -10.3 0     0     997.2    NA       0.0000   9999     0     0     0    
2019/06/30  23:33:00  BASE  5.07444  85   6.41508  89   -9.8  96    -10.3 0     0     997.2    NA       0.0000   9999     0     0     0    
2019/06/30  23:34:00  BASE  5.05092  85   6.41508  89   -9.9  96    -10.4 0     0     997.2    NA       0.0000   9999     0     0     0    
2019/06/30  23:35:00  BASE  4.95684  85   6.16812  88   -10.0 96    -10.5 0     0     997.2    NA       0.0000   9999     0     0     0    
2019/06/30  23:36:00  BASE  5.145    84   5.95644  94   -10.1 95    -10.6 0     0     997.2    NA       0.0000   9999     0     0     0    
2019/06/30  23:37:00  BASE  4.97448  83   5.74476  87   -10.1 95    -10.7 0     0     997.2    NA       0.0000   9999     0     0     0    
2019/06/30  23:38:00  BASE  4.81572  82   5.74476  87   -10.2 95    -10.9 0     0     997.2    NA       0.0000   9999     0     0     0    
2019/06/30  23:39:00  BASE  4.79808  81   5.74476  87   -10.2 95    -10.9 0     0     997.2    NA       0.0000   9999     0     0     0    
2019/06/30  23:40:00  BASE  4.74516  81   5.74476  87   -10.2 94    -10.9 0     0     997.2    NA       0.0000   9999     0     0     0    
2019/06/30  23:41:00  BASE  4.60404  82   5.74476  87   -10.2 94    -10.9 0     0     997.2    NA       0.0000   9999     0     0     0    
2019/06/30  23:42:00  BASE  4.55112  83   5.74476  87   -10.2 94    -11.0 0     0     997.2    NA       0.0000   9999     0     0     0    
2019/06/30  23:43:00  BASE  4.78632  84   5.53308  87   -10.2 93    -11.1 0     0     997.2    NA       0.0000   9999     0     0     0    
2019/06/30  23:44:00  BASE  4.851    86   5.53308  87   -10.2 93    -11.2 0     0     997.2    NA       0.0000   9999     0     0     0    
2019/06/30  23:45:00  BASE  4.80984  85   5.50368  82   -10.3 92    -11.3 0     0     997.2    NA       0.0000   9999     0     0     0    
2019/06/30  23:46:00  BASE  4.68636  84   5.38608  82   -10.3 92    -11.4 0     0     997.2    NA       0.0000   9999     0     0     0    
2019/06/30  23:47:00  BASE  4.5276   83   5.38608  82   -10.3 91    -11.4 0     0     997.2    NA       0.0000   9999     0     0     0    
2019/06/30  23:48:00  BASE  4.53348  81   5.38608  82   -10.2 91    -11.4 0     0     997.2    NA       0.0000   9999     0     0     0    
2019/06/30  23:49:00  BASE  4.49232  83   5.38608  82   -10.2 91    -11.5 0     0     997.2    NA       0.0000   9999     0     0     0    
2019/06/30  23:50:00  BASE  4.66284  88   5.62716  103  -10.2 90    -11.5 0     0     997.2    NA       0.0000   9999     0     0     0    
2019/06/30  23:51:00  BASE  5.10972  92   5.62716  103  -10.2 90    -11.5 0     0     997.2    NA       0.0000   9999     0     0     0    
2019/06/30  23:52:00  BASE  5.26848  91   5.62716  103  -10.2 89    -11.7 0     0     997.2    NA       0.0000   9999     0     0     0    
2019/06/30  23:53:00  BASE  5.21556  90   5.62716  103  -10.3 89    -11.8 0     0     997.2    NA       0.0000   9999     0     0     0    
2019/06/30  23:54:00  BASE  5.40372  92   5.80944  94   -10.4 89    -11.9 0     0     997.2    NA       0.0000   9999     0     0     0    
2019/06/30  23:55:00  BASE  5.49192  91   5.83884  92   -10.4 89    -11.9 0     0     997.2    NA       0.0000   9999     0     0     0    
2019/06/30  23:56:00  BASE  5.145    88   5.83884  92   -10.4 89    -11.9 0     0     997.2    NA       0.0000   9999     0     0     0    
2019/06/30  23:57:00  BASE  4.81572  88   5.83884  92   -10.4 89    -11.9 0     0     997.2    NA       0.0000   9999     0     0     0    
2019/06/30  23:58:00  BASE  4.9686   88   5.83884  92   -10.3 89    -11.8 0     0     997.2    NA       0.0000   9999     0     0     0    
2019/06/30  23:59:00  BASE  5.12736  88   5.83884  92   -10.4 89    -11.8 0     0     997.2    NA       0.0000   9999     0     0     0